GFSGL_500_temp_000.txt.gz
Temp
-19 -20 -20 -21 -21 -22 -22 -22 -23 -22 -22 -22 -23 -23 -23 -24 -25 -25 -26 -28 -28 -28 -28 -28 -27 -27 -27 -27 -27 -27 -27 -27 -26 -25 -25 -25 -26 -26 -26 -26 -26 -26 -25
-20 -21 -21 -22 -22 -23 -23 -23 -23 -23 -23 -24 -24 -25 -27 -27 -28 -29 -29 -29 -29 -29 -28 -28 -28 -28 -28 -28 -27 -27 -27 -27 -26 -26 -26 -25 -25 -26 -26 -26 -26 -26 -25
-21 -22 -22 -23 -23 -23 -24 -24 -24 -24 -25 -26 -26 -28 -29 -30 -29 -29 -29 -29 -29 -29 -29 -28 -28 -28 -28 -28 -27 -27 -27 -27 -27 -26 -26 -25 -25 -25 -25 -25 -26 -26 -25
-22 -22 -23 -23 -24 -24 -25 -24 -24 -26 -27 -28 -30 -30 -30 -30 -30 -30 -29 -29 -29 -29 -28 -28 -28 -28 -28 -28 -28 -27 -27 -27 -27 -27 -27 -26 -26 -26 -26 -26 -26 -26 -26
-23 -24 -24 -24 -25 -25 -25 -25 -27 -28 -30 -30 -30 -31 -30 -30 -30 -30 -29 -29 -29 -29 -28 -28 -28 -28 -28 -28 -27 -28 -27 -27 -27 -27 -27 -27 -27 -27 -26 -27 -26 -26 -26
-24 -24 -25 -25 -25 -26 -27 -28 -30 -31 -30 -30 -30 -30 -30 -30 -30 -30 -30 -29 -29 -29 -29 -29 -29 -29 -29 -28 -28 -28 -28 -29 -30 -30 -30 -30 -30 -29 -28 -27 -27 -26 -26
-25 -25 -26 -26 -27 -27 -29 -30 -30 -30 -30 -30 -30 -30 -30 -30 -30 -29 -29 -29 -29 -29 -29 -29 -29 -29 -28 -28 -29 -30 -30 -29 -29 -30 -30 -30 -29 -30 -30 -29 -28 -28 -27
-26 -27 -27 -27 -27 -29 -30 -30 -30 -30 -30 -30 -30 -30 -30 -30 -30 -29 -29 -29 -29 -29 -29 -29 -29 -28 -29 -30 -30 -30 -30 -29 -29 -29 -29 -29 -29 -29 -29 -29 -30 -29 -29
-27 -27 -28 -28 -30 -31 -30 -30 -31 -31 -31 -31 -30 -30 -30 -30 -30 -30 -29 -29 -29 -29 -29 -29 -29 -29 -30 -29 -29 -29 -29 -29 -29 -29 -29 -29 -29 -29 -29 -29 -29 -29 -29
-27 -28 -28 -30 -30 -30 -30 -31 -31 -31 -31 -31 -31 -31 -30 -30 -30 -30 -30 -29 -30 -30 -30 -29 -29 -29 -29 -29 -29 -29 -30 -30 -30 -30 -30 -30 -29 -29 -29 -29 -29 -29 -29
-28 -29 -30 -30 -30 -30 -31 -31 -31 -31 -30 -31 -31 -31 -32 -31 -31 -31 -30 -30 -30 -30 -30 -30 -30 -29 -28 -29 -29 -29 -29 -30 -30 -30 -30 -30 -30 -29 -29 -29 -29 -29 -29
-29 -30 -30 -30 -31 -31 -31 -31 -31 -31 -32 -33 -33 -34 -34 -34 -33 -33 -32 -31 -31 -31 -31 -31 -30 -29 -29 -29 -29 -29 -29 -29 -30 -30 -30 -30 -30 -30 -30 -30 -30 -30 -29
-30 -30 -31 -31 -31 -31 -31 -31 -32 -33 -34 -34 -35 -35 -35 -36 -35 -34 -34 -33 -32 -32 -31 -31 -29 -29 -28 -29 -29 -29 -29 -29 -30 -30 -30 -30 -30 -30 -30 -30 -30 -30 -30
-31 -31 -31 -31 -31 -31 -32 -33 -34 -35 -35 -35 -35 -35 -35 -35 -35 -35 -34 -33 -33 -32 -32 -30 -29 -29 -29 -29 -29 -29 -29 -29 -29 -30 -30 -30 -30 -31 -30 -31 -31 -31 -30
-31 -31 -31 -31 -31 -33 -34 -35 -35 -35 -35 -35 -35 -35 -36 -36 -35 -35 -34 -33 -33 -32 -32 -31 -30 -29 -29 -29 -29 -29 -29 -29 -28 -29 -30 -30 -31 -31 -31 -31 -31 -31 -31
-31 -31 -31 -32 -33 -34 -35 -35 -35 -35 -35 -35 -35 -36 -36 -36 -35 -34 -34 -33 -33 -33 -32 -32 -31 -30 -30 -29 -29 -29 -29 -29 -28 -28 -29 -30 -31 -32 -32 -32 -32 -32 -32
-31 -31 -32 -33 -34 -35 -35 -35 -35 -36 -35 -35 -35 -35 -35 -35 -35 -34 -34 -33 -33 -33 -32 -32 -31 -31 -31 -30 -29 -29 -29 -29 -28 -28 -29 -30 -31 -31 -32 -33 -33 -33 -33
-32 -32 -32 -33 -34 -35 -35 -35 -35 -35 -35 -35 -35 -35 -35 -35 -34 -34 -34 -33 -33 -33 -32 -32 -32 -31 -31 -30 -29 -29 -29 -29 -29 -29 -29 -29 -30 -30 -31 -32 -33 -33 -34
-32 -32 -33 -34 -34 -35 -35 -35 -35 -35 -35 -35 -35 -35 -34 -34 -34 -34 -33 -33 -33 -32 -32 -32 -32 -31 -31 -31 -30 -30 -29 -29 -29 -29 -29 -29 -30 -30 -31 -31 -33 -33 -34
-32 -32 -33 -34 -34 -35 -35 -35 -35 -35 -35 -35 -34 -34 -34 -34 -34 -33 -33 -33 -33 -33 -32 -32 -32 -31 -31 -31 -30 -30 -30 -30 -29 -29 -29 -30 -30 -30 -30 -31 -32 -33 -34
-32 -33 -33 -34 -34 -35 -35 -35 -35 -35 -35 -34 -34 -34 -34 -33 -33 -33 -33 -33 -33 -33 -32 -32 -32 -32 -31 -31 -31 -31 -30 -30 -30 -30 -30 -30 -30 -30 -31 -31 -31 -32 -32
-33 -33 -33 -34 -34 -35 -35 -35 -35 -35 -34 -34 -34 -34 -33 -33 -33 -33 -33 -33 -33 -33 -33 -32 -32 -32 -32 -31 -31 -31 -31 -30 -30 -30 -30 -30 -30 -30 -31 -31 -31 -31 -32
-33 -33 -34 -34 -34 -35 -35 -35 -35 -35 -35 -34 -34 -34 -33 -33 -33 -33 -33 -33 -33 -33 -33 -33 -32 -32 -32 -32 -32 -31 -31 -31 -31 -31 -31 -31 -31 -31 -31 -31 -31 -31 -31
-34 -34 -34 -34 -35 -35 -36 -36 -35 -35 -35 -34 -34 -34 -33 -33 -33 -33 -33 -33 -33 -33 -33 -33 -32 -32 -32 -32 -32 -32 -32 -31 -31 -31 -31 -31 -31 -31 -31 -31 -31 -31 -32
-34 -34 -34 -34 -35 -35 -35 -36 -36 -35 -35 -35 -34 -34 -34 -33 -33 -33 -33 -33 -33 -33 -33 -33 -32 -32 -32 -32 -32 -32 -32 -32 -32 -32 -31 -31 -31 -31 -31 -32 -32 -32 -32
-34 -34 -34 -35 -35 -35 -35 -36 -36 -36 -36 -35 -35 -34 -34 -34 -33 -33 -33 -33 -33 -33 -33 -33 -33 -33 -33 -32 -32 -32 -32 -32 -32 -32 -32 -32 -32 -32 -32 -32 -32 -32 -32

GFSGL_500_temp_003.txt.gz
Temp
-20 -20 -21 -21 -22 -23 -23 -22 -23 -24 -24 -24 -24 -24 -24 -26 -27 -28 -30 -30 -30 -30 -30 -29 -29 -29 -29 -29 -28 -28 -28 -28 -28 -28 -27 -27 -27 -27 -26 -26 -26 -26 -25
-20 -21 -22 -22 -23 -23 -23 -24 -24 -24 -25 -25 -26 -27 -28 -29 -30 -31 -31 -30 -30 -30 -30 -30 -30 -29 -29 -29 -28 -28 -28 -28 -28 -27 -27 -27 -26 -26 -26 -26 -26 -26 -26
-21 -22 -22 -23 -23 -23 -25 -25 -25 -25 -26 -27 -28 -29 -30 -31 -31 -31 -31 -31 -30 -30 -30 -30 -30 -29 -29 -29 -29 -29 -28 -28 -28 -27 -27 -27 -26 -26 -26 -26 -26 -25 -26
-23 -23 -23 -24 -24 -25 -26 -26 -26 -27 -27 -29 -30 -31 -31 -31 -31 -31 -31 -31 -30 -30 -30 -30 -30 -29 -29 -29 -29 -28 -28 -28 -27 -27 -27 -27 -27 -27 -26 -26 -26 -26 -26
-24 -25 -25 -25 -26 -26 -26 -26 -27 -28 -30 -30 -31 -31 -31 -31 -31 -31 -31 -30 -30 -30 -30 -30 -30 -29 -29 -29 -29 -28 -28 -28 -28 -28 -27 -27 -27 -27 -27 -27 -26 -26 -25
-25 -25 -26 -26 -26 -27 -27 -28 -29 -30 -30 -30 -31 -31 -31 -31 -30 -30 -30 -30 -30 -30 -30 -30 -30 -29 -29 -29 -28 -28 -28 -28 -28 -28 -28 -28 -28 -28 -28 -27 -27 -27 -26
-26 -26 -26 -27 -27 -28 -29 -30 -30 -30 -30 -31 -31 -31 -31 -31 -30 -30 -30 -30 -30 -30 -30 -29 -29 -30 -29 -29 -29 -29 -28 -28 -28 -29 -29 -30 -30 -30 -30 -29 -30 -29 -28
-27 -27 -27 -28 -29 -29 -30 -30 -30 -31 -31 -31 -31 -31 -31 -31 -30 -30 -30 -30 -30 -30 -30 -30 -29 -29 -29 -29 -29 -29 -29 -29 -29 -29 -29 -29 -29 -29 -29 -29 -29 -29 -29
-27 -27 -28 -29 -30 -30 -30 -30 -30 -31 -31 -31 -31 -31 -31 -31 -31 -31 -30 -30 -30 -30 -30 -30 -29 -29 -29 -29 -29 -29 -30 -30 -29 -29 -29 -29 -29 -29 -29 -29 -29 -29 -29
-28 -29 -30 -30 -31 -31 -31 -31 -31 -31 -31 -31 -32 -32 -33 -33 -33 -33 -32 -32 -31 -31 -31 -30 -30 -29 -29 -29 -29 -29 -29 -30 -30 -29 -30 -30 -29 -30 -30 -30 -29 -29 -29
-30 -30 -31 -31 -31 -31 -31 -31 -31 -32 -32 -33 -34 -34 -35 -35 -35 -35 -34 -34 -33 -32 -32 -31 -30 -30 -29 -30 -29 -28 -29 -29 -29 -29 -29 -29 -30 -30 -30 -30 -30 -29 -29
-31 -31 -31 -31 -31 -31 -31 -32 -32 -33 -34 -35 -35 -35 -35 -35 -35 -35 -35 -35 -34 -34 -33 -32 -31 -30 -30 -29 -29 -29 -29 -29 -29 -29 -29 -30 -30 -30 -30 -30 -30 -30 -30
-31 -31 -31 -31 -31 -32 -32 -33 -34 -35 -35 -35 -35 -35 -35 -35 -35 -35 -35 -35 -35 -34 -33 -33 -32 -30 -30 -29 -29 -29 -29 -29 -29 -29 -30 -30 -30 -30 -30 -30 -30 -30 -30
-31 -31 -31 -31 -32 -32 -33 -34 -34 -35 -35 -35 -35 -35 -35 -36 -36 -36 -35 -35 -35 -34 -33 -33 -32 -30 -30 -29 -29 -29 -29 -29 -28 -28 -29 -29 -30 -30 -30 -31 -31 -31 -31
-31 -31 -32 -32 -32 -32 -33 -34 -35 -35 -35 -35 -35 -35 -35 -36 -36 -36 -36 -35 -34 -34 -33 -33 -32 -31 -30 -30 -30 -30 -29 -29 -28 -28 -28 -29 -30 -31 -31 -31 -31 -31 -31
-32 -32 -32 -32 -32 -33 -34 -35 -35 -35 -35 -35 -35 -35 -35 -35 -35 -35 -35 -34 -34 -33 -33 -33 -32 -31 -30 -30 -30 -30 -29 -29 -29 -28 -28 -29 -29 -30 -30 -31 -31 -32 -32
-32 -32 -32 -32 -33 -33 -34 -35 -35 -35 -35 -35 -35 -35 -35 -35 -35 -34 -34 -34 -34 -33 -33 -33 -32 -32 -31 -31 -31 -30 -30 -29 -29 -29 -29 -29 -29 -30 -30 -30 -31 -32 -33
-32 -32 -32 -32 -33 -33 -34 -35 -35 -35 -35 -35 -35 -35 -35 -35 -34 -34 -34 -34 -33 -33 -33 -32 -32 -32 -31 -31 -31 -30 -30 -29 -29 -29 -29 -29 -29 -29 -30 -30 -31 -32 -33
-33 -33 -33 -33 -33 -33 -34 -35 -35 -35 -35 -35 -34 -34 -34 -34 -34 -34 -34 -33 -33 -33 -33 -32 -32 -32 -32 -31 -31 -30 -30 -30 -30 -30 -30 -30 -30 -30 -30 -30 -31 -31 -33
-33 -33 -33 -33 -33 -34 -34 -35 -35 -35 -35 -35 -34 -34 -34 -34 -34 -34 -33 -33 -33 -33 -33 -32 -32 -32 -32 -31 -31 -31 -30 -30 -30 -30 -30 -30 -30 -30 -30 -30 -30 -31 -32
-33 -33 -33 -33 -33 -34 -34 -35 -35 -35 -35 -35 -34 -34 -34 -34 -33 -33 -33 -33 -33 -33 -33 -32 -32 -32 -32 -32 -31 -31 -31 -31 -31 -31 -30 -30 -30 -30 -30 -30 -31 -31 -31
-33 -33 -34 -34 -34 -34 -35 -35 -35 -35 -35 -35 -34 -34 -34 -34 -33 -33 -33 -33 -33 -33 -33 -33 -33 -32 -32 -32 -32 -32 -31 -31 -31 -31 -31 -31 -31 -31 -31 -31 -31 -31 -31
-33 -34 -34 -34 -34 -34 -35 -35 -35 -35 -35 -35 -35 -34 -34 -34 -34 -33 -33 -33 -33 -33 -33 -33 -33 -33 -33 -32 -32 -32 -32 -32 -31 -31 -31 -31 -31 -31 -31 -31 -31 -31 -31
-34 -34 -34 -34 -34 -34 -35 -35 -35 -36 -36 -35 -35 -35 -34 -34 -34 -33 -33 -33 -33 -33 -33 -33 -33 -33 -33 -33 -33 -32 -32 -32 -32 -32 -32 -32 -32 -32 -31 -31 -31 -31 -32
-34 -34 -34 -34 -34 -35 -35 -35 -36 -36 -36 -36 -36 -35 -35 -34 -34 -34 -33 -33 -33 -33 -33 -33 -33 -33 -33 -33 -33 -33 -32 -32 -32 -32 -32 -32 -32 -32 -32 -32 -32 -32 -32
-34 -34 -34 -34 -35 -35 -35 -35 -36 -36 -36 -36 -36 -36 -36 -35 -35 -34 -34 -34 -33 -33 -33 -33 -33 -33 -33 -33 -33 -33 -33 -33 -33 -33 -32 -32 -32 -32 -32 -32 -32 -32 -32

GFSGL_500_temp_006.txt.gz
Temp
-20 -20 -21 -21 -21 -22 -22 -22 -23 -24 -25 -25 -25 -26 -26 -27 -28 -29 -30 -31 -31 -31 -30 -30 -30 -30 -30 -30 -30 -29 -28 -28 -28 -28 -28 -27 -27 -27 -27 -26 -26 -25 -26
-20 -21 -21 -22 -22 -23 -23 -25 -25 -25 -26 -26 -26 -27 -28 -29 -30 -31 -31 -31 -31 -31 -31 -31 -31 -31 -30 -30 -30 -30 -29 -29 -29 -28 -28 -28 -27 -28 -28 -28 -27 -27 -26
-21 -23 -22 -23 -24 -25 -25 -26 -26 -26 -27 -27 -28 -29 -30 -30 -31 -31 -31 -31 -31 -31 -31 -31 -31 -30 -30 -30 -30 -30 -30 -29 -29 -29 -28 -28 -28 -28 -27 -27 -27 -27 -27
-23 -23 -23 -24 -24 -25 -26 -26 -26 -27 -28 -29 -30 -30 -30 -30 -31 -31 -31 -31 -31 -31 -31 -31 -30 -30 -30 -30 -30 -29 -29 -29 -29 -29 -28 -28 -28 -28 -28 -27 -27 -27 -27
-23 -23 -24 -25 -25 -26 -27 -27 -28 -29 -30 -30 -31 -30 -31 -31 -31 -31 -31 -31 -31 -31 -31 -31 -30 -30 -30 -30 -29 -29 -29 -29 -29 -28 -28 -28 -28 -28 -28 -27 -27 -27 -26
-23 -24 -25 -26 -27 -27 -28 -29 -29 -30 -31 -31 -31 -31 -31 -31 -31 -31 -31 -31 -31 -31 -30 -30 -30 -30 -30 -30 -29 -29 -29 -29 -29 -29 -29 -28 -28 -28 -28 -28 -27 -27 -26
-25 -26 -27 -28 -28 -28 -29 -30 -30 -31 -31 -31 -31 -31 -31 -31 -31 -31 -31 -31 -31 -31 -31 -30 -30 -30 -30 -29 -29 -29 -29 -29 -29 -29 -29 -29 -29 -29 -29 -28 -28 -28 -27
-27 -28 -28 -29 -29 -30 -30 -31 -31 -31 -31 -31 -31 -31 -31 -32 -32 -32 -32 -32 -32 -32 -31 -31 -30 -30 -30 -29 -29 -29 -29 -29 -29 -29 -29 -29 -29 -30 -30 -30 -29 -29 -29
-28 -29 -29 -30 -30 -31 -31 -31 -31 -31 -31 -31 -32 -32 -33 -34 -34 -34 -34 -34 -34 -34 -33 -32 -31 -30 -30 -29 -29 -29 -29 -29 -29 -29 -29 -29 -29 -29 -29 -29 -29 -29 -29
-29 -30 -30 -31 -31 -31 -31 -31 -31 -32 -32 -32 -33 -34 -34 -35 -35 -34 -34 -35 -35 -35 -35 -34 -32 -31 -30 -30 -29 -29 -29 -29 -29 -29 -29 -29 -29 -30 -30 -30 -30 -29 -29
-30 -30 -31 -31 -31 -31 -32 -32 -32 -32 -33 -33 -34 -34 -35 -35 -35 -35 -35 -35 -35 -35 -35 -34 -33 -32 -31 -30 -30 -29 -29 -29 -29 -29 -29 -29 -29 -30 -30 -30 -30 -30 -30
-31 -31 -31 -31 -32 -32 -32 -32 -32 -33 -33 -34 -34 -35 -35 -35 -34 -35 -35 -36 -36 -35 -35 -34 -33 -32 -31 -30 -29 -29 -28 -29 -29 -29 -29 -30 -30 -30 -30 -30 -30 -30 -30
-31 -32 -32 -32 -32 -32 -32 -32 -32 -33 -34 -34 -34 -34 -35 -35 -35 -35 -36 -36 -35 -35 -35 -34 -34 -33 -31 -30 -30 -29 -29 -29 -29 -29 -29 -29 -30 -30 -30 -30 -30 -30 -31
-32 -32 -32 -32 -32 -32 -32 -32 -33 -33 -34 -34 -34 -34 -35 -35 -35 -35 -36 -36 -35 -35 -34 -34 -33 -32 -31 -30 -30 -29 -29 -29 -28 -28 -28 -28 -29 -29 -30 -30 -30 -30 -31
-33 -33 -32 -32 -32 -32 -32 -33 -33 -34 -34 -34 -34 -34 -34 -35 -35 -35 -35 -35 -34 -34 -34 -34 -33 -32 -31 -30 -30 -30 -29 -29 -29 -28 -28 -28 -28 -29 -29 -30 -31 -31 -31
-33 -33 -33 -32 -32 -33 -33 -33 -33 -34 -35 -34 -34 -35 -35 -35 -35 -35 -35 -34 -34 -34 -33 -33 -33 -32 -31 -30 -30 -30 -30 -29 -29 -29 -29 -29 -29 -29 -29 -29 -29 -30 -31
-33 -33 -33 -33 -33 -33 -33 -33 -34 -35 -35 -34 -34 -35 -35 -35 -35 -34 -34 -34 -33 -33 -33 -33 -32 -32 -32 -31 -31 -31 -30 -30 -29 -29 -29 -29 -29 -29 -29 -29 -29 -29 -31
-33 -33 -33 -33 -33 -33 -33 -33 -34 -35 -35 -35 -35 -34 -34 -34 -34 -34 -34 -34 -33 -33 -33 -33 -32 -32 -32 -31 -31 -31 -30 -30 -30 -30 -30 -29 -30 -30 -29 -30 -30 -30 -30
-33 -33 -33 -33 -33 -33 -33 -34 -34 -35 -35 -35 -35 -34 -34 -34 -34 -34 -34 -33 -33 -33 -33 -32 -32 -32 -32 -31 -31 -31 -30 -30 -30 -30 -30 -30 -30 -30 -30 -30 -30 -30 -30
-33 -33 -33 -33 -33 -33 -34 -34 -34 -35 -35 -35 -35 -34 -34 -34 -34 -33 -33 -33 -33 -33 -33 -32 -32 -32 -32 -31 -31 -31 -31 -31 -31 -31 -30 -30 -30 -30 -30 -30 -30 -30 -31
-33 -33 -33 -33 -34 -34 -34 -34 -34 -35 -35 -35 -35 -34 -34 -34 -34 -33 -33 -33 -33 -33 -33 -33 -32 -32 -32 -32 -32 -31 -31 -31 -31 -31 -31 -31 -31 -31 -31 -31 -31 -31 -31
-33 -34 -34 -34 -34 -34 -34 -34 -35 -35 -35 -35 -35 -35 -34 -34 -34 -33 -33 -33 -33 -33 -33 -33 -33 -33 -32 -32 -32 -32 -32 -31 -31 -31 -31 -31 -31 -31 -31 -31 -31 -31 -31
-34 -34 -34 -34 -34 -34 -34 -35 -35 -35 -35 -35 -35 -35 -35 -34 -34 -34 -33 -33 -33 -33 -33 -33 -33 -33 -33 -33 -32 -32 -32 -32 -32 -32 -32 -32 -31 -31 -31 -31 -32 -32 -32
-33 -34 -34 -34 -34 -34 -34 -35 -35 -35 -35 -35 -36 -36 -35 -35 -35 -34 -34 -34 -33 -33 -33 -33 -33 -33 -33 -33 -33 -33 -32 -32 -32 -32 -32 -32 -32 -32 -32 -32 -32 -32 -32
-34 -34 -34 -34 -34 -34 -34 -35 -35 -35 -35 -35 -36 -36 -36 -36 -35 -35 -34 -34 -34 -33 -33 -33 -33 -33 -33 -33 -33 -33 -33 -33 -33 -33 -32 -32 -32 -32 -32 -32 -32 -32 -32
-34 -34 -34 -34 -34 -34 -35 -35 -35 -35 -35 -35 -36 -36 -36 -36 -36 -36 -35 -35 -34 -34 -34 -34 -34 -33 -33 -33 -33 -33 -33 -33 -33 -33 -33 -33 -33 -33 -33 -33 -33 -33 -33

GFSGL_500_temp_009.txt.gz
Temp
-19 -19 -20 -20 -21 -21 -22 -22 -23 -23 -24 -25 -26 -26 -27 -27 -28 -29 -30 -30 -31 -31 -31 -31 -31 -31 -31 -30 -30 -30 -30 -30 -30 -29 -29 -28 -28 -28 -28 -27 -26 -26 -26
-19 -20 -21 -21 -22 -23 -23 -23 -24 -25 -25 -26 -27 -28 -29 -30 -30 -31 -31 -31 -31 -31 -31 -31 -31 -31 -31 -31 -31 -31 -31 -30 -30 -30 -29 -29 -29 -28 -28 -28 -28 -27 -27
-20 -21 -22 -23 -23 -24 -24 -25 -26 -26 -27 -28 -29 -30 -30 -31 -31 -31 -31 -31 -31 -31 -31 -31 -31 -31 -31 -31 -31 -30 -30 -31 -30 -30 -30 -29 -29 -29 -29 -28 -28 -28 -27
-22 -23 -23 -24 -24 -25 -25 -26 -27 -28 -28 -29 -30 -31 -31 -31 -31 -31 -31 -31 -31 -31 -31 -31 -31 -31 -31 -31 -31 -30 -30 -30 -30 -30 -30 -29 -29 -29 -29 -28 -28 -28 -28
-23 -24 -24 -25 -26 -26 -27 -28 -29 -29 -30 -30 -31 -31 -31 -31 -31 -31 -31 -31 -31 -31 -31 -31 -31 -31 -30 -31 -30 -30 -30 -30 -30 -30 -29 -29 -29 -29 -29 -29 -28 -28 -28
-24 -24 -25 -26 -28 -28 -29 -29 -30 -30 -30 -31 -31 -31 -31 -31 -31 -31 -32 -32 -32 -32 -32 -31 -31 -31 -30 -30 -30 -30 -30 -30 -30 -30 -29 -29 -29 -29 -29 -29 -28 -28 -28
-24 -25 -27 -28 -29 -29 -30 -30 -30 -31 -31 -31 -31 -31 -31 -32 -32 -33 -33 -34 -34 -34 -34 -33 -33 -32 -31 -30 -30 -30 -30 -30 -29 -29 -29 -29 -29 -29 -29 -28 -28 -28 -28
-27 -27 -28 -29 -30 -30 -30 -31 -31 -31 -31 -31 -32 -32 -32 -33 -33 -34 -34 -35 -35 -35 -34 -35 -35 -34 -33 -31 -30 -30 -30 -30 -30 -29 -29 -29 -29 -29 -29 -29 -29 -28 -28
-29 -29 -30 -30 -30 -31 -31 -31 -32 -31 -32 -32 -32 -32 -33 -34 -34 -34 -34 -34 -34 -35 -35 -35 -35 -35 -34 -33 -31 -30 -30 -30 -29 -29 -29 -29 -29 -29 -30 -30 -29 -29 -29
-29 -29 -30 -31 -31 -32 -32 -32 -32 -32 -32 -32 -32 -33 -34 -34 -34 -34 -34 -34 -34 -35 -35 -35 -35 -35 -34 -33 -32 -30 -30 -29 -29 -29 -29 -29 -30 -30 -30 -30 -30 -29 -29
-30 -31 -31 -32 -33 -33 -33 -32 -32 -32 -32 -32 -33 -33 -34 -34 -34 -34 -34 -35 -35 -36 -36 -35 -35 -35 -34 -33 -32 -30 -30 -29 -29 -29 -29 -29 -29 -29 -30 -30 -30 -30 -30
-31 -31 -32 -33 -33 -33 -33 -32 -32 -32 -32 -33 -33 -34 -34 -34 -34 -34 -35 -35 -36 -36 -36 -35 -35 -35 -34 -33 -32 -31 -30 -29 -29 -29 -29 -29 -30 -30 -30 -30 -30 -30 -30
-31 -32 -33 -33 -33 -33 -33 -32 -32 -32 -33 -33 -33 -34 -34 -34 -34 -35 -35 -36 -36 -36 -35 -35 -35 -35 -34 -33 -32 -31 -30 -29 -29 -29 -29 -29 -29 -29 -29 -29 -30 -30 -30
-32 -32 -33 -33 -33 -33 -33 -33 -33 -33 -33 -33 -34 -34 -34 -34 -35 -35 -35 -35 -35 -35 -34 -34 -34 -34 -33 -32 -31 -30 -29 -29 -29 -29 -29 -29 -28 -28 -28 -28 -29 -30 -30
-33 -33 -33 -33 -33 -33 -33 -33 -33 -33 -33 -34 -34 -34 -34 -34 -35 -35 -35 -34 -34 -34 -34 -34 -33 -33 -32 -31 -31 -30 -29 -29 -29 -29 -29 -29 -28 -28 -28 -28 -28 -29 -29
-33 -32 -32 -33 -33 -33 -33 -33 -33 -33 -34 -34 -34 -34 -34 -34 -34 -34 -34 -34 -34 -33 -33 -33 -33 -33 -32 -32 -31 -30 -30 -29 -29 -29 -29 -29 -29 -29 -29 -29 -29 -29 -29
-32 -32 -33 -33 -33 -33 -33 -33 -33 -33 -34 -34 -34 -34 -34 -34 -34 -34 -34 -34 -33 -33 -33 -33 -33 -32 -32 -32 -31 -30 -30 -30 -30 -30 -30 -29 -29 -29 -29 -29 -29 -29 -29
-32 -32 -33 -33 -33 -33 -33 -33 -33 -34 -34 -34 -34 -34 -34 -34 -34 -34 -34 -34 -33 -33 -33 -33 -32 -32 -32 -32 -31 -31 -30 -30 -30 -30 -30 -30 -30 -30 -30 -30 -29 -29 -29
-32 -32 -33 -33 -33 -33 -33 -33 -34 -34 -34 -34 -34 -34 -34 -34 -34 -33 -33 -33 -33 -33 -33 -33 -32 -32 -32 -32 -31 -31 -31 -31 -31 -31 -30 -30 -30 -30 -30 -30 -30 -30 -30
-32 -32 -33 -33 -33 -33 -34 -33 -34 -34 -34 -34 -35 -35 -34 -34 -34 -33 -33 -33 -33 -33 -33 -33 -33 -32 -32 -32 -32 -31 -31 -31 -31 -31 -31 -31 -30 -30 -30 -30 -30 -30 -30
-33 -33 -33 -34 -34 -34 -34 -34 -34 -34 -34 -34 -35 -35 -35 -34 -34 -34 -33 -33 -33 -33 -33 -33 -33 -33 -32 -32 -32 -32 -31 -31 -31 -31 -31 -31 -31 -31 -31 -31 -31 -31 -31
-33 -33 -33 -34 -34 -34 -34 -34 -34 -34 -34 -34 -35 -35 -35 -35 -35 -34 -34 -33 -33 -33 -33 -33 -33 -33 -33 -33 -32 -32 -32 -32 -32 -31 -31 -31 -31 -31 -31 -31 -31 -31 -31
-33 -33 -33 -34 -34 -34 -34 -34 -34 -34 -35 -35 -35 -35 -35 -35 -35 -35 -34 -34 -34 -33 -33 -33 -33 -33 -33 -33 -33 -33 -32 -32 -32 -32 -32 -32 -32 -32 -32 -32 -32 -32 -32
-34 -34 -34 -34 -34 -34 -34 -34 -34 -35 -35 -35 -35 -35 -35 -35 -35 -35 -35 -35 -34 -34 -33 -33 -33 -33 -33 -33 -33 -33 -33 -33 -32 -32 -32 -32 -32 -32 -32 -32 -32 -32 -32
-34 -34 -34 -34 -34 -34 -34 -34 -35 -35 -35 -35 -35 -35 -35 -35 -36 -36 -36 -36 -35 -35 -34 -34 -34 -33 -33 -33 -33 -33 -33 -33 -33 -33 -33 -32 -32 -32 -32 -32 -32 -32 -32
-34 -34 -34 -34 -34 -35 -35 -35 -35 -35 -36 -36 -36 -35 -35 -36 -36 -36 -36 -36 -36 -36 -35 -35 -34 -34 -34 -34 -33 -33 -33 -33 -33 -33 -33 -33 -33 -33 -33 -33 -33 -33 -33

GFSGL_500_temp_012.txt.gz
Temp
-18 -18 -19 -20 -20 -21 -22 -22 -23 -23 -24 -25 -25 -27 -27 -28 -29 -29 -30 -30 -31 -31 -31 -31 -31 -31 -31 -31 -31 -31 -31 -31 -31 -30 -30 -30 -30 -28 -27 -28 -28 -27 -27
-19 -19 -20 -21 -21 -23 -24 -24 -25 -25 -26 -27 -28 -28 -29 -30 -30 -31 -31 -31 -31 -31 -31 -31 -31 -31 -31 -31 -31 -31 -31 -31 -31 -31 -30 -30 -30 -30 -29 -29 -28 -29 -28
-19 -21 -22 -22 -23 -24 -25 -25 -27 -27 -28 -29 -29 -30 -30 -30 -31 -31 -31 -31 -31 -31 -31 -31 -31 -31 -31 -31 -31 -31 -31 -31 -31 -30 -30 -30 -30 -30 -30 -29 -29 -29 -29
-21 -21 -22 -22 -23 -24 -26 -27 -28 -29 -29 -30 -30 -30 -31 -31 -31 -31 -31 -31 -31 -31 -32 -32 -32 -31 -31 -31 -31 -31 -31 -31 -31 -30 -30 -30 -30 -30 -30 -30 -30 -30 -29
-22 -23 -22 -23 -22 -24 -27 -28 -29 -30 -30 -30 -31 -31 -31 -31 -31 -31 -32 -32 -32 -32 -33 -33 -33 -33 -33 -32 -32 -31 -31 -31 -31 -31 -30 -30 -30 -30 -30 -30 -29 -29 -29
-23 -24 -25 -27 -26 -27 -29 -30 -30 -31 -31 -31 -32 -32 -32 -32 -32 -32 -32 -33 -33 -34 -34 -34 -34 -34 -34 -34 -33 -32 -31 -31 -31 -30 -30 -30 -30 -30 -30 -30 -29 -29 -29
-23 -24 -26 -28 -30 -30 -31 -31 -32 -32 -32 -32 -32 -32 -32 -32 -32 -32 -33 -33 -34 -34 -34 -34 -34 -34 -34 -34 -34 -33 -32 -31 -30 -30 -30 -30 -30 -30 -30 -29 -29 -29 -29
-25 -25 -28 -29 -30 -31 -32 -32 -33 -33 -33 -32 -33 -32 -32 -32 -33 -33 -34 -34 -34 -34 -34 -34 -34 -34 -34 -35 -34 -34 -33 -32 -31 -30 -30 -30 -29 -30 -29 -29 -29 -29 -29
-26 -27 -29 -31 -31 -32 -32 -32 -33 -33 -33 -33 -33 -33 -33 -33 -33 -34 -34 -34 -34 -34 -35 -35 -35 -35 -35 -35 -35 -34 -34 -32 -30 -30 -29 -30 -29 -29 -29 -29 -29 -29 -29
-27 -28 -30 -30 -33 -33 -32 -33 -33 -33 -33 -33 -33 -33 -33 -34 -34 -34 -34 -34 -35 -35 -36 -36 -36 -36 -36 -36 -35 -34 -34 -32 -30 -30 -29 -29 -29 -30 -30 -30 -30 -30 -30
-29 -29 -30 -31 -32 -32 -33 -33 -33 -33 -33 -33 -33 -33 -34 -34 -34 -34 -35 -35 -35 -36 -36 -36 -36 -36 -36 -35 -35 -34 -33 -32 -30 -30 -29 -30 -30 -30 -30 -30 -30 -30 -30
-29 -30 -30 -32 -32 -33 -33 -33 -33 -33 -33 -33 -33 -33 -34 -34 -34 -34 -35 -35 -35 -35 -35 -35 -35 -35 -35 -35 -35 -34 -32 -31 -30 -30 -30 -30 -29 -29 -30 -30 -30 -30 -30
-30 -31 -31 -32 -32 -32 -32 -33 -33 -33 -33 -33 -33 -34 -34 -34 -34 -35 -35 -35 -35 -35 -35 -35 -35 -35 -35 -34 -34 -33 -31 -30 -30 -30 -29 -29 -29 -29 -29 -29 -29 -29 -30
-31 -32 -32 -32 -32 -32 -33 -33 -33 -33 -33 -33 -33 -34 -34 -34 -34 -34 -34 -34 -34 -34 -34 -34 -34 -34 -33 -33 -32 -31 -31 -30 -30 -29 -29 -29 -29 -29 -29 -28 -28 -28 -28
-32 -32 -32 -32 -32 -32 -33 -33 -33 -33 -33 -33 -33 -34 -34 -34 -34 -34 -34 -34 -34 -34 -34 -34 -34 -33 -33 -32 -31 -31 -30 -30 -29 -29 -29 -29 -29 -29 -28 -28 -28 -28 -28
-32 -32 -32 -32 -32 -33 -33 -33 -33 -33 -33 -33 -34 -34 -34 -34 -34 -34 -34 -34 -34 -33 -33 -33 -33 -33 -33 -32 -32 -31 -30 -30 -30 -30 -29 -29 -29 -29 -29 -29 -29 -29 -28
-32 -32 -32 -32 -32 -33 -33 -33 -33 -33 -33 -33 -34 -34 -34 -34 -34 -34 -34 -34 -34 -33 -33 -33 -33 -33 -32 -32 -32 -31 -31 -30 -30 -30 -30 -30 -30 -29 -29 -29 -29 -29 -29
-33 -32 -32 -32 -32 -33 -33 -33 -33 -33 -33 -33 -33 -34 -34 -34 -34 -34 -34 -34 -34 -33 -33 -33 -33 -32 -32 -32 -32 -31 -31 -31 -31 -31 -30 -30 -30 -30 -30 -30 -30 -30 -30
-33 -33 -33 -33 -33 -33 -33 -34 -34 -34 -33 -33 -34 -34 -34 -34 -34 -34 -34 -33 -33 -33 -33 -33 -33 -32 -32 -32 -32 -32 -31 -31 -31 -31 -31 -31 -30 -30 -30 -30 -30 -30 -30
-33 -33 -33 -33 -33 -33 -34 -34 -34 -34 -34 -34 -34 -34 -34 -34 -35 -34 -34 -34 -33 -33 -33 -33 -33 -33 -33 -32 -32 -32 -32 -32 -31 -31 -31 -31 -31 -31 -31 -31 -31 -31 -31
-33 -33 -33 -33 -33 -34 -34 -34 -34 -34 -34 -34 -34 -34 -34 -34 -34 -35 -34 -34 -34 -33 -33 -33 -33 -33 -33 -33 -33 -32 -32 -32 -32 -32 -31 -31 -31 -31 -31 -31 -31 -31 -31
-33 -33 -33 -34 -34 -34 -34 -34 -34 -34 -34 -34 -34 -35 -34 -34 -34 -35 -35 -35 -34 -34 -33 -33 -33 -33 -33 -33 -33 -33 -33 -32 -32 -32 -32 -32 -32 -32 -32 -32 -32 -32 -31
-33 -33 -34 -34 -34 -34 -34 -34 -34 -35 -35 -35 -35 -35 -35 -35 -35 -35 -35 -35 -35 -35 -34 -34 -33 -33 -33 -33 -33 -33 -33 -33 -33 -32 -32 -32 -32 -32 -32 -32 -32 -32 -32
-34 -34 -34 -34 -34 -34 -34 -34 -35 -35 -35 -35 -35 -35 -35 -35 -35 -35 -35 -35 -36 -35 -35 -35 -34 -34 -33 -33 -33 -33 -33 -33 -33 -33 -33 -33 -32 -32 -32 -32 -32 -32 -32
-34 -34 -34 -34 -34 -34 -34 -35 -35 -35 -35 -35 -36 -36 -36 -36 -36 -35 -36 -36 -36 -36 -36 -36 -35 -35 -34 -34 -33 -33 -33 -33 -33 -33 -33 -33 -33 -33 -33 -33 -33 -33 -33
-34 -34 -34 -34 -34 -34 -35 -35 -35 -35 -35 -36 -36 -36 -36 -36 -36 -36 -36 -36 -36 -36 -36 -36 -36 -36 -35 -35 -34 -34 -34 -34 -34 -34 -33 -33 -33 -33 -33 -33 -33 -33 -33

GFSGL_500_temp_015.txt.gz
Temp
-18 -18 -19 -19 -20 -21 -22 -22 -23 -23 -24 -24 -27 -28 -29 -30 -30 -30 -30 -31 -31 -31 -31 -31 -31 -31 -31 -31 -31 -31 -31 -31 -31 -31 -31 -31 -31 -31 -30 -30 -29 -29 -27
-18 -19 -19 -20 -20 -21 -22 -23 -24 -26 -26 -27 -29 -30 -31 -30 -31 -31 -31 -32 -31 -31 -31 -31 -32 -32 -32 -32 -31 -31 -31 -31 -31 -31 -31 -31 -31 -31 -31 -30 -30 -30 -29
-19 -19 -20 -21 -22 -22 -23 -23 -24 -26 -27 -29 -30 -31 -32 -31 -32 -32 -32 -32 -32 -32 -32 -32 -32 -32 -32 -32 -32 -32 -32 -31 -31 -31 -30 -31 -31 -31 -31 -31 -30 -30 -30
-19 -20 -21 -22 -22 -23 -25 -27 -28 -30 -30 -30 -31 -31 -32 -33 -32 -32 -32 -32 -32 -32 -32 -32 -33 -33 -33 -33 -33 -33 -33 -32 -32 -31 -31 -31 -31 -31 -31 -31 -30 -30 -30
-20 -21 -21 -22 -23 -24 -26 -28 -30 -31 -30 -31 -32 -32 -33 -32 -32 -32 -32 -32 -32 -32 -33 -33 -34 -34 -34 -34 -33 -33 -34 -34 -33 -32 -31 -31 -31 -31 -31 -31 -30 -30 -30
-21 -22 -23 -23 -24 -26 -28 -30 -31 -31 -31 -32 -32 -33 -33 -32 -32 -32 -32 -33 -33 -33 -33 -34 -34 -34 -34 -34 -34 -34 -34 -34 -34 -33 -32 -31 -31 -31 -31 -31 -30 -30 -30
-22 -23 -24 -25 -26 -28 -29 -31 -32 -32 -32 -33 -33 -33 -32 -32 -32 -32 -32 -33 -34 -34 -34 -34 -34 -34 -34 -34 -34 -34 -34 -34 -34 -34 -32 -31 -31 -31 -31 -31 -30 -30 -30
-23 -24 -25 -26 -28 -29 -30 -33 -33 -33 -33 -33 -33 -32 -33 -32 -33 -33 -34 -34 -34 -35 -35 -35 -35 -35 -35 -35 -35 -35 -35 -35 -35 -34 -32 -31 -30 -31 -30 -30 -30 -30 -30
-24 -25 -26 -28 -29 -29 -31 -33 -32 -33 -33 -33 -33 -33 -33 -33 -33 -34 -34 -34 -35 -35 -36 -36 -36 -36 -36 -36 -36 -36 -36 -35 -35 -34 -32 -31 -30 -30 -30 -30 -30 -29 -29
-24 -26 -28 -29 -30 -31 -32 -32 -33 -33 -33 -33 -33 -33 -33 -33 -33 -34 -34 -35 -35 -35 -35 -35 -36 -36 -36 -36 -36 -36 -35 -35 -35 -33 -31 -31 -30 -30 -30 -30 -29 -29 -29
-26 -29 -30 -30 -31 -32 -32 -32 -32 -33 -33 -33 -33 -33 -33 -33 -34 -34 -34 -34 -34 -34 -35 -35 -35 -35 -36 -36 -36 -36 -35 -35 -34 -32 -31 -30 -30 -30 -30 -30 -30 -30 -30
-28 -30 -31 -32 -32 -32 -32 -32 -33 -33 -33 -33 -33 -33 -33 -34 -34 -34 -34 -34 -34 -34 -34 -34 -35 -35 -35 -35 -35 -35 -35 -34 -32 -31 -30 -30 -30 -30 -30 -30 -30 -30 -30
-30 -31 -32 -32 -32 -32 -32 -33 -33 -33 -33 -33 -33 -33 -33 -34 -34 -34 -34 -34 -34 -34 -34 -34 -34 -34 -34 -34 -34 -34 -33 -32 -31 -31 -30 -30 -30 -30 -30 -30 -30 -30 -30
-31 -31 -32 -32 -32 -32 -32 -33 -33 -33 -33 -33 -33 -33 -33 -33 -34 -34 -34 -34 -34 -34 -34 -34 -34 -34 -34 -33 -33 -33 -32 -31 -31 -30 -30 -30 -30 -30 -29 -29 -29 -28 -28
-31 -32 -32 -32 -32 -32 -32 -33 -33 -33 -33 -33 -33 -33 -33 -34 -34 -34 -34 -34 -34 -34 -33 -33 -33 -33 -33 -33 -32 -32 -31 -31 -30 -30 -30 -30 -29 -29 -29 -29 -29 -28 -28
-31 -32 -33 -33 -32 -32 -32 -33 -33 -33 -33 -33 -33 -33 -33 -34 -34 -34 -34 -34 -34 -33 -33 -33 -33 -33 -33 -32 -32 -32 -32 -31 -31 -30 -30 -30 -30 -30 -29 -29 -29 -29 -29
-32 -32 -33 -33 -33 -33 -33 -33 -34 -34 -34 -34 -33 -33 -34 -34 -34 -34 -34 -34 -34 -34 -33 -33 -33 -33 -32 -32 -32 -32 -32 -31 -31 -31 -30 -30 -30 -30 -30 -30 -29 -29 -29
-32 -33 -33 -33 -33 -33 -33 -33 -33 -34 -34 -34 -34 -33 -34 -34 -34 -34 -34 -34 -33 -33 -34 -33 -33 -33 -32 -32 -32 -32 -32 -31 -31 -31 -31 -30 -30 -30 -30 -30 -30 -30 -30
-32 -33 -33 -33 -33 -33 -33 -33 -34 -34 -34 -34 -34 -34 -34 -34 -34 -34 -34 -34 -34 -33 -33 -33 -33 -33 -33 -32 -32 -32 -32 -31 -31 -31 -31 -31 -31 -30 -30 -30 -30 -30 -30
-32 -33 -33 -33 -33 -33 -33 -34 -34 -34 -34 -34 -34 -34 -34 -34 -34 -34 -34 -35 -34 -34 -33 -33 -33 -33 -33 -33 -33 -33 -32 -32 -32 -32 -31 -31 -31 -31 -31 -31 -31 -31 -31
-33 -33 -33 -33 -33 -33 -34 -34 -34 -34 -34 -34 -34 -34 -34 -34 -35 -34 -35 -35 -35 -35 -34 -34 -33 -33 -33 -33 -33 -33 -33 -33 -32 -32 -32 -32 -31 -31 -31 -31 -31 -31 -31
-33 -33 -33 -34 -34 -34 -34 -34 -34 -34 -35 -35 -35 -35 -35 -35 -35 -35 -35 -35 -35 -35 -35 -35 -34 -33 -33 -33 -33 -33 -33 -33 -33 -33 -32 -32 -32 -32 -32 -32 -32 -32 -32
-33 -33 -34 -34 -34 -34 -34 -34 -34 -35 -35 -35 -35 -35 -35 -35 -35 -35 -35 -35 -35 -35 -35 -35 -35 -34 -34 -33 -33 -33 -33 -33 -33 -33 -33 -33 -33 -32 -32 -32 -32 -32 -32
-34 -34 -34 -34 -34 -34 -34 -34 -35 -35 -35 -35 -35 -35 -35 -35 -35 -36 -36 -36 -35 -35 -36 -36 -36 -35 -35 -34 -34 -34 -33 -33 -33 -33 -33 -33 -33 -33 -33 -33 -33 -33 -33
-34 -34 -34 -34 -34 -34 -34 -35 -35 -35 -35 -35 -36 -36 -36 -36 -36 -36 -36 -36 -36 -36 -36 -36 -36 -36 -36 -36 -35 -35 -34 -34 -34 -33 -33 -33 -33 -33 -33 -33 -33 -33 -33
-34 -34 -34 -34 -34 -34 -34 -35 -35 -35 -35 -36 -36 -36 -36 -36 -36 -36 -36 -36 -36 -36 -36 -37 -37 -37 -37 -37 -36 -36 -35 -35 -35 -34 -34 -34 -34 -34 -34 -33 -33 -33 -33

GFSGL_500_temp_018.txt.gz
Temp
-18 -18 -18 -19 -19 -19 -20 -21 -21 -22 -22 -23 -25 -27 -29 -31 -31 -31 -31 -32 -32 -32 -33 -33 -32 -32 -32 -32 -32 -31 -32 -32 -31 -31 -31 -31 -31 -32 -32 -32 -32 -31 -30
-18 -18 -19 -19 -20 -20 -20 -21 -22 -23 -24 -25 -27 -30 -31 -31 -31 -32 -31 -32 -33 -33 -32 -32 -32 -32 -32 -32 -32 -32 -32 -32 -32 -31 -31 -31 -31 -32 -32 -32 -32 -32 -31
-19 -19 -19 -20 -20 -21 -22 -22 -23 -24 -25 -29 -30 -31 -31 -31 -32 -31 -32 -32 -33 -32 -32 -32 -32 -32 -32 -32 -32 -32 -32 -32 -32 -32 -32 -31 -31 -31 -32 -32 -32 -31 -31
-19 -19 -20 -20 -21 -22 -22 -23 -25 -26 -28 -29 -31 -32 -31 -31 -32 -32 -32 -32 -32 -32 -33 -33 -33 -33 -33 -33 -33 -33 -33 -33 -33 -33 -33 -32 -32 -31 -31 -32 -32 -31 -31
-19 -20 -20 -21 -22 -23 -23 -24 -26 -28 -29 -30 -32 -32 -32 -32 -32 -32 -32 -32 -33 -33 -33 -33 -33 -33 -34 -34 -34 -34 -34 -34 -34 -34 -33 -33 -33 -32 -31 -31 -31 -31 -31
-20 -21 -21 -22 -23 -24 -25 -26 -28 -29 -30 -31 -33 -33 -33 -32 -32 -32 -32 -33 -33 -33 -33 -34 -34 -34 -35 -35 -35 -35 -34 -34 -34 -34 -34 -34 -34 -33 -32 -31 -31 -31 -31
-21 -21 -22 -23 -24 -24 -26 -28 -30 -30 -31 -32 -33 -33 -33 -32 -32 -32 -33 -32 -33 -34 -34 -34 -35 -35 -35 -36 -36 -36 -36 -35 -35 -34 -34 -34 -34 -34 -32 -31 -31 -31 -31
-22 -22 -23 -24 -25 -26 -28 -30 -31 -31 -32 -33 -33 -33 -33 -32 -33 -32 -33 -33 -34 -34 -34 -34 -35 -35 -35 -36 -36 -36 -36 -36 -36 -35 -34 -35 -34 -34 -32 -31 -31 -31 -31
-23 -23 -24 -25 -26 -28 -30 -31 -32 -32 -32 -32 -33 -33 -33 -33 -33 -33 -33 -34 -34 -34 -34 -34 -34 -35 -35 -36 -36 -36 -36 -36 -36 -35 -35 -35 -34 -33 -31 -30 -31 -31 -31
-23 -24 -25 -25 -28 -30 -31 -32 -32 -32 -32 -33 -33 -32 -33 -33 -32 -33 -33 -34 -34 -34 -34 -34 -34 -35 -35 -36 -36 -36 -36 -36 -36 -36 -35 -35 -34 -32 -31 -30 -30 -30 -30
-24 -25 -25 -28 -30 -31 -32 -32 -32 -32 -32 -33 -33 -33 -33 -33 -33 -33 -33 -34 -34 -34 -34 -34 -34 -34 -35 -35 -35 -36 -36 -36 -35 -35 -35 -34 -32 -31 -30 -30 -30 -30 -30
-25 -25 -28 -30 -31 -31 -32 -32 -32 -32 -33 -33 -33 -33 -33 -33 -33 -33 -33 -34 -34 -34 -34 -34 -34 -34 -34 -35 -35 -35 -35 -35 -35 -34 -33 -32 -31 -31 -30 -30 -30 -30 -30
-26 -27 -29 -30 -31 -32 -33 -32 -32 -32 -33 -33 -33 -33 -33 -33 -33 -33 -33 -34 -34 -34 -34 -33 -34 -34 -34 -34 -34 -34 -34 -34 -33 -33 -32 -31 -31 -31 -30 -30 -30 -30 -30
-27 -28 -30 -31 -32 -32 -33 -33 -33 -33 -33 -33 -33 -33 -33 -33 -33 -33 -34 -34 -34 -34 -34 -33 -33 -33 -33 -33 -33 -33 -33 -33 -32 -32 -31 -31 -30 -30 -30 -30 -30 -30 -30
-29 -30 -30 -31 -32 -33 -33 -33 -33 -33 -33 -33 -34 -33 -33 -33 -33 -33 -33 -34 -34 -34 -34 -33 -33 -33 -33 -33 -33 -33 -32 -32 -31 -31 -31 -31 -31 -31 -30 -30 -29 -29 -28
-30 -31 -31 -32 -32 -33 -33 -33 -33 -33 -33 -34 -34 -34 -34 -33 -33 -34 -34 -34 -34 -34 -33 -33 -33 -33 -33 -32 -32 -32 -32 -32 -32 -31 -31 -31 -30 -30 -30 -30 -29 -29 -29
-30 -31 -32 -32 -33 -33 -33 -34 -34 -33 -34 -34 -34 -34 -34 -34 -34 -34 -34 -34 -34 -34 -33 -33 -33 -33 -33 -33 -32 -32 -32 -32 -32 -31 -31 -31 -30 -30 -30 -30 -30 -30 -29
-31 -31 -32 -32 -33 -33 -34 -34 -34 -34 -34 -34 -34 -34 -34 -34 -34 -34 -34 -34 -34 -34 -34 -33 -34 -33 -33 -33 -33 -32 -32 -32 -32 -31 -31 -31 -31 -31 -30 -30 -30 -30 -30
-32 -32 -32 -33 -33 -34 -34 -34 -34 -34 -34 -34 -34 -34 -34 -34 -34 -34 -34 -34 -34 -34 -34 -34 -33 -33 -33 -33 -33 -33 -32 -32 -32 -32 -31 -31 -31 -31 -31 -30 -30 -30 -30
-32 -33 -33 -33 -34 -34 -34 -34 -34 -34 -34 -34 -34 -34 -34 -34 -34 -34 -34 -35 -34 -34 -34 -34 -34 -34 -33 -33 -33 -33 -33 -33 -32 -32 -32 -31 -31 -31 -31 -31 -31 -31 -31
-33 -33 -33 -34 -34 -34 -34 -34 -34 -34 -34 -35 -35 -35 -35 -35 -34 -34 -34 -35 -35 -35 -35 -35 -34 -34 -34 -33 -33 -33 -33 -33 -33 -33 -32 -32 -32 -32 -31 -31 -31 -31 -31
-33 -33 -34 -34 -34 -34 -34 -34 -34 -34 -35 -35 -35 -35 -35 -35 -35 -35 -35 -35 -35 -35 -35 -35 -35 -35 -35 -34 -34 -33 -33 -33 -33 -33 -33 -33 -33 -32 -32 -32 -32 -32 -32
-34 -34 -34 -34 -34 -34 -34 -34 -34 -34 -35 -35 -35 -35 -35 -35 -35 -35 -35 -35 -35 -35 -35 -35 -35 -35 -35 -35 -35 -34 -34 -33 -33 -33 -33 -33 -33 -33 -33 -32 -32 -32 -32
-34 -34 -34 -34 -34 -34 -34 -34 -34 -35 -35 -35 -35 -35 -36 -36 -36 -36 -36 -36 -36 -36 -36 -36 -36 -36 -36 -36 -36 -36 -35 -34 -34 -33 -33 -33 -33 -33 -33 -33 -33 -33 -33
-34 -34 -34 -34 -34 -34 -34 -34 -35 -35 -35 -35 -35 -35 -36 -36 -36 -36 -36 -36 -37 -37 -37 -37 -37 -37 -37 -36 -36 -36 -36 -36 -35 -35 -34 -34 -34 -33 -33 -33 -33 -33 -33
-34 -34 -34 -34 -34 -34 -34 -35 -35 -35 -35 -35 -35 -36 -36 -36 -36 -36 -36 -37 -37 -37 -37 -37 -37 -37 -37 -37 -37 -37 -37 -37 -36 -36 -35 -35 -35 -34 -34 -34 -34 -34 -34

GFSGL_500_temp_021.txt.gz
Temp
-18 -18 -18 -18 -18 -18 -19 -19 -20 -20 -21 -22 -23 -24 -25 -27 -29 -30 -31 -32 -32 -31 -32 -32 -32 -32 -32 -32 -32 -32 -32 -32 -32 -32 -32 -32 -32 -31 -32 -32 -32 -32 -31
-18 -18 -18 -19 -19 -19 -20 -20 -20 -21 -22 -23 -24 -25 -28 -30 -30 -31 -32 -33 -33 -32 -32 -32 -32 -32 -32 -32 -32 -33 -33 -32 -32 -32 -32 -32 -32 -32 -31 -31 -32 -32 -32
-19 -19 -19 -19 -19 -20 -20 -21 -22 -22 -23 -24 -25 -27 -29 -31 -32 -33 -33 -33 -32 -32 -32 -32 -32 -32 -32 -33 -33 -33 -33 -33 -33 -33 -32 -32 -32 -32 -32 -31 -31 -32 -32
-19 -19 -19 -19 -19 -20 -21 -22 -22 -23 -24 -25 -28 -29 -30 -32 -33 -33 -32 -32 -32 -32 -32 -32 -32 -33 -33 -34 -34 -34 -34 -34 -34 -34 -34 -33 -33 -33 -32 -32 -31 -31 -32
-19 -19 -20 -20 -20 -21 -22 -23 -24 -25 -26 -28 -29 -30 -31 -32 -32 -32 -32 -32 -32 -32 -32 -33 -33 -34 -34 -34 -35 -35 -35 -35 -35 -35 -34 -34 -34 -34 -34 -33 -32 -32 -31
-19 -20 -20 -21 -22 -23 -23 -24 -25 -26 -28 -30 -31 -31 -32 -32 -33 -33 -33 -33 -32 -32 -32 -33 -34 -34 -34 -34 -35 -35 -35 -36 -36 -36 -36 -35 -34 -34 -34 -34 -33 -32 -32
-20 -20 -21 -22 -23 -23 -24 -25 -26 -28 -30 -31 -32 -32 -32 -33 -33 -33 -32 -33 -32 -33 -33 -34 -34 -34 -34 -35 -35 -35 -36 -36 -36 -36 -36 -36 -35 -34 -34 -34 -33 -33 -32
-20 -21 -22 -23 -23 -24 -25 -26 -28 -30 -31 -32 -32 -32 -33 -33 -32 -32 -33 -33 -33 -33 -34 -34 -34 -34 -34 -35 -35 -36 -36 -36 -36 -36 -36 -36 -35 -35 -34 -34 -34 -33 -33
-21 -22 -23 -24 -24 -25 -26 -27 -29 -31 -32 -32 -32 -32 -33 -33 -32 -33 -33 -33 -33 -34 -34 -34 -34 -34 -34 -34 -35 -35 -36 -36 -37 -36 -36 -36 -36 -35 -35 -34 -34 -33 -32
-22 -23 -23 -24 -25 -26 -27 -29 -31 -31 -32 -32 -32 -32 -33 -33 -33 -33 -33 -33 -33 -34 -34 -34 -34 -34 -34 -34 -35 -35 -36 -36 -36 -36 -36 -36 -36 -35 -35 -34 -34 -32 -31
-23 -24 -24 -25 -27 -27 -29 -30 -31 -32 -32 -32 -32 -33 -33 -33 -33 -33 -33 -33 -33 -34 -34 -34 -34 -34 -34 -34 -34 -34 -35 -36 -36 -36 -36 -36 -35 -35 -34 -34 -33 -32 -31
-24 -25 -25 -27 -28 -29 -30 -31 -32 -32 -33 -33 -33 -33 -33 -33 -33 -33 -33 -33 -33 -33 -34 -34 -34 -33 -33 -33 -34 -34 -34 -35 -35 -35 -35 -35 -34 -34 -33 -32 -32 -31 -31
-25 -26 -27 -28 -29 -30 -31 -32 -32 -33 -33 -33 -33 -33 -33 -33 -34 -33 -33 -33 -33 -33 -34 -34 -33 -33 -33 -33 -33 -34 -33 -33 -33 -33 -33 -33 -33 -32 -32 -31 -31 -31 -30
-27 -28 -29 -29 -30 -31 -31 -32 -33 -33 -33 -33 -33 -33 -34 -34 -34 -33 -33 -34 -34 -34 -34 -34 -34 -33 -33 -33 -33 -33 -33 -32 -33 -33 -32 -32 -32 -32 -32 -31 -31 -31 -31
-28 -29 -30 -30 -31 -32 -32 -33 -33 -33 -34 -34 -34 -34 -34 -34 -34 -34 -34 -34 -34 -34 -34 -34 -34 -34 -33 -33 -33 -33 -33 -32 -32 -32 -32 -32 -32 -31 -31 -31 -31 -31 -31
-29 -30 -31 -31 -31 -32 -33 -33 -33 -34 -34 -34 -34 -34 -34 -34 -34 -34 -34 -34 -34 -34 -34 -34 -34 -34 -34 -33 -33 -33 -33 -33 -32 -32 -32 -32 -31 -31 -31 -31 -31 -30 -30
-30 -31 -32 -32 -32 -33 -33 -33 -34 -34 -34 -34 -34 -34 -34 -34 -34 -34 -33 -33 -34 -34 -34 -34 -34 -34 -34 -34 -33 -33 -32 -33 -32 -32 -32 -32 -32 -31 -31 -31 -30 -30 -30
-31 -32 -32 -33 -33 -33 -33 -34 -34 -34 -34 -34 -34 -34 -34 -34 -34 -34 -34 -34 -34 -34 -34 -34 -34 -34 -34 -34 -34 -33 -33 -32 -32 -32 -32 -32 -32 -31 -31 -31 -31 -30 -30
-32 -33 -33 -33 -33 -33 -34 -34 -34 -34 -34 -35 -34 -34 -35 -35 -35 -34 -34 -34 -34 -34 -35 -34 -34 -34 -34 -34 -34 -34 -33 -33 -33 -32 -32 -32 -32 -31 -31 -31 -31 -31 -31
-33 -33 -33 -33 -34 -34 -34 -34 -34 -34 -34 -34 -35 -35 -35 -35 -35 -35 -34 -34 -34 -34 -35 -35 -35 -34 -34 -34 -34 -34 -34 -33 -33 -33 -33 -32 -32 -32 -32 -31 -31 -31 -31
-33 -33 -34 -34 -34 -34 -34 -35 -34 -34 -34 -34 -35 -35 -35 -35 -35 -35 -35 -35 -35 -35 -35 -35 -35 -35 -35 -34 -34 -34 -34 -33 -33 -33 -33 -33 -33 -32 -32 -32 -32 -32 -32
-34 -34 -34 -34 -34 -34 -34 -35 -35 -34 -34 -35 -35 -35 -35 -35 -35 -35 -35 -36 -35 -35 -35 -36 -36 -36 -35 -35 -35 -35 -35 -34 -33 -33 -33 -33 -33 -33 -33 -32 -32 -32 -32
-34 -34 -34 -34 -34 -34 -34 -34 -35 -35 -35 -35 -35 -35 -35 -35 -36 -36 -36 -36 -36 -36 -36 -36 -36 -36 -36 -36 -36 -36 -35 -35 -35 -34 -34 -33 -33 -33 -33 -33 -33 -33 -33
-34 -34 -34 -34 -34 -34 -34 -34 -34 -34 -35 -35 -35 -35 -35 -35 -36 -36 -36 -36 -36 -36 -36 -37 -37 -37 -37 -37 -37 -36 -36 -36 -36 -35 -35 -34 -34 -33 -33 -33 -33 -33 -33
-34 -34 -34 -34 -34 -34 -34 -34 -34 -34 -35 -35 -35 -35 -35 -36 -36 -36 -36 -36 -36 -37 -37 -37 -37 -37 -37 -37 -37 -37 -37 -37 -36 -36 -36 -35 -35 -34 -34 -34 -33 -33 -33
-35 -35 -34 -34 -34 -34 -34 -34 -34 -35 -35 -35 -35 -35 -36 -36 -36 -36 -36 -36 -37 -37 -37 -37 -37 -37 -38 -38 -38 -38 -37 -37 -37 -37 -37 -37 -36 -36 -35 -35 -34 -34 -34

GFSGL_500_temp_027.txt.gz
Temp
-18 -18 -19 -19 -20 -20 -20 -19 -19 -19 -20 -20 -20 -21 -22 -22 -23 -25 -26 -28 -30 -31 -31 -31 -31 -31 -32 -32 -32 -32 -32 -32 -32 -32 -32 -32 -32 -32 -32 -32 -32 -32 -32
-19 -19 -19 -20 -20 -20 -20 -20 -20 -20 -20 -21 -21 -22 -23 -24 -25 -27 -28 -30 -31 -32 -32 -32 -32 -32 -32 -32 -32 -32 -33 -33 -33 -34 -34 -34 -34 -34 -34 -33 -33 -32 -32
-19 -19 -20 -20 -20 -20 -20 -20 -20 -21 -21 -22 -23 -23 -24 -25 -27 -29 -30 -31 -32 -32 -32 -32 -32 -32 -32 -32 -32 -33 -33 -34 -34 -34 -34 -34 -34 -34 -34 -34 -34 -34 -33
-20 -20 -20 -20 -20 -20 -20 -21 -21 -21 -22 -23 -23 -24 -25 -27 -29 -30 -31 -32 -32 -32 -32 -32 -32 -32 -32 -32 -33 -33 -34 -34 -34 -34 -34 -34 -35 -35 -35 -35 -35 -35 -34
-20 -20 -20 -20 -21 -21 -21 -21 -22 -22 -23 -23 -24 -25 -28 -29 -30 -31 -32 -32 -32 -33 -33 -33 -33 -32 -32 -33 -33 -33 -34 -34 -34 -34 -34 -35 -35 -36 -36 -36 -36 -35 -35
-20 -20 -21 -21 -21 -21 -21 -22 -22 -23 -23 -24 -26 -28 -29 -30 -31 -32 -33 -33 -33 -33 -33 -33 -33 -32 -33 -33 -33 -34 -33 -33 -34 -34 -35 -35 -36 -36 -36 -36 -36 -36 -36
-21 -21 -21 -21 -22 -22 -22 -23 -23 -23 -24 -26 -28 -29 -30 -31 -32 -33 -33 -33 -33 -33 -33 -33 -33 -33 -33 -33 -33 -33 -33 -33 -34 -34 -35 -36 -36 -37 -37 -37 -37 -36 -36
-21 -21 -22 -22 -22 -23 -23 -23 -24 -24 -26 -28 -29 -30 -31 -32 -33 -33 -33 -33 -33 -33 -33 -33 -33 -33 -33 -33 -33 -33 -33 -33 -34 -34 -35 -36 -36 -37 -37 -37 -37 -37 -37
-21 -22 -22 -22 -23 -23 -23 -24 -24 -26 -28 -29 -30 -31 -32 -33 -33 -33 -34 -34 -34 -34 -33 -33 -33 -33 -33 -33 -33 -33 -33 -33 -34 -34 -35 -35 -36 -37 -37 -37 -37 -36 -36
-22 -22 -22 -23 -23 -24 -24 -24 -26 -28 -29 -30 -31 -32 -32 -33 -33 -34 -34 -34 -34 -34 -33 -33 -33 -33 -33 -33 -33 -33 -33 -33 -33 -34 -34 -35 -36 -36 -37 -37 -37 -36 -36
-22 -23 -23 -23 -24 -24 -24 -26 -28 -29 -30 -31 -31 -32 -33 -33 -34 -34 -34 -34 -34 -34 -33 -33 -33 -33 -33 -33 -33 -33 -33 -33 -33 -33 -33 -34 -35 -35 -36 -36 -36 -36 -35
-23 -23 -23 -24 -24 -25 -26 -28 -29 -30 -31 -32 -32 -33 -33 -34 -34 -34 -34 -34 -34 -33 -33 -33 -33 -34 -33 -34 -34 -34 -33 -33 -33 -33 -33 -33 -34 -35 -35 -35 -35 -35 -35
-23 -23 -24 -24 -25 -26 -27 -29 -29 -31 -32 -32 -33 -33 -34 -34 -34 -34 -34 -34 -34 -33 -33 -33 -33 -34 -34 -34 -34 -34 -34 -33 -33 -33 -33 -33 -33 -34 -34 -34 -35 -35 -34
-23 -24 -24 -25 -26 -27 -29 -29 -30 -32 -32 -33 -33 -34 -34 -34 -34 -34 -34 -34 -34 -34 -33 -33 -33 -34 -34 -34 -34 -34 -34 -34 -33 -33 -34 -34 -34 -34 -34 -34 -34 -34 -33
-24 -24 -25 -26 -27 -28 -29 -30 -31 -32 -33 -33 -34 -34 -34 -34 -34 -35 -35 -35 -34 -34 -34 -34 -34 -34 -34 -34 -34 -34 -34 -34 -33 -33 -33 -34 -34 -34 -34 -34 -34 -33 -33
-24 -25 -26 -27 -28 -29 -30 -31 -32 -33 -33 -34 -34 -34 -34 -34 -34 -35 -35 -35 -35 -34 -34 -34 -34 -34 -35 -34 -34 -34 -34 -34 -34 -33 -33 -33 -33 -34 -34 -33 -33 -33 -33
-25 -26 -27 -28 -29 -30 -31 -32 -33 -33 -34 -34 -34 -34 -35 -34 -34 -35 -35 -35 -35 -35 -35 -35 -35 -35 -35 -35 -34 -34 -34 -34 -34 -34 -33 -33 -33 -33 -33 -33 -33 -33 -33
-27 -28 -28 -29 -30 -31 -32 -32 -33 -33 -34 -34 -34 -34 -35 -34 -34 -35 -35 -35 -35 -35 -35 -35 -35 -35 -35 -35 -35 -35 -34 -34 -34 -34 -34 -33 -33 -33 -33 -33 -33 -32 -32
-28 -29 -30 -30 -31 -32 -32 -33 -33 -34 -34 -34 -34 -35 -35 -35 -35 -35 -35 -35 -35 -35 -36 -36 -36 -36 -36 -35 -35 -35 -35 -35 -34 -34 -34 -34 -33 -33 -33 -33 -33 -32 -32
-30 -30 -31 -31 -32 -32 -33 -33 -34 -34 -34 -34 -34 -34 -35 -35 -35 -35 -35 -35 -35 -36 -36 -36 -36 -36 -36 -36 -36 -36 -36 -35 -35 -35 -34 -34 -34 -33 -33 -33 -33 -32 -32
-30 -31 -31 -31 -32 -33 -33 -34 -34 -34 -34 -34 -34 -34 -35 -35 -35 -35 -35 -35 -35 -36 -36 -36 -36 -36 -36 -36 -36 -36 -36 -36 -36 -35 -35 -34 -34 -34 -34 -33 -33 -32 -32
-31 -31 -32 -32 -33 -33 -34 -34 -34 -34 -34 -34 -34 -34 -34 -35 -35 -35 -35 -35 -36 -36 -36 -36 -36 -37 -37 -37 -37 -37 -37 -37 -36 -36 -36 -35 -35 -34 -34 -34 -33 -33 -33
-31 -32 -32 -32 -34 -34 -34 -35 -35 -34 -35 -35 -34 -34 -34 -35 -35 -35 -35 -36 -36 -36 -36 -36 -37 -37 -37 -37 -37 -37 -37 -37 -37 -37 -36 -36 -36 -35 -34 -34 -34 -34 -34
-31 -32 -32 -33 -34 -34 -34 -34 -35 -35 -35 -35 -35 -35 -35 -35 -35 -35 -35 -36 -36 -36 -36 -37 -37 -37 -37 -37 -37 -37 -37 -37 -37 -37 -37 -37 -37 -36 -36 -35 -34 -34 -34
-32 -32 -32 -32 -34 -34 -35 -35 -35 -35 -35 -35 -35 -35 -35 -35 -35 -35 -36 -36 -36 -37 -37 -37 -37 -37 -37 -37 -37 -37 -37 -37 -38 -38 -38 -38 -37 -37 -37 -36 -36 -35 -34
-32 -32 -32 -32 -34 -34 -35 -35 -35 -35 -35 -35 -35 -35 -35 -35 -35 -35 -36 -36 -37 -37 -37 -37 -37 -37 -37 -37 -37 -37 -38 -38 -38 -38 -38 -38 -38 -38 -38 -37 -37 -36 -36

GFSGL_500_temp_030.txt.gz
Temp
-17 -17 -18 -18 -19 -19 -20 -20 -20 -20 -20 -20 -21 -21 -21 -22 -22 -23 -23 -24 -26 -28 -30 -31 -32 -32 -32 -32 -32 -32 -32 -32 -31 -32 -32 -33 -33 -33 -33 -33 -33 -33 -32
-17 -18 -19 -19 -20 -20 -20 -20 -20 -20 -21 -21 -21 -21 -22 -22 -23 -23 -24 -27 -29 -30 -31 -32 -32 -32 -32 -32 -32 -32 -32 -32 -32 -33 -33 -33 -33 -33 -33 -34 -34 -34 -34
-18 -19 -19 -20 -20 -20 -20 -20 -21 -21 -21 -21 -22 -22 -23 -23 -24 -25 -27 -29 -30 -31 -32 -32 -32 -32 -32 -32 -32 -32 -32 -32 -33 -33 -33 -33 -33 -33 -34 -34 -34 -34 -34
-19 -19 -20 -20 -20 -20 -20 -21 -21 -21 -22 -22 -22 -23 -23 -24 -25 -27 -29 -30 -31 -32 -33 -33 -33 -33 -32 -33 -32 -32 -33 -33 -33 -33 -33 -33 -33 -34 -34 -34 -34 -34 -34
-19 -19 -20 -20 -20 -21 -21 -21 -21 -22 -22 -23 -23 -23 -24 -25 -27 -29 -30 -31 -32 -33 -33 -33 -33 -33 -33 -33 -32 -33 -33 -33 -33 -33 -33 -33 -34 -34 -35 -35 -35 -35 -35
-19 -20 -20 -21 -21 -21 -21 -22 -22 -22 -23 -23 -23 -24 -26 -27 -29 -30 -31 -32 -33 -33 -33 -33 -33 -33 -33 -32 -33 -33 -33 -33 -33 -33 -33 -33 -34 -34 -35 -36 -36 -36 -36
-20 -21 -21 -21 -21 -22 -22 -22 -22 -23 -23 -23 -24 -26 -27 -28 -30 -31 -32 -33 -33 -33 -34 -33 -33 -33 -33 -32 -33 -33 -33 -33 -33 -33 -33 -33 -34 -34 -35 -36 -37 -37 -37
-20 -21 -21 -21 -22 -22 -22 -22 -23 -24 -24 -24 -25 -28 -28 -30 -31 -32 -33 -33 -34 -34 -34 -33 -33 -33 -32 -33 -33 -33 -33 -33 -33 -33 -33 -33 -34 -35 -36 -37 -37 -37 -37
-21 -21 -21 -22 -22 -22 -23 -23 -23 -24 -24 -25 -27 -28 -30 -31 -32 -33 -33 -34 -34 -34 -34 -33 -33 -33 -32 -33 -33 -33 -33 -33 -33 -33 -33 -33 -34 -35 -36 -36 -37 -37 -37
-22 -21 -22 -22 -22 -23 -23 -23 -24 -24 -25 -27 -28 -29 -31 -32 -33 -33 -33 -34 -34 -34 -34 -33 -33 -33 -33 -33 -33 -33 -33 -33 -33 -33 -33 -33 -34 -35 -35 -36 -37 -37 -37
-22 -22 -22 -23 -23 -23 -24 -24 -24 -25 -26 -27 -29 -30 -32 -33 -33 -33 -34 -34 -34 -34 -34 -34 -33 -33 -33 -33 -33 -33 -33 -34 -33 -33 -33 -33 -34 -34 -35 -35 -36 -36 -36
-22 -22 -22 -23 -24 -24 -24 -25 -25 -26 -27 -28 -30 -31 -33 -33 -33 -34 -34 -34 -34 -34 -34 -34 -33 -33 -33 -33 -34 -34 -34 -34 -34 -33 -33 -34 -34 -34 -35 -35 -35 -35 -35
-22 -22 -23 -24 -24 -24 -25 -26 -26 -27 -28 -29 -31 -32 -33 -33 -34 -34 -34 -34 -34 -34 -34 -34 -33 -33 -33 -34 -34 -34 -34 -34 -34 -34 -33 -34 -34 -34 -35 -35 -35 -35 -35
-22 -23 -24 -24 -25 -25 -26 -26 -27 -28 -29 -30 -32 -33 -33 -34 -34 -34 -34 -34 -34 -34 -34 -34 -34 -34 -34 -34 -34 -34 -34 -34 -34 -34 -34 -34 -34 -34 -35 -35 -35 -35 -35
-23 -24 -24 -25 -26 -26 -26 -27 -28 -29 -30 -31 -32 -33 -33 -34 -34 -34 -34 -34 -35 -35 -34 -34 -34 -34 -34 -34 -34 -34 -34 -34 -34 -34 -34 -34 -34 -34 -34 -35 -35 -35 -35
-24 -25 -25 -26 -26 -26 -27 -28 -30 -30 -31 -32 -33 -33 -34 -34 -34 -34 -34 -35 -35 -35 -35 -35 -35 -35 -35 -34 -34 -34 -34 -34 -34 -34 -34 -34 -34 -34 -34 -34 -34 -34 -34
-25 -26 -26 -26 -27 -28 -29 -30 -30 -31 -32 -32 -33 -34 -34 -34 -35 -34 -35 -35 -35 -35 -35 -35 -35 -35 -35 -35 -35 -35 -35 -35 -34 -34 -34 -34 -34 -34 -34 -34 -34 -34 -34
-26 -27 -28 -28 -29 -30 -30 -31 -31 -32 -32 -33 -33 -34 -34 -34 -35 -35 -35 -35 -35 -35 -35 -35 -35 -35 -35 -35 -35 -35 -35 -35 -35 -34 -34 -34 -34 -33 -33 -33 -34 -34 -34
-28 -29 -29 -29 -30 -31 -31 -31 -32 -33 -33 -34 -34 -34 -34 -34 -35 -35 -35 -35 -35 -35 -35 -35 -35 -36 -36 -36 -36 -36 -36 -36 -35 -35 -34 -34 -34 -34 -33 -33 -33 -33 -33
-29 -29 -30 -30 -31 -31 -32 -32 -33 -33 -34 -34 -34 -34 -34 -34 -34 -35 -35 -35 -35 -35 -35 -35 -36 -36 -36 -36 -36 -36 -36 -36 -36 -36 -35 -35 -34 -34 -34 -33 -33 -33 -33
-30 -31 -31 -31 -31 -32 -32 -32 -33 -34 -34 -34 -34 -34 -34 -34 -34 -34 -35 -35 -35 -35 -35 -35 -36 -36 -36 -36 -36 -36 -37 -37 -37 -36 -36 -35 -35 -34 -34 -34 -33 -33 -33
-31 -31 -31 -32 -32 -32 -33 -33 -34 -34 -34 -35 -35 -35 -34 -34 -34 -34 -35 -35 -35 -35 -35 -36 -36 -36 -36 -36 -37 -37 -37 -37 -37 -37 -37 -36 -36 -35 -35 -34 -34 -34 -33
-32 -32 -32 -32 -32 -32 -33 -33 -34 -34 -34 -35 -35 -35 -35 -35 -35 -35 -35 -35 -35 -35 -36 -36 -36 -36 -36 -37 -37 -37 -37 -37 -37 -37 -37 -37 -37 -36 -36 -35 -35 -34 -34
-32 -32 -32 -32 -32 -32 -32 -33 -34 -34 -35 -35 -35 -35 -35 -35 -35 -35 -35 -35 -35 -36 -36 -36 -36 -37 -37 -37 -37 -37 -37 -37 -37 -37 -37 -37 -37 -37 -37 -36 -36 -35 -34
-32 -32 -32 -32 -32 -32 -32 -33 -34 -34 -35 -35 -35 -35 -35 -35 -35 -35 -35 -35 -35 -36 -36 -37 -37 -37 -37 -37 -37 -37 -37 -37 -37 -37 -37 -37 -38 -38 -38 -37 -37 -36 -36
-33 -33 -33 -33 -33 -33 -33 -33 -34 -35 -35 -35 -35 -35 -35 -35 -35 -35 -35 -35 -35 -36 -36 -37 -37 -37 -37 -37 -37 -37 -37 -37 -37 -37 -38 -38 -38 -38 -38 -38 -38 -37 -37

GFSGL_500_temp_033.txt.gz
Temp
-17 -17 -17 -17 -18 -18 -18 -19 -19 -20 -20 -20 -21 -21 -21 -21 -22 -22 -22 -23 -23 -24 -25 -27 -29 -30 -32 -32 -32 -32 -32 -32 -31 -31 -32 -32 -31 -32 -33 -33 -33 -33 -33
-17 -17 -18 -18 -19 -19 -19 -19 -20 -20 -20 -21 -21 -21 -22 -22 -22 -23 -23 -23 -24 -26 -27 -29 -30 -32 -32 -33 -33 -33 -32 -32 -32 -31 -32 -32 -33 -33 -33 -33 -33 -33 -33
-18 -18 -18 -18 -19 -19 -19 -20 -20 -21 -21 -21 -21 -22 -22 -23 -23 -23 -23 -24 -25 -28 -29 -31 -32 -33 -33 -33 -33 -33 -33 -32 -32 -32 -32 -33 -33 -33 -33 -33 -33 -33 -33
-18 -18 -19 -19 -19 -20 -20 -20 -21 -21 -21 -21 -22 -22 -23 -23 -23 -24 -24 -25 -27 -29 -31 -32 -33 -33 -33 -33 -33 -33 -32 -32 -32 -32 -33 -33 -33 -33 -33 -33 -32 -33 -33
-18 -19 -19 -19 -20 -20 -20 -21 -21 -21 -21 -22 -22 -23 -23 -23 -24 -24 -26 -28 -29 -31 -32 -32 -33 -33 -33 -33 -33 -33 -32 -32 -33 -33 -33 -33 -33 -33 -32 -32 -32 -33 -34
-19 -19 -20 -20 -20 -20 -20 -21 -21 -21 -22 -22 -23 -23 -24 -24 -25 -26 -27 -29 -30 -32 -32 -33 -33 -33 -33 -33 -33 -33 -32 -32 -33 -33 -33 -33 -33 -33 -32 -33 -33 -34 -35
-19 -20 -20 -20 -20 -21 -21 -21 -21 -22 -22 -23 -23 -24 -25 -24 -26 -27 -28 -30 -32 -32 -33 -33 -33 -33 -33 -33 -32 -32 -32 -33 -33 -33 -33 -33 -33 -32 -33 -33 -34 -35 -36
-20 -20 -20 -20 -21 -21 -22 -22 -22 -22 -23 -24 -24 -25 -25 -25 -28 -28 -29 -32 -32 -33 -33 -33 -34 -33 -33 -33 -32 -33 -33 -33 -33 -34 -33 -33 -33 -33 -33 -33 -35 -36 -37
-20 -20 -21 -21 -22 -21 -22 -22 -22 -23 -24 -24 -25 -25 -26 -27 -28 -29 -31 -32 -33 -33 -34 -34 -34 -33 -33 -33 -33 -33 -33 -33 -34 -34 -33 -33 -33 -33 -33 -34 -35 -36 -37
-20 -20 -21 -21 -21 -22 -22 -23 -23 -24 -24 -25 -26 -26 -27 -28 -29 -31 -32 -33 -33 -34 -34 -34 -34 -33 -33 -33 -33 -33 -34 -34 -34 -34 -33 -33 -33 -34 -34 -34 -35 -36 -36
-20 -21 -21 -21 -22 -22 -22 -23 -24 -24 -24 -26 -26 -26 -27 -29 -30 -32 -33 -33 -34 -34 -34 -34 -34 -34 -33 -33 -33 -33 -33 -34 -34 -34 -34 -33 -34 -34 -34 -34 -35 -35 -36
-21 -21 -21 -22 -22 -22 -23 -24 -24 -25 -26 -26 -26 -28 -29 -30 -31 -33 -33 -34 -34 -34 -34 -34 -34 -34 -34 -33 -33 -33 -33 -34 -34 -34 -34 -34 -34 -34 -34 -35 -35 -35 -36
-22 -22 -22 -22 -23 -24 -24 -25 -26 -26 -27 -28 -28 -29 -30 -31 -32 -33 -33 -34 -34 -34 -34 -34 -34 -34 -34 -34 -34 -34 -34 -34 -34 -34 -34 -34 -34 -34 -34 -35 -35 -35 -36
-22 -22 -22 -23 -24 -25 -25 -26 -27 -28 -28 -28 -29 -30 -31 -32 -33 -33 -34 -34 -34 -34 -35 -35 -35 -34 -34 -34 -34 -34 -34 -34 -34 -34 -34 -34 -34 -34 -34 -35 -35 -35 -36
-22 -23 -24 -25 -25 -26 -26 -28 -29 -29 -29 -30 -30 -31 -32 -33 -33 -34 -34 -34 -34 -34 -35 -35 -35 -35 -35 -35 -34 -34 -34 -34 -34 -34 -34 -34 -34 -34 -34 -34 -35 -35 -35
-24 -25 -25 -25 -26 -27 -28 -29 -29 -30 -30 -31 -31 -32 -33 -33 -33 -34 -34 -34 -35 -34 -35 -35 -35 -35 -35 -35 -35 -35 -35 -35 -35 -35 -34 -34 -34 -34 -34 -34 -34 -34 -34
-25 -25 -25 -26 -27 -29 -29 -30 -30 -31 -31 -31 -32 -33 -33 -33 -34 -34 -34 -35 -35 -35 -35 -35 -35 -35 -35 -35 -35 -35 -35 -35 -35 -35 -35 -34 -34 -34 -34 -34 -34 -34 -34
-25 -26 -28 -28 -29 -30 -30 -31 -31 -31 -31 -32 -32 -33 -34 -34 -34 -34 -34 -35 -35 -35 -35 -35 -35 -35 -35 -35 -36 -36 -36 -36 -36 -35 -35 -35 -34 -34 -34 -34 -34 -34 -34
-28 -28 -29 -30 -30 -31 -31 -31 -32 -32 -32 -32 -33 -34 -34 -34 -34 -34 -35 -35 -35 -35 -35 -35 -35 -35 -35 -36 -36 -36 -36 -36 -36 -36 -36 -35 -35 -35 -34 -34 -34 -34 -34
-29 -29 -29 -30 -31 -31 -32 -32 -32 -32 -32 -33 -33 -34 -34 -34 -35 -35 -34 -35 -35 -35 -35 -35 -35 -35 -36 -36 -36 -36 -36 -36 -36 -37 -36 -36 -36 -35 -35 -34 -34 -34 -34
-30 -31 -31 -31 -32 -32 -32 -32 -32 -32 -33 -33 -34 -34 -35 -35 -35 -35 -35 -35 -35 -35 -35 -35 -35 -35 -36 -36 -36 -36 -36 -37 -37 -37 -37 -37 -37 -36 -35 -35 -34 -34 -34
-31 -32 -32 -32 -32 -32 -32 -32 -33 -33 -33 -33 -34 -34 -35 -35 -35 -35 -35 -35 -35 -35 -35 -35 -35 -36 -36 -36 -36 -36 -37 -37 -37 -37 -37 -37 -37 -37 -36 -36 -35 -35 -34
-32 -32 -33 -33 -33 -33 -33 -33 -33 -33 -33 -33 -34 -35 -35 -35 -35 -35 -35 -35 -35 -35 -35 -35 -36 -36 -36 -36 -36 -37 -37 -37 -37 -37 -37 -37 -37 -37 -37 -37 -36 -36 -35
-33 -33 -33 -33 -33 -33 -33 -33 -33 -33 -33 -33 -34 -35 -35 -35 -35 -35 -35 -35 -35 -35 -35 -36 -36 -36 -36 -37 -37 -37 -37 -37 -37 -37 -37 -37 -37 -37 -37 -37 -37 -37 -36
-32 -33 -33 -33 -33 -33 -33 -33 -34 -34 -33 -33 -34 -35 -35 -36 -36 -36 -36 -36 -35 -35 -35 -36 -36 -36 -37 -37 -37 -37 -37 -37 -37 -37 -37 -37 -37 -37 -37 -37 -38 -38 -37
-33 -33 -33 -33 -33 -33 -34 -34 -34 -34 -34 -34 -35 -35 -36 -36 -36 -36 -36 -36 -36 -36 -36 -36 -36 -36 -36 -37 -37 -37 -38 -38 -37 -37 -37 -37 -37 -37 -38 -38 -38 -38 -38

GFSGL_500_temp_036.txt.gz
Temp
-16 -17 -17 -17 -17 -18 -18 -18 -19 -19 -20 -20 -20 -20 -20 -21 -21 -21 -22 -22 -23 -23 -24 -24 -24 -26 -28 -30 -31 -32 -33 -33 -32 -32 -32 -32 -32 -31 -31 -32 -32 -32 -32
-17 -17 -18 -18 -18 -18 -18 -19 -20 -20 -20 -20 -20 -20 -21 -21 -21 -22 -22 -23 -24 -24 -24 -24 -26 -28 -30 -31 -32 -33 -33 -33 -33 -32 -32 -32 -31 -32 -32 -32 -32 -33 -33
-17 -18 -18 -18 -18 -20 -19 -20 -20 -20 -20 -20 -20 -21 -21 -22 -22 -22 -23 -23 -24 -24 -25 -25 -27 -30 -31 -32 -33 -33 -33 -33 -33 -32 -32 -32 -32 -32 -32 -33 -33 -32 -32
-18 -18 -19 -19 -19 -19 -19 -20 -20 -20 -20 -21 -21 -21 -22 -22 -22 -23 -24 -24 -24 -25 -26 -27 -29 -31 -32 -33 -33 -33 -33 -32 -32 -32 -32 -32 -32 -33 -33 -33 -32 -32 -32
-19 -19 -19 -19 -19 -20 -20 -20 -21 -21 -21 -21 -22 -22 -22 -22 -23 -24 -24 -24 -24 -25 -27 -30 -31 -32 -32 -33 -33 -33 -33 -32 -32 -32 -32 -32 -33 -33 -33 -33 -32 -32 -32
-19 -19 -19 -20 -20 -20 -21 -20 -21 -21 -21 -22 -22 -22 -22 -23 -24 -24 -24 -25 -26 -28 -29 -31 -32 -32 -33 -33 -33 -33 -33 -32 -32 -32 -32 -33 -33 -33 -33 -33 -32 -32 -32
-19 -19 -20 -20 -20 -20 -20 -21 -21 -21 -21 -22 -22 -23 -23 -24 -25 -25 -25 -26 -27 -29 -30 -32 -32 -33 -33 -33 -33 -33 -32 -32 -32 -32 -33 -33 -34 -34 -33 -33 -33 -32 -33
-19 -20 -20 -20 -21 -21 -21 -21 -22 -22 -22 -22 -23 -24 -24 -24 -26 -26 -27 -27 -29 -30 -31 -32 -33 -33 -33 -33 -33 -33 -32 -32 -33 -33 -33 -34 -34 -33 -33 -33 -33 -33 -34
-19 -20 -20 -20 -21 -21 -22 -22 -22 -22 -22 -23 -25 -25 -25 -25 -26 -27 -28 -29 -30 -31 -32 -33 -33 -34 -34 -34 -33 -33 -33 -33 -33 -34 -34 -34 -34 -33 -33 -34 -33 -34 -35
-20 -20 -20 -20 -21 -21 -22 -22 -22 -22 -24 -25 -25 -25 -26 -27 -27 -29 -29 -30 -31 -32 -33 -33 -34 -34 -34 -34 -34 -33 -33 -33 -33 -34 -34 -34 -34 -34 -34 -34 -34 -34 -35
-20 -21 -21 -21 -21 -21 -21 -23 -23 -24 -25 -25 -25 -26 -28 -28 -29 -30 -30 -31 -32 -32 -33 -34 -34 -34 -34 -34 -34 -33 -33 -33 -34 -34 -34 -34 -34 -34 -34 -34 -35 -35 -35
-21 -21 -22 -22 -22 -22 -23 -25 -25 -25 -25 -25 -26 -28 -29 -30 -30 -30 -31 -32 -32 -33 -34 -34 -34 -34 -34 -34 -34 -34 -34 -34 -34 -34 -34 -34 -34 -34 -34 -34 -35 -35 -35
-22 -22 -23 -22 -23 -24 -25 -25 -25 -25 -26 -28 -29 -29 -30 -30 -31 -31 -32 -33 -33 -33 -34 -34 -35 -35 -35 -35 -34 -34 -34 -34 -34 -34 -34 -34 -34 -34 -34 -34 -35 -35 -35
-23 -23 -23 -23 -24 -25 -25 -25 -26 -28 -29 -29 -29 -30 -30 -31 -31 -31 -32 -33 -33 -34 -34 -35 -35 -35 -35 -35 -35 -35 -35 -35 -35 -35 -34 -34 -34 -34 -34 -34 -34 -35 -35
-24 -24 -24 -24 -25 -25 -26 -28 -29 -29 -30 -30 -31 -31 -31 -32 -32 -32 -33 -33 -34 -34 -35 -35 -35 -35 -35 -35 -35 -35 -35 -35 -35 -35 -35 -35 -34 -34 -34 -34 -34 -35 -35
-25 -25 -25 -25 -26 -28 -28 -29 -29 -30 -31 -31 -31 -32 -32 -32 -33 -33 -33 -34 -34 -34 -35 -35 -35 -35 -35 -35 -35 -35 -36 -36 -36 -35 -35 -35 -35 -35 -34 -34 -34 -34 -35
-26 -26 -27 -28 -29 -29 -29 -29 -30 -31 -31 -32 -32 -32 -33 -33 -33 -34 -34 -34 -34 -34 -35 -35 -35 -35 -35 -35 -35 -35 -36 -36 -36 -36 -36 -35 -35 -35 -35 -34 -34 -34 -34
-27 -28 -29 -29 -29 -29 -30 -30 -31 -32 -31 -32 -32 -32 -33 -33 -33 -34 -34 -34 -34 -34 -35 -35 -35 -35 -35 -35 -35 -35 -36 -36 -36 -36 -36 -36 -36 -36 -35 -35 -34 -35 -34
-29 -29 -30 -30 -30 -30 -31 -32 -32 -32 -32 -32 -33 -33 -33 -33 -34 -34 -35 -35 -35 -35 -35 -35 -35 -35 -35 -35 -35 -36 -36 -36 -36 -36 -36 -37 -36 -36 -36 -35 -35 -35 -35
-30 -30 -30 -30 -30 -31 -32 -32 -32 -33 -33 -33 -33 -33 -33 -33 -34 -35 -35 -35 -35 -35 -35 -35 -35 -35 -35 -35 -36 -36 -36 -36 -36 -37 -37 -37 -37 -37 -36 -36 -35 -35 -35
-30 -30 -30 -30 -31 -32 -32 -33 -33 -33 -33 -33 -34 -34 -33 -33 -34 -35 -35 -35 -35 -35 -35 -35 -35 -35 -35 -35 -36 -36 -36 -36 -36 -37 -37 -37 -37 -37 -37 -37 -36 -36 -35
-30 -30 -30 -31 -32 -32 -33 -33 -33 -33 -33 -33 -34 -34 -34 -34 -34 -35 -35 -35 -35 -35 -35 -35 -35 -35 -35 -36 -36 -36 -36 -36 -37 -37 -37 -37 -37 -37 -37 -37 -37 -36 -36
-30 -31 -31 -32 -32 -33 -33 -33 -33 -33 -34 -34 -34 -34 -34 -34 -34 -35 -36 -36 -36 -35 -36 -35 -35 -35 -35 -36 -36 -36 -36 -37 -37 -37 -37 -37 -37 -37 -37 -37 -37 -37 -37
-31 -31 -32 -32 -33 -33 -33 -33 -33 -34 -34 -34 -34 -34 -34 -34 -34 -35 -36 -36 -36 -36 -36 -36 -36 -36 -36 -36 -36 -36 -37 -37 -37 -37 -37 -37 -37 -37 -37 -37 -37 -37 -37
-32 -32 -32 -32 -33 -33 -33 -33 -34 -34 -34 -34 -34 -34 -35 -35 -35 -36 -36 -36 -36 -36 -36 -36 -36 -36 -36 -36 -36 -36 -37 -37 -37 -38 -38 -37 -37 -37 -37 -37 -37 -37 -38
-32 -32 -32 -33 -34 -34 -34 -34 -34 -35 -35 -35 -35 -35 -35 -35 -36 -36 -37 -36 -36 -36 -36 -36 -36 -36 -36 -36 -36 -36 -37 -37 -38 -38 -38 -38 -38 -38 -38 -38 -38 -38 -38

GFSGL_500_temp_039.txt.gz
Temp
-16 -17 -17 -18 -18 -19 -19 -19 -19 -19 -20 -19 -20 -20 -20 -20 -21 -20 -21 -21 -22 -22 -23 -23 -24 -24 -24 -24 -26 -28 -30 -32 -32 -32 -32 -32 -32 -32 -32 -32 -31 -31 -31
-16 -17 -18 -18 -19 -19 -19 -19 -19 -19 -20 -20 -20 -20 -21 -21 -21 -21 -22 -22 -23 -23 -23 -24 -24 -25 -25 -27 -28 -31 -31 -32 -32 -31 -32 -33 -32 -32 -32 -31 -32 -32 -32
-17 -18 -18 -19 -18 -19 -19 -19 -19 -19 -19 -20 -21 -21 -21 -21 -21 -22 -22 -23 -23 -24 -24 -24 -25 -25 -26 -28 -31 -32 -32 -32 -32 -32 -32 -32 -32 -32 -32 -32 -32 -32 -33
-18 -18 -19 -19 -19 -19 -19 -19 -19 -20 -20 -20 -21 -21 -21 -21 -22 -22 -23 -23 -24 -25 -24 -25 -26 -26 -28 -30 -31 -32 -33 -32 -32 -32 -32 -32 -32 -32 -32 -32 -32 -33 -33
-19 -19 -19 -19 -19 -19 -20 -20 -20 -21 -20 -21 -21 -21 -22 -22 -23 -23 -23 -24 -25 -24 -25 -26 -26 -28 -30 -31 -32 -33 -33 -33 -32 -32 -32 -32 -32 -33 -33 -33 -33 -33 -33
-19 -19 -19 -19 -20 -20 -20 -20 -20 -21 -21 -21 -21 -22 -22 -23 -24 -24 -25 -25 -25 -25 -26 -27 -28 -30 -31 -32 -33 -33 -33 -32 -32 -32 -32 -32 -33 -33 -33 -33 -33 -33 -33
-19 -19 -19 -20 -20 -20 -21 -21 -21 -21 -21 -22 -22 -22 -23 -24 -25 -25 -25 -26 -27 -27 -28 -29 -30 -31 -32 -33 -33 -33 -33 -32 -32 -31 -32 -32 -33 -33 -33 -34 -33 -33 -33
-19 -20 -20 -20 -21 -21 -21 -21 -21 -21 -22 -22 -22 -23 -24 -25 -25 -25 -26 -28 -28 -28 -29 -30 -31 -32 -33 -33 -34 -34 -34 -33 -33 -32 -32 -33 -33 -33 -34 -34 -33 -33 -34
-20 -20 -21 -21 -21 -21 -22 -22 -22 -22 -22 -23 -24 -25 -25 -25 -25 -27 -28 -28 -29 -30 -31 -31 -32 -33 -33 -34 -34 -34 -34 -34 -33 -33 -33 -33 -33 -34 -34 -34 -33 -33 -34
-20 -20 -20 -21 -21 -22 -23 -22 -22 -23 -24 -25 -25 -26 -25 -26 -28 -29 -29 -29 -30 -31 -31 -32 -33 -34 -34 -34 -34 -34 -34 -34 -33 -33 -33 -33 -34 -34 -34 -34 -34 -34 -34
-21 -21 -21 -22 -22 -23 -23 -24 -24 -24 -24 -26 -26 -26 -28 -29 -30 -30 -31 -31 -31 -31 -32 -33 -33 -34 -34 -35 -35 -35 -34 -34 -34 -34 -33 -34 -34 -34 -34 -34 -34 -34 -35
-21 -21 -22 -23 -23 -24 -25 -25 -25 -25 -26 -27 -29 -29 -29 -30 -30 -31 -31 -31 -32 -32 -33 -33 -34 -34 -35 -35 -35 -35 -35 -34 -34 -34 -34 -34 -34 -34 -34 -34 -34 -34 -35
-21 -22 -22 -23 -24 -25 -26 -26 -26 -27 -29 -29 -29 -30 -30 -31 -31 -32 -32 -32 -32 -33 -33 -34 -34 -34 -35 -35 -35 -35 -35 -35 -35 -35 -35 -34 -34 -35 -34 -34 -34 -34 -35
-22 -23 -24 -25 -26 -27 -27 -28 -28 -29 -29 -30 -30 -31 -31 -32 -32 -32 -32 -32 -33 -34 -34 -34 -34 -35 -35 -35 -35 -35 -35 -35 -36 -35 -35 -35 -35 -35 -35 -35 -34 -34 -35
-23 -24 -25 -26 -27 -28 -29 -29 -29 -30 -30 -30 -30 -32 -32 -32 -32 -32 -32 -33 -33 -34 -34 -34 -35 -35 -35 -35 -35 -35 -35 -35 -36 -36 -36 -36 -35 -35 -35 -35 -35 -34 -35
-24 -24 -26 -27 -28 -29 -29 -30 -30 -30 -30 -30 -31 -32 -33 -33 -33 -33 -33 -33 -33 -34 -34 -35 -35 -35 -35 -35 -35 -35 -35 -36 -36 -36 -36 -36 -36 -36 -35 -35 -35 -35 -35
-25 -26 -28 -29 -30 -30 -30 -30 -30 -30 -31 -32 -32 -33 -33 -33 -33 -33 -33 -33 -34 -34 -34 -34 -35 -35 -35 -35 -35 -35 -36 -36 -36 -36 -36 -36 -36 -36 -36 -36 -35 -35 -35
-26 -28 -29 -30 -30 -30 -30 -30 -30 -31 -31 -32 -33 -33 -33 -33 -34 -34 -34 -34 -34 -35 -35 -35 -35 -35 -35 -35 -35 -35 -36 -36 -36 -36 -36 -37 -37 -37 -37 -36 -36 -35 -35
-29 -30 -30 -30 -30 -30 -30 -30 -31 -31 -32 -32 -33 -33 -34 -33 -34 -34 -34 -34 -34 -35 -35 -35 -35 -35 -35 -35 -35 -35 -36 -36 -36 -36 -36 -37 -37 -37 -37 -37 -36 -36 -35
-30 -30 -30 -30 -30 -31 -30 -31 -31 -32 -33 -33 -33 -34 -34 -34 -34 -34 -34 -34 -34 -35 -35 -35 -35 -35 -35 -35 -35 -35 -36 -36 -36 -36 -36 -37 -37 -37 -37 -37 -37 -37 -36
-30 -30 -30 -30 -31 -30 -31 -31 -32 -32 -33 -33 -33 -34 -34 -34 -34 -34 -34 -34 -34 -35 -36 -36 -36 -35 -35 -35 -36 -36 -36 -36 -36 -36 -37 -37 -37 -37 -37 -37 -37 -37 -37
-30 -30 -30 -31 -30 -31 -31 -32 -32 -32 -33 -33 -33 -34 -34 -34 -34 -34 -34 -34 -34 -36 -36 -36 -36 -36 -36 -36 -36 -36 -36 -36 -36 -36 -37 -37 -37 -37 -37 -37 -37 -37 -37
-31 -31 -31 -31 -31 -32 -32 -32 -33 -33 -33 -34 -34 -34 -34 -34 -34 -35 -34 -34 -35 -36 -36 -36 -36 -36 -36 -36 -36 -36 -36 -36 -36 -37 -37 -37 -37 -37 -37 -37 -37 -37 -37
-31 -31 -31 -32 -32 -32 -32 -33 -34 -34 -34 -35 -35 -35 -35 -35 -35 -35 -35 -35 -35 -36 -36 -36 -36 -36 -36 -36 -36 -36 -36 -36 -36 -37 -37 -37 -37 -37 -37 -37 -37 -37 -37
-31 -31 -32 -32 -32 -33 -33 -34 -34 -34 -35 -35 -36 -36 -36 -36 -36 -35 -36 -36 -36 -37 -37 -36 -36 -36 -36 -36 -36 -36 -36 -36 -36 -37 -37 -37 -38 -38 -38 -38 -38 -38 -38
-32 -32 -32 -32 -33 -34 -34 -34 -35 -35 -35 -36 -36 -36 -36 -36 -36 -36 -36 -36 -37 -37 -37 -37 -37 -37 -37 -37 -37 -37 -37 -37 -37 -37 -37 -37 -38 -38 -38 -38 -38 -38 -38

GFSGL_500_temp_045.txt.gz
Temp
-15 -15 -16 -16 -17 -17 -17 -18 -18 -18 -19 -20 -20 -19 -19 -20 -20 -21 -21 -21 -21 -22 -22 -22 -22 -23 -23 -24 -25 -26 -26 -26 -26 -26 -26 -27 -28 -29 -30 -31 -31 -31 -31
-15 -15 -16 -16 -17 -17 -18 -18 -19 -19 -19 -20 -20 -20 -20 -21 -21 -21 -21 -21 -22 -22 -22 -23 -24 -24 -25 -26 -27 -27 -26 -26 -27 -27 -29 -30 -31 -31 -32 -32 -32 -31 -31
-16 -16 -17 -17 -18 -18 -18 -18 -19 -19 -19 -20 -20 -21 -21 -21 -21 -21 -21 -22 -22 -23 -24 -24 -25 -26 -27 -27 -27 -27 -28 -28 -29 -30 -31 -32 -32 -32 -32 -32 -32 -31 -31
-16 -17 -17 -17 -17 -18 -18 -19 -19 -19 -20 -20 -21 -21 -21 -21 -22 -22 -22 -23 -23 -23 -25 -26 -27 -27 -27 -27 -28 -29 -30 -31 -31 -31 -32 -33 -33 -33 -33 -32 -32 -31 -31
-17 -18 -18 -17 -18 -19 -19 -19 -20 -20 -20 -20 -21 -21 -21 -22 -23 -23 -23 -23 -24 -25 -27 -27 -27 -28 -29 -29 -30 -31 -31 -31 -32 -33 -33 -33 -34 -34 -33 -33 -32 -32 -32
-17 -17 -18 -19 -19 -19 -20 -20 -20 -20 -20 -21 -21 -22 -22 -23 -23 -23 -24 -25 -25 -28 -28 -29 -29 -30 -30 -30 -31 -32 -32 -32 -32 -33 -34 -34 -34 -34 -33 -33 -32 -32 -33
-17 -17 -18 -18 -19 -20 -20 -20 -20 -21 -21 -21 -21 -22 -23 -23 -23 -24 -25 -26 -29 -29 -29 -30 -30 -30 -31 -32 -32 -32 -33 -33 -33 -34 -34 -34 -35 -34 -34 -33 -33 -33 -33
-18 -18 -19 -19 -20 -20 -20 -21 -21 -21 -22 -22 -22 -22 -23 -24 -24 -25 -27 -29 -30 -30 -30 -30 -31 -31 -32 -32 -33 -33 -33 -34 -34 -34 -35 -35 -35 -34 -34 -33 -33 -33 -33
-18 -19 -19 -20 -20 -21 -21 -21 -22 -21 -22 -22 -23 -23 -24 -24 -26 -28 -29 -30 -30 -30 -31 -31 -31 -32 -33 -33 -33 -33 -34 -34 -34 -35 -35 -35 -35 -35 -34 -34 -33 -34 -34
-19 -19 -20 -20 -21 -21 -22 -22 -22 -22 -23 -24 -24 -24 -25 -26 -28 -29 -30 -30 -30 -31 -31 -31 -32 -32 -33 -33 -33 -34 -34 -35 -35 -35 -35 -35 -35 -35 -34 -34 -34 -34 -34
-19 -20 -21 -21 -21 -21 -22 -22 -23 -23 -24 -23 -24 -25 -27 -28 -29 -30 -30 -30 -31 -31 -31 -32 -33 -33 -33 -33 -34 -34 -35 -35 -35 -35 -35 -36 -36 -35 -35 -35 -34 -34 -34
-20 -21 -21 -21 -22 -22 -23 -23 -23 -23 -24 -25 -26 -26 -28 -29 -30 -30 -31 -31 -31 -31 -32 -33 -33 -33 -34 -34 -34 -34 -35 -35 -35 -35 -36 -36 -36 -36 -36 -35 -35 -35 -34
-21 -21 -21 -22 -23 -23 -23 -23 -23 -24 -25 -26 -27 -28 -29 -30 -31 -31 -31 -31 -31 -31 -32 -33 -33 -34 -34 -34 -34 -35 -35 -35 -35 -35 -36 -36 -36 -36 -36 -36 -36 -35 -35
-21 -21 -22 -23 -23 -23 -23 -24 -25 -25 -26 -27 -28 -29 -30 -31 -31 -31 -31 -31 -31 -32 -33 -34 -34 -34 -34 -34 -34 -35 -35 -35 -35 -35 -36 -36 -36 -36 -36 -36 -36 -36 -35
-22 -22 -23 -23 -23 -24 -24 -25 -26 -26 -27 -28 -29 -30 -31 -31 -31 -31 -31 -31 -32 -33 -33 -34 -34 -34 -35 -34 -34 -35 -35 -35 -36 -36 -36 -36 -36 -36 -36 -36 -36 -36 -36
-23 -23 -24 -24 -24 -25 -25 -25 -27 -28 -28 -29 -31 -31 -31 -31 -31 -31 -32 -32 -33 -33 -34 -34 -34 -35 -35 -35 -35 -35 -35 -35 -35 -35 -36 -36 -36 -36 -36 -36 -37 -37 -36
-24 -24 -24 -25 -25 -25 -26 -26 -26 -27 -29 -30 -31 -31 -31 -31 -31 -32 -33 -33 -33 -34 -34 -34 -35 -35 -35 -35 -35 -35 -36 -35 -35 -36 -36 -36 -36 -36 -36 -37 -37 -37 -37
-25 -25 -25 -25 -25 -26 -26 -27 -28 -29 -30 -31 -31 -31 -31 -32 -32 -32 -33 -33 -33 -34 -34 -34 -35 -35 -35 -35 -35 -36 -36 -36 -36 -36 -36 -36 -36 -36 -36 -36 -37 -37 -37
-25 -25 -25 -26 -26 -27 -27 -28 -30 -31 -31 -31 -31 -31 -32 -32 -33 -33 -33 -33 -34 -34 -34 -34 -35 -35 -35 -35 -36 -36 -36 -36 -36 -36 -36 -36 -36 -36 -36 -37 -37 -37 -37
-25 -26 -26 -26 -27 -28 -29 -30 -31 -31 -31 -31 -32 -32 -33 -33 -33 -33 -34 -34 -34 -35 -35 -35 -35 -35 -35 -35 -36 -37 -37 -36 -36 -36 -36 -36 -36 -36 -37 -37 -37 -37 -37
-26 -26 -27 -27 -28 -29 -31 -31 -31 -31 -31 -32 -33 -33 -33 -33 -34 -34 -35 -35 -36 -35 -35 -35 -35 -35 -35 -35 -36 -37 -37 -37 -36 -36 -36 -36 -36 -36 -37 -37 -37 -37 -37
-27 -27 -28 -29 -30 -31 -31 -31 -31 -32 -32 -32 -33 -34 -35 -35 -35 -35 -35 -35 -36 -36 -36 -36 -36 -36 -36 -36 -37 -37 -37 -37 -37 -36 -36 -36 -36 -37 -37 -37 -37 -37 -37
-28 -29 -30 -31 -31 -31 -32 -32 -32 -32 -33 -34 -34 -34 -34 -35 -35 -35 -35 -36 -36 -36 -36 -36 -36 -36 -37 -37 -37 -37 -37 -37 -37 -37 -37 -37 -37 -37 -37 -37 -37 -37 -37
-30 -31 -31 -32 -32 -32 -32 -32 -32 -33 -33 -33 -33 -33 -34 -34 -35 -35 -36 -36 -37 -37 -37 -37 -37 -37 -37 -37 -38 -37 -37 -37 -37 -37 -37 -37 -37 -37 -37 -37 -37 -38 -38
-31 -32 -32 -32 -32 -32 -32 -32 -33 -33 -33 -33 -33 -34 -34 -34 -35 -36 -37 -37 -37 -37 -37 -37 -37 -37 -38 -38 -38 -38 -37 -37 -37 -37 -37 -37 -37 -37 -37 -37 -37 -37 -38
-32 -32 -32 -32 -33 -33 -33 -33 -33 -34 -33 -34 -34 -34 -35 -35 -36 -37 -38 -38 -39 -38 -38 -38 -38 -38 -38 -38 -38 -38 -37 -37 -37 -37 -37 -37 -37 -37 -37 -37 -37 -37 -37

GFSGL_500_temp_048.txt.gz
Temp
-16 -16 -16 -16 -16 -16 -17 -17 -17 -17 -18 -18 -18 -19 -19 -19 -20 -20 -20 -20 -21 -21 -22 -22 -23 -23 -23 -23 -24 -26 -27 -28 -28 -28 -29 -29 -30 -30 -30 -30 -31 -31 -32
-16 -16 -16 -16 -16 -17 -17 -17 -18 -18 -18 -18 -19 -19 -20 -20 -20 -21 -21 -21 -21 -22 -23 -23 -23 -23 -24 -25 -26 -28 -29 -29 -29 -29 -30 -31 -31 -32 -31 -32 -33 -33 -33
-16 -16 -16 -16 -17 -17 -17 -17 -17 -18 -18 -18 -19 -19 -20 -21 -21 -21 -21 -21 -22 -23 -23 -23 -23 -24 -26 -27 -29 -29 -30 -30 -30 -31 -31 -32 -32 -32 -33 -33 -33 -33 -33
-16 -16 -16 -16 -17 -17 -17 -18 -18 -18 -19 -19 -20 -20 -21 -21 -21 -21 -22 -22 -23 -23 -23 -24 -25 -26 -27 -29 -30 -30 -31 -31 -31 -32 -32 -32 -33 -33 -33 -33 -34 -34 -33
-16 -16 -17 -17 -17 -18 -18 -18 -18 -19 -20 -20 -21 -21 -21 -22 -22 -22 -22 -23 -23 -24 -24 -25 -26 -28 -29 -30 -31 -31 -31 -32 -32 -32 -32 -33 -33 -34 -34 -35 -34 -34 -33
-16 -16 -16 -17 -17 -17 -18 -18 -19 -19 -20 -20 -21 -21 -22 -22 -22 -23 -23 -23 -24 -25 -25 -26 -28 -30 -30 -31 -31 -31 -32 -32 -33 -33 -33 -33 -34 -34 -35 -35 -34 -34 -33
-16 -16 -16 -17 -17 -18 -18 -19 -19 -20 -20 -21 -21 -21 -22 -23 -23 -23 -23 -24 -25 -26 -27 -28 -30 -30 -31 -31 -31 -32 -32 -33 -33 -33 -34 -34 -35 -35 -35 -35 -34 -34 -33
-16 -17 -17 -18 -18 -18 -19 -19 -20 -21 -21 -22 -21 -22 -22 -23 -24 -24 -25 -25 -26 -27 -29 -30 -31 -31 -31 -31 -31 -32 -33 -34 -33 -33 -34 -34 -35 -35 -35 -35 -35 -35 -34
-17 -17 -18 -18 -19 -19 -20 -20 -21 -21 -22 -22 -22 -23 -23 -24 -25 -25 -25 -26 -28 -29 -30 -31 -31 -31 -31 -31 -32 -33 -33 -34 -34 -34 -34 -35 -35 -35 -35 -35 -35 -35 -35
-17 -18 -18 -19 -19 -20 -21 -21 -21 -22 -22 -23 -23 -24 -24 -24 -25 -26 -27 -28 -29 -30 -31 -31 -31 -31 -31 -32 -33 -33 -34 -34 -34 -34 -35 -35 -35 -35 -35 -35 -35 -35 -35
-18 -19 -19 -19 -20 -21 -21 -21 -22 -22 -23 -23 -24 -24 -25 -25 -26 -27 -28 -29 -30 -31 -31 -31 -31 -31 -32 -33 -33 -34 -34 -34 -34 -35 -35 -35 -35 -35 -35 -36 -35 -35 -35
-19 -19 -20 -20 -21 -21 -21 -22 -22 -23 -24 -24 -24 -25 -25 -26 -27 -28 -29 -30 -31 -31 -31 -32 -32 -32 -33 -33 -34 -34 -34 -34 -34 -35 -35 -35 -36 -36 -36 -36 -36 -36 -35
-19 -20 -20 -21 -21 -21 -22 -23 -23 -24 -24 -24 -25 -25 -26 -26 -27 -29 -30 -31 -32 -32 -32 -32 -32 -33 -33 -34 -34 -35 -35 -35 -35 -35 -35 -35 -36 -36 -36 -36 -36 -36 -36
-20 -20 -21 -21 -22 -22 -23 -23 -24 -24 -25 -25 -26 -26 -26 -26 -28 -29 -31 -32 -32 -32 -32 -32 -33 -33 -34 -35 -35 -35 -35 -35 -35 -35 -35 -36 -36 -36 -36 -36 -36 -36 -37
-21 -21 -22 -22 -22 -23 -24 -24 -25 -25 -26 -26 -26 -27 -27 -27 -29 -31 -31 -31 -32 -32 -32 -32 -33 -33 -34 -35 -35 -35 -35 -35 -35 -35 -35 -36 -36 -36 -36 -36 -36 -37 -37
-22 -22 -22 -22 -23 -24 -24 -25 -25 -26 -26 -27 -27 -28 -28 -30 -31 -31 -31 -32 -32 -32 -33 -33 -33 -34 -34 -35 -35 -35 -35 -35 -35 -36 -36 -36 -36 -36 -36 -36 -36 -37 -37
-22 -22 -22 -23 -24 -25 -25 -25 -25 -26 -26 -27 -28 -29 -31 -30 -31 -31 -32 -32 -33 -33 -33 -33 -33 -34 -35 -35 -35 -35 -35 -35 -36 -36 -36 -36 -36 -36 -36 -36 -36 -37 -37
-22 -23 -24 -24 -25 -25 -26 -26 -26 -26 -26 -26 -29 -30 -30 -31 -31 -32 -32 -33 -33 -34 -34 -34 -34 -35 -35 -35 -35 -35 -35 -35 -36 -36 -36 -36 -36 -36 -36 -36 -36 -37 -37
-23 -24 -25 -25 -26 -26 -26 -26 -27 -27 -28 -29 -30 -30 -31 -31 -31 -33 -33 -34 -34 -34 -35 -35 -35 -35 -35 -36 -36 -36 -35 -36 -36 -37 -37 -36 -36 -36 -36 -36 -36 -37 -37
-24 -25 -26 -26 -26 -26 -27 -27 -28 -29 -31 -31 -31 -31 -31 -31 -33 -33 -33 -34 -34 -35 -35 -35 -36 -36 -36 -36 -36 -36 -36 -36 -37 -37 -37 -37 -36 -36 -36 -36 -36 -37 -37
-26 -26 -26 -26 -27 -27 -28 -29 -30 -31 -31 -31 -31 -31 -31 -32 -32 -32 -33 -34 -35 -35 -36 -36 -36 -36 -36 -36 -36 -36 -36 -37 -37 -37 -37 -37 -36 -36 -36 -36 -37 -37 -37
-26 -27 -27 -27 -28 -28 -30 -31 -31 -32 -32 -32 -32 -32 -32 -33 -32 -33 -33 -34 -35 -36 -36 -36 -36 -36 -36 -37 -37 -37 -37 -37 -37 -37 -37 -37 -37 -37 -37 -37 -37 -37 -37
-27 -27 -27 -28 -29 -31 -32 -32 -32 -32 -32 -32 -32 -33 -33 -33 -33 -33 -34 -34 -35 -36 -37 -37 -37 -37 -37 -37 -37 -37 -37 -38 -38 -37 -37 -37 -37 -37 -37 -37 -37 -37 -37
-27 -28 -29 -30 -31 -32 -32 -32 -32 -32 -33 -33 -34 -34 -34 -33 -34 -34 -34 -35 -35 -37 -38 -38 -38 -38 -37 -38 -38 -38 -38 -38 -38 -37 -37 -37 -37 -37 -37 -37 -37 -37 -37
-28 -30 -31 -32 -32 -32 -32 -33 -32 -32 -33 -35 -35 -35 -34 -34 -35 -35 -35 -35 -36 -38 -39 -39 -39 -39 -38 -38 -38 -39 -39 -38 -38 -38 -38 -37 -37 -37 -37 -37 -37 -37 -37
-30 -31 -32 -32 -32 -33 -33 -33 -33 -33 -34 -35 -35 -35 -35 -35 -35 -35 -36 -36 -37 -38 -39 -40 -40 -40 -39 -39 -39 -39 -39 -39 -38 -38 -38 -38 -37 -37 -37 -37 -37 -38 -38

GFSGL_500_temp_051.txt.gz
Temp
-16 -16 -16 -16 -16 -16 -16 -16 -17 -17 -17 -17 -18 -18 -18 -18 -19 -19 -20 -20 -20 -21 -21 -21 -22 -22 -23 -23 -23 -24 -25 -25 -27 -28 -30 -31 -31 -31 -32 -32 -32 -32 -32
-16 -16 -16 -16 -16 -16 -16 -17 -17 -17 -17 -18 -18 -19 -19 -19 -19 -20 -21 -21 -21 -21 -22 -22 -23 -23 -23 -23 -24 -25 -26 -27 -29 -30 -31 -31 -31 -32 -32 -32 -32 -33 -33
-17 -17 -16 -16 -17 -17 -16 -17 -17 -18 -18 -18 -19 -19 -19 -20 -20 -21 -21 -21 -21 -22 -22 -23 -23 -23 -24 -24 -25 -26 -27 -29 -30 -31 -31 -31 -32 -33 -33 -33 -33 -34 -34
-16 -16 -16 -16 -16 -16 -16 -18 -17 -18 -18 -19 -19 -19 -20 -21 -21 -21 -21 -21 -22 -23 -23 -23 -23 -24 -25 -25 -26 -28 -29 -31 -31 -31 -31 -32 -33 -33 -33 -33 -34 -35 -35
-16 -16 -16 -16 -16 -17 -17 -17 -17 -18 -18 -19 -19 -19 -20 -21 -21 -21 -21 -22 -23 -22 -23 -24 -24 -25 -25 -26 -28 -29 -31 -31 -31 -31 -31 -32 -33 -33 -33 -34 -34 -35 -36
-16 -16 -16 -16 -16 -16 -16 -17 -18 -18 -19 -19 -20 -20 -21 -21 -21 -22 -22 -22 -22 -23 -24 -25 -25 -26 -27 -28 -30 -31 -31 -31 -31 -31 -32 -33 -33 -34 -34 -34 -35 -35 -35
-16 -16 -16 -16 -16 -16 -17 -18 -18 -19 -19 -19 -20 -21 -22 -22 -22 -22 -22 -23 -23 -24 -25 -25 -26 -27 -28 -30 -31 -31 -31 -32 -32 -32 -33 -34 -34 -34 -34 -35 -35 -35 -35
-16 -16 -16 -16 -16 -17 -18 -18 -19 -19 -19 -20 -21 -21 -21 -22 -22 -23 -23 -24 -24 -25 -25 -26 -27 -28 -30 -31 -31 -32 -32 -32 -32 -32 -34 -34 -34 -34 -35 -35 -35 -35 -36
-16 -16 -16 -16 -17 -18 -18 -19 -19 -19 -20 -21 -21 -21 -22 -23 -23 -24 -24 -25 -25 -25 -26 -27 -28 -30 -31 -31 -32 -32 -32 -32 -32 -33 -34 -34 -34 -34 -35 -35 -35 -35 -35
-16 -16 -17 -17 -18 -18 -19 -19 -20 -20 -21 -21 -21 -22 -22 -23 -24 -25 -25 -25 -25 -26 -26 -28 -30 -31 -32 -32 -32 -32 -32 -33 -33 -34 -34 -34 -34 -35 -35 -35 -35 -35 -35
-17 -17 -17 -18 -19 -19 -19 -20 -21 -21 -21 -21 -22 -23 -23 -24 -25 -25 -25 -26 -26 -26 -27 -29 -31 -32 -32 -32 -32 -32 -33 -33 -34 -34 -34 -35 -35 -35 -35 -35 -36 -36 -36
-17 -18 -18 -19 -19 -20 -20 -21 -21 -21 -22 -22 -22 -23 -24 -25 -25 -26 -26 -26 -27 -28 -29 -30 -31 -32 -32 -32 -33 -33 -33 -34 -34 -35 -35 -35 -35 -35 -35 -36 -36 -36 -36
-18 -18 -19 -20 -20 -21 -21 -21 -22 -22 -22 -22 -23 -23 -24 -25 -25 -26 -26 -26 -28 -29 -30 -31 -31 -32 -32 -33 -33 -33 -34 -34 -35 -35 -35 -35 -35 -35 -36 -36 -36 -36 -36
-18 -19 -20 -20 -21 -21 -21 -22 -22 -22 -22 -23 -23 -24 -25 -25 -25 -26 -26 -27 -28 -29 -30 -31 -32 -32 -33 -33 -34 -34 -34 -35 -35 -35 -35 -35 -35 -36 -36 -36 -36 -36 -36
-19 -20 -20 -21 -22 -22 -22 -22 -22 -22 -23 -24 -25 -25 -25 -25 -26 -26 -27 -28 -29 -30 -31 -31 -32 -33 -33 -34 -34 -34 -34 -35 -35 -35 -35 -35 -36 -36 -36 -36 -36 -36 -36
-20 -21 -21 -22 -22 -22 -22 -22 -23 -24 -25 -26 -26 -26 -26 -26 -27 -28 -29 -30 -31 -31 -31 -32 -33 -34 -34 -34 -34 -34 -35 -35 -35 -35 -35 -36 -36 -36 -36 -36 -36 -36 -36
-21 -21 -22 -22 -22 -23 -23 -23 -24 -25 -26 -26 -26 -26 -27 -28 -29 -30 -30 -31 -31 -31 -32 -32 -33 -34 -35 -35 -35 -35 -35 -35 -36 -35 -36 -36 -36 -36 -36 -36 -36 -36 -36
-22 -22 -22 -23 -23 -23 -23 -24 -25 -26 -26 -26 -26 -27 -28 -29 -30 -31 -31 -31 -31 -32 -32 -33 -34 -34 -35 -35 -35 -35 -36 -36 -36 -36 -36 -36 -37 -36 -36 -36 -36 -36 -36
-22 -23 -23 -23 -23 -23 -24 -25 -26 -26 -26 -26 -27 -28 -30 -30 -31 -31 -31 -32 -32 -32 -32 -33 -34 -35 -35 -35 -36 -36 -36 -36 -36 -36 -36 -37 -37 -37 -36 -36 -36 -36 -37
-23 -23 -24 -24 -24 -25 -26 -26 -27 -27 -27 -28 -29 -30 -30 -31 -31 -31 -32 -33 -33 -33 -33 -33 -34 -35 -36 -36 -36 -36 -36 -36 -36 -36 -36 -37 -37 -37 -37 -37 -36 -36 -37
-24 -24 -24 -24 -25 -26 -27 -27 -27 -28 -29 -30 -31 -31 -31 -31 -31 -32 -33 -33 -33 -33 -34 -34 -35 -36 -36 -36 -37 -37 -37 -37 -37 -37 -37 -37 -37 -37 -37 -37 -37 -37 -37
-24 -25 -24 -25 -27 -27 -27 -27 -28 -30 -31 -31 -32 -32 -32 -32 -32 -33 -34 -34 -34 -34 -34 -34 -35 -37 -37 -37 -37 -37 -37 -37 -37 -37 -37 -37 -37 -37 -37 -37 -37 -37 -37
-25 -25 -26 -27 -28 -28 -28 -29 -30 -31 -32 -32 -32 -32 -32 -33 -33 -34 -34 -34 -35 -35 -34 -35 -36 -38 -38 -38 -37 -38 -38 -38 -38 -38 -38 -38 -37 -37 -37 -37 -37 -37 -37
-25 -27 -28 -28 -28 -29 -30 -31 -32 -32 -32 -33 -32 -33 -33 -33 -34 -35 -35 -35 -35 -35 -35 -36 -36 -38 -39 -39 -38 -38 -38 -38 -38 -38 -38 -38 -37 -37 -37 -37 -37 -37 -37
-28 -28 -28 -29 -30 -31 -32 -32 -32 -33 -33 -33 -33 -33 -34 -34 -35 -35 -35 -35 -35 -36 -36 -37 -37 -38 -39 -39 -40 -39 -38 -39 -39 -39 -38 -38 -38 -38 -37 -37 -37 -37 -37
-28 -29 -29 -31 -32 -32 -32 -33 -33 -33 -33 -33 -33 -34 -35 -35 -36 -36 -36 -36 -36 -36 -37 -37 -37 -39 -40 -40 -40 -40 -39 -39 -39 -39 -39 -38 -38 -38 -38 -38 -37 -37 -37

GFSGL_500_temp_054.txt.gz
Temp
-16 -16 -16 -16 -16 -16 -17 -16 -16 -16 -17 -17 -17 -16 -17 -17 -18 -18 -19 -19 -19 -20 -20 -21 -21 -21 -22 -22 -22 -23 -23 -24 -24 -25 -26 -27 -27 -29 -31 -31 -31 -31 -32
-17 -16 -16 -16 -17 -17 -17 -16 -16 -17 -17 -17 -17 -17 -17 -18 -18 -19 -19 -20 -20 -21 -21 -21 -21 -21 -22 -22 -23 -23 -24 -25 -25 -25 -27 -29 -30 -31 -31 -31 -31 -32 -32
-17 -16 -17 -17 -17 -16 -16 -16 -16 -16 -17 -17 -18 -17 -18 -19 -19 -19 -19 -20 -21 -21 -21 -21 -21 -22 -22 -22 -23 -24 -25 -25 -26 -27 -29 -30 -31 -31 -32 -32 -32 -33 -33
-17 -17 -17 -17 -16 -16 -16 -16 -16 -17 -17 -17 -18 -18 -19 -19 -19 -20 -20 -21 -21 -21 -22 -22 -22 -22 -23 -24 -24 -25 -25 -26 -28 -29 -30 -31 -32 -32 -32 -32 -33 -33 -33
-17 -17 -16 -16 -16 -16 -16 -16 -16 -17 -18 -17 -18 -18 -19 -19 -20 -20 -20 -21 -22 -22 -22 -22 -23 -23 -24 -25 -25 -26 -26 -28 -29 -30 -31 -32 -32 -32 -32 -32 -33 -33 -34
-16 -16 -16 -16 -16 -16 -16 -16 -17 -17 -17 -18 -18 -19 -19 -20 -20 -21 -21 -21 -22 -22 -22 -23 -24 -24 -25 -25 -26 -26 -27 -29 -30 -31 -32 -32 -32 -32 -32 -33 -34 -34 -34
-16 -16 -16 -16 -16 -16 -16 -16 -17 -17 -18 -18 -19 -19 -20 -20 -21 -21 -21 -21 -22 -22 -23 -24 -25 -25 -25 -26 -26 -27 -29 -30 -31 -32 -32 -32 -32 -33 -33 -34 -34 -34 -34
-16 -16 -16 -16 -16 -16 -17 -17 -17 -17 -18 -19 -19 -20 -20 -21 -21 -21 -22 -22 -22 -23 -24 -24 -25 -25 -26 -27 -27 -29 -30 -31 -32 -32 -32 -32 -33 -33 -33 -34 -34 -34 -35
-17 -17 -16 -16 -17 -17 -17 -17 -17 -18 -19 -19 -20 -20 -21 -21 -21 -22 -22 -22 -22 -23 -24 -25 -25 -26 -26 -27 -29 -30 -31 -32 -32 -32 -33 -33 -33 -34 -34 -34 -35 -35 -35
-17 -16 -17 -17 -17 -17 -17 -18 -18 -19 -19 -20 -21 -21 -21 -21 -21 -22 -22 -23 -23 -24 -24 -25 -25 -26 -27 -29 -30 -31 -31 -32 -33 -33 -33 -33 -34 -34 -35 -35 -35 -35 -35
-17 -17 -17 -17 -17 -18 -18 -18 -19 -19 -20 -21 -21 -21 -22 -22 -22 -22 -23 -24 -24 -25 -25 -25 -26 -27 -28 -30 -30 -31 -32 -32 -33 -34 -34 -34 -34 -35 -35 -35 -35 -35 -35
-17 -17 -17 -18 -18 -18 -19 -19 -20 -20 -21 -21 -21 -22 -22 -22 -23 -23 -24 -25 -26 -26 -26 -26 -27 -28 -30 -30 -31 -31 -32 -33 -34 -34 -34 -35 -36 -35 -35 -35 -35 -35 -36
-17 -18 -18 -18 -18 -19 -19 -20 -20 -21 -21 -21 -22 -22 -22 -22 -23 -23 -24 -25 -25 -26 -26 -27 -29 -29 -30 -31 -31 -32 -34 -34 -34 -35 -35 -35 -36 -36 -35 -36 -36 -36 -36
-18 -18 -19 -19 -19 -20 -20 -20 -21 -21 -22 -22 -22 -22 -23 -23 -23 -24 -24 -25 -26 -26 -27 -28 -29 -30 -31 -31 -32 -32 -34 -35 -35 -35 -35 -36 -36 -36 -36 -36 -36 -36 -36
-18 -19 -19 -19 -20 -20 -20 -21 -21 -22 -22 -22 -23 -23 -23 -23 -24 -24 -25 -25 -26 -27 -28 -29 -30 -30 -32 -32 -32 -33 -33 -34 -35 -35 -36 -36 -36 -36 -36 -36 -36 -36 -36
-19 -19 -20 -20 -20 -20 -21 -21 -22 -23 -23 -23 -23 -23 -24 -24 -25 -25 -26 -27 -28 -29 -30 -30 -30 -31 -33 -33 -33 -34 -34 -35 -35 -35 -36 -36 -36 -36 -36 -36 -36 -36 -36
-19 -20 -20 -21 -21 -21 -22 -22 -23 -23 -23 -24 -24 -24 -25 -25 -26 -27 -27 -28 -29 -30 -30 -31 -31 -33 -33 -33 -34 -34 -35 -35 -36 -36 -36 -36 -36 -36 -36 -36 -36 -36 -36
-20 -21 -21 -21 -22 -22 -22 -23 -23 -23 -24 -24 -25 -25 -26 -27 -27 -28 -29 -30 -31 -31 -31 -31 -32 -33 -33 -33 -34 -35 -35 -36 -36 -36 -36 -36 -36 -36 -37 -37 -36 -36 -36
-21 -21 -22 -22 -22 -22 -23 -23 -23 -24 -25 -25 -26 -26 -27 -28 -29 -30 -31 -31 -31 -31 -32 -32 -33 -33 -33 -34 -34 -35 -36 -36 -36 -36 -36 -36 -37 -37 -37 -37 -37 -37 -36
-22 -22 -22 -22 -22 -23 -23 -24 -25 -25 -25 -26 -27 -27 -28 -29 -30 -31 -32 -32 -32 -32 -32 -33 -34 -34 -34 -34 -35 -36 -37 -37 -37 -37 -37 -37 -37 -37 -37 -37 -37 -37 -37
-22 -22 -22 -23 -23 -24 -25 -25 -25 -26 -27 -27 -28 -29 -30 -31 -31 -32 -32 -32 -32 -33 -33 -34 -34 -34 -35 -35 -36 -37 -38 -37 -37 -37 -37 -37 -37 -37 -37 -37 -37 -37 -37
-22 -23 -23 -24 -25 -25 -25 -26 -26 -27 -28 -29 -29 -30 -31 -32 -33 -33 -33 -32 -33 -34 -34 -34 -35 -35 -35 -35 -36 -38 -38 -38 -38 -37 -38 -38 -38 -38 -37 -37 -37 -37 -37
-23 -24 -24 -25 -25 -26 -26 -27 -28 -28 -29 -30 -31 -31 -32 -33 -33 -33 -33 -33 -34 -34 -35 -35 -35 -35 -35 -36 -37 -39 -39 -38 -38 -38 -38 -38 -38 -38 -37 -37 -37 -37 -37
-24 -25 -25 -26 -26 -27 -28 -28 -29 -30 -31 -32 -32 -32 -33 -33 -33 -33 -33 -34 -35 -35 -35 -36 -36 -36 -36 -37 -37 -39 -40 -39 -39 -39 -39 -39 -38 -38 -37 -37 -37 -37 -37
-26 -26 -27 -27 -28 -29 -29 -30 -31 -32 -32 -32 -33 -33 -33 -34 -33 -34 -34 -35 -35 -36 -36 -36 -36 -36 -37 -37 -37 -40 -40 -40 -39 -39 -39 -39 -39 -38 -38 -37 -37 -37 -37
-27 -27 -28 -29 -29 -30 -31 -32 -32 -33 -33 -33 -33 -34 -34 -34 -34 -34 -35 -36 -36 -36 -36 -36 -36 -37 -37 -38 -38 -40 -40 -40 -40 -39 -39 -39 -38 -38 -38 -38 -38 -38 -38

GFSGL_500_temp_057.txt.gz
Temp
-16 -16 -16 -16 -16 -16 -16 -16 -17 -16 -17 -16 -16 -16 -16 -16 -17 -17 -17 -17 -17 -18 -18 -19 -19 -20 -21 -21 -21 -21 -22 -22 -22 -23 -23 -24 -25 -25 -26 -26 -28 -29 -30
-16 -17 -17 -17 -16 -17 -17 -16 -16 -16 -16 -16 -16 -17 -16 -17 -17 -17 -18 -18 -18 -18 -19 -20 -20 -21 -21 -22 -22 -22 -22 -23 -23 -24 -24 -25 -26 -27 -27 -28 -29 -31 -31
-17 -17 -17 -17 -17 -17 -17 -17 -16 -16 -16 -16 -16 -17 -17 -17 -17 -17 -18 -18 -19 -19 -20 -20 -21 -22 -22 -22 -22 -22 -23 -24 -24 -24 -25 -26 -27 -28 -29 -30 -31 -31 -32
-17 -17 -17 -17 -17 -17 -17 -17 -17 -16 -16 -16 -16 -16 -17 -17 -18 -18 -18 -19 -19 -20 -20 -21 -22 -22 -22 -22 -23 -23 -24 -24 -25 -25 -26 -27 -28 -29 -31 -32 -32 -32 -32
-17 -17 -17 -17 -17 -17 -17 -17 -16 -16 -16 -16 -17 -17 -17 -17 -18 -18 -19 -19 -20 -20 -21 -21 -21 -22 -22 -23 -24 -24 -25 -25 -26 -27 -28 -29 -30 -31 -32 -32 -32 -32 -32
-18 -18 -17 -17 -17 -17 -16 -16 -16 -16 -16 -17 -17 -17 -17 -18 -18 -19 -19 -20 -21 -21 -21 -22 -22 -22 -23 -23 -23 -24 -25 -26 -27 -28 -29 -31 -32 -32 -33 -33 -33 -33 -33
-17 -17 -17 -17 -17 -16 -16 -16 -17 -17 -17 -17 -17 -18 -18 -18 -19 -19 -20 -21 -21 -22 -22 -22 -22 -23 -23 -24 -25 -25 -26 -26 -27 -28 -29 -30 -31 -32 -33 -33 -33 -34 -34
-17 -17 -17 -17 -17 -16 -17 -17 -17 -17 -17 -17 -18 -18 -19 -19 -20 -20 -21 -21 -22 -22 -22 -22 -22 -23 -24 -25 -25 -26 -26 -27 -29 -30 -31 -31 -32 -32 -33 -33 -34 -34 -34
-17 -17 -17 -17 -17 -17 -17 -17 -17 -17 -18 -18 -18 -19 -19 -20 -20 -21 -21 -21 -22 -22 -22 -23 -23 -23 -24 -25 -26 -27 -27 -28 -30 -31 -32 -32 -32 -33 -34 -34 -34 -34 -35
-17 -17 -17 -17 -17 -17 -17 -17 -18 -18 -18 -18 -19 -19 -20 -20 -20 -21 -22 -22 -22 -22 -22 -23 -23 -24 -25 -26 -26 -27 -28 -29 -30 -31 -32 -32 -33 -34 -34 -35 -36 -35 -35
-17 -17 -17 -17 -17 -17 -18 -18 -18 -18 -18 -19 -19 -20 -20 -21 -21 -22 -22 -22 -22 -22 -23 -23 -24 -24 -25 -26 -27 -28 -29 -30 -30 -31 -32 -33 -34 -34 -35 -36 -36 -36 -36
-17 -17 -17 -17 -17 -17 -18 -18 -18 -19 -19 -19 -20 -20 -21 -22 -22 -22 -22 -22 -23 -23 -23 -24 -24 -25 -26 -27 -28 -29 -30 -30 -31 -32 -33 -33 -35 -36 -36 -36 -36 -36 -36
-17 -17 -17 -18 -18 -18 -18 -19 -19 -19 -20 -20 -20 -21 -21 -22 -22 -22 -23 -23 -23 -24 -24 -25 -25 -26 -27 -28 -29 -30 -30 -31 -32 -33 -33 -34 -36 -36 -36 -36 -37 -36 -36
-18 -18 -18 -18 -18 -19 -19 -19 -20 -20 -20 -20 -21 -21 -21 -22 -22 -22 -23 -23 -24 -24 -24 -25 -26 -27 -28 -29 -30 -30 -30 -32 -33 -33 -34 -35 -36 -36 -36 -37 -37 -37 -36
-18 -18 -18 -19 -19 -19 -20 -20 -20 -21 -21 -21 -21 -22 -22 -22 -23 -23 -24 -24 -24 -25 -25 -26 -27 -28 -29 -30 -31 -31 -32 -32 -33 -33 -35 -35 -36 -36 -37 -37 -36 -36 -36
-19 -19 -19 -19 -19 -20 -20 -20 -21 -21 -21 -21 -22 -22 -22 -23 -23 -24 -24 -25 -25 -26 -27 -28 -29 -30 -31 -31 -31 -32 -33 -33 -33 -34 -35 -36 -36 -37 -37 -37 -37 -36 -37
-19 -19 -20 -20 -20 -20 -20 -21 -21 -21 -22 -22 -22 -22 -23 -24 -24 -25 -25 -26 -27 -28 -29 -30 -31 -31 -31 -32 -32 -33 -34 -34 -34 -35 -36 -36 -37 -37 -37 -36 -37 -37 -37
-20 -20 -20 -20 -20 -20 -21 -21 -21 -21 -21 -22 -22 -23 -24 -25 -25 -26 -27 -28 -29 -30 -30 -31 -32 -32 -32 -32 -33 -34 -34 -35 -35 -36 -36 -37 -37 -37 -37 -37 -37 -37 -37
-20 -20 -20 -20 -21 -21 -21 -21 -22 -22 -23 -23 -24 -24 -25 -25 -26 -27 -28 -29 -30 -31 -32 -32 -33 -33 -32 -33 -34 -34 -35 -35 -35 -36 -37 -37 -37 -37 -37 -37 -37 -37 -37
-21 -21 -21 -21 -22 -22 -22 -22 -23 -23 -24 -25 -25 -25 -26 -27 -28 -29 -29 -31 -31 -32 -32 -33 -33 -33 -33 -34 -35 -35 -35 -35 -36 -37 -38 -37 -37 -37 -37 -37 -37 -37 -37
-21 -21 -22 -22 -22 -23 -23 -23 -24 -24 -25 -26 -26 -26 -27 -28 -29 -30 -31 -31 -32 -33 -33 -33 -33 -33 -35 -35 -35 -35 -35 -36 -37 -38 -38 -38 -38 -38 -38 -38 -38 -37 -37
-21 -22 -22 -22 -23 -24 -24 -24 -25 -26 -26 -27 -27 -28 -29 -30 -31 -32 -32 -32 -33 -33 -34 -33 -34 -34 -35 -36 -36 -36 -36 -36 -37 -39 -39 -39 -38 -38 -38 -38 -38 -37 -37
-22 -22 -23 -23 -24 -25 -25 -26 -26 -27 -27 -28 -29 -30 -31 -32 -32 -32 -33 -33 -33 -34 -34 -34 -34 -35 -36 -36 -36 -36 -36 -37 -38 -40 -40 -40 -39 -39 -38 -38 -38 -37 -37
-22 -23 -23 -24 -25 -26 -26 -27 -27 -28 -28 -30 -30 -31 -32 -32 -33 -33 -34 -34 -34 -34 -34 -35 -35 -36 -36 -36 -36 -36 -37 -37 -39 -40 -40 -39 -39 -39 -39 -38 -38 -37 -37
-23 -24 -24 -25 -26 -26 -27 -27 -28 -29 -30 -31 -32 -32 -33 -33 -34 -34 -34 -34 -35 -35 -35 -36 -36 -37 -37 -37 -37 -37 -37 -38 -39 -40 -40 -39 -39 -39 -39 -38 -38 -38 -37
-24 -25 -26 -26 -27 -27 -28 -29 -30 -31 -31 -32 -33 -33 -34 -34 -34 -35 -35 -35 -36 -36 -36 -37 -37 -37 -37 -37 -37 -37 -38 -38 -40 -41 -40 -40 -39 -39 -39 -38 -38 -38 -38

GFSGL_500_temp_060.txt.gz
Temp
-15 -15 -16 -16 -16 -16 -16 -16 -17 -17 -17 -16 -16 -16 -16 -16 -16 -16 -17 -16 -16 -17 -17 -17 -18 -19 -19 -20 -20 -21 -21 -22 -22 -21 -22 -22 -23 -23 -24 -25 -26 -26 -26
-16 -16 -17 -17 -16 -17 -16 -16 -16 -16 -16 -16 -16 -16 -16 -16 -16 -16 -17 -17 -17 -17 -17 -18 -19 -19 -20 -20 -21 -21 -22 -22 -22 -22 -22 -23 -24 -24 -25 -26 -26 -27 -28
-16 -16 -17 -17 -17 -17 -17 -17 -17 -17 -17 -17 -16 -16 -16 -16 -16 -16 -16 -17 -17 -17 -18 -18 -19 -20 -20 -21 -22 -22 -22 -22 -22 -22 -22 -23 -24 -25 -26 -27 -28 -28 -29
-16 -17 -17 -17 -17 -17 -17 -17 -17 -17 -17 -17 -17 -17 -16 -16 -17 -17 -17 -17 -18 -18 -19 -19 -20 -20 -21 -22 -22 -22 -22 -22 -23 -23 -24 -24 -25 -26 -27 -29 -30 -31 -31
-16 -17 -17 -17 -17 -17 -17 -17 -17 -17 -17 -17 -17 -17 -17 -17 -17 -17 -17 -18 -18 -19 -19 -20 -20 -21 -22 -22 -22 -22 -23 -23 -23 -24 -25 -26 -27 -28 -29 -30 -31 -32 -32
-17 -17 -17 -18 -18 -17 -17 -17 -17 -17 -17 -17 -16 -17 -17 -17 -17 -18 -18 -18 -18 -19 -20 -20 -21 -22 -22 -22 -22 -22 -23 -23 -23 -24 -25 -26 -27 -28 -30 -31 -32 -33 -34
-17 -17 -18 -18 -18 -17 -17 -17 -17 -17 -17 -17 -17 -17 -17 -17 -17 -18 -18 -19 -19 -20 -20 -21 -22 -22 -22 -22 -22 -23 -23 -24 -25 -26 -26 -27 -28 -29 -31 -31 -32 -33 -34
-18 -18 -17 -17 -17 -17 -17 -17 -17 -17 -17 -17 -17 -17 -17 -17 -18 -19 -19 -19 -20 -20 -21 -22 -22 -22 -22 -22 -23 -23 -23 -24 -25 -26 -26 -27 -29 -30 -31 -32 -33 -33 -34
-17 -17 -18 -17 -17 -17 -17 -17 -17 -17 -17 -17 -17 -18 -18 -18 -19 -20 -20 -20 -20 -20 -21 -22 -22 -22 -22 -23 -23 -24 -24 -24 -25 -26 -28 -29 -30 -31 -31 -33 -33 -34 -35
-17 -17 -18 -17 -17 -17 -17 -17 -17 -17 -17 -18 -18 -18 -19 -19 -19 -20 -20 -20 -20 -21 -21 -22 -22 -22 -23 -23 -24 -24 -24 -26 -26 -27 -28 -30 -30 -31 -33 -34 -35 -35 -36
-17 -17 -17 -17 -17 -17 -18 -18 -18 -18 -18 -18 -19 -19 -19 -19 -20 -20 -20 -20 -20 -21 -21 -22 -22 -23 -23 -24 -24 -25 -26 -26 -27 -28 -30 -30 -31 -32 -33 -34 -35 -36 -36
-18 -18 -18 -18 -17 -18 -18 -18 -18 -18 -18 -19 -19 -20 -20 -20 -20 -20 -20 -21 -21 -21 -22 -22 -23 -23 -24 -24 -25 -26 -27 -28 -29 -30 -30 -31 -32 -33 -34 -35 -36 -36 -37
-17 -18 -18 -18 -18 -18 -18 -18 -18 -19 -19 -19 -19 -20 -20 -20 -20 -20 -21 -21 -21 -22 -22 -23 -23 -24 -25 -25 -27 -28 -28 -29 -30 -31 -31 -32 -33 -33 -34 -35 -36 -36 -37
-17 -17 -17 -18 -18 -18 -18 -18 -19 -19 -19 -19 -19 -20 -20 -20 -21 -21 -21 -22 -22 -22 -23 -24 -24 -25 -26 -27 -27 -29 -30 -31 -31 -31 -32 -33 -33 -34 -35 -36 -37 -36 -37
-18 -18 -18 -18 -18 -18 -19 -19 -19 -20 -20 -20 -20 -20 -21 -21 -21 -21 -22 -22 -22 -23 -24 -24 -25 -25 -27 -28 -29 -30 -31 -32 -32 -32 -33 -34 -34 -35 -36 -36 -37 -37 -37
-18 -18 -18 -18 -19 -19 -19 -20 -20 -20 -20 -20 -20 -21 -21 -21 -21 -22 -23 -24 -24 -24 -25 -25 -26 -27 -28 -29 -30 -31 -32 -33 -32 -34 -34 -35 -35 -36 -36 -37 -37 -37 -37
-19 -19 -19 -19 -19 -19 -20 -20 -20 -21 -21 -21 -21 -21 -21 -22 -22 -23 -24 -25 -25 -25 -26 -26 -27 -29 -30 -31 -32 -32 -33 -33 -33 -35 -35 -35 -35 -36 -37 -38 -37 -37 -37
-19 -19 -20 -20 -19 -20 -20 -20 -20 -21 -21 -21 -22 -22 -22 -23 -24 -25 -25 -26 -26 -27 -27 -28 -29 -30 -31 -32 -33 -33 -33 -33 -35 -35 -36 -36 -36 -37 -37 -37 -37 -37 -37
-19 -19 -19 -19 -20 -20 -20 -21 -21 -21 -22 -22 -22 -22 -23 -24 -25 -26 -26 -26 -27 -28 -29 -30 -31 -32 -32 -33 -33 -34 -34 -34 -35 -36 -36 -36 -37 -38 -38 -38 -37 -37 -38
-19 -19 -19 -20 -20 -20 -20 -21 -22 -22 -22 -23 -23 -24 -25 -26 -26 -26 -27 -28 -29 -30 -31 -31 -32 -32 -33 -33 -34 -34 -34 -35 -36 -36 -36 -36 -37 -38 -39 -38 -38 -38 -38
-19 -20 -20 -20 -20 -21 -21 -21 -22 -22 -23 -24 -25 -26 -26 -27 -27 -27 -28 -29 -30 -31 -32 -32 -33 -33 -34 -34 -34 -35 -35 -36 -36 -36 -36 -37 -38 -39 -39 -39 -38 -38 -38
-19 -20 -20 -21 -21 -22 -22 -22 -22 -23 -24 -25 -26 -26 -27 -27 -28 -29 -30 -31 -31 -32 -32 -33 -33 -34 -34 -35 -35 -35 -36 -37 -37 -36 -37 -37 -38 -39 -39 -39 -39 -39 -38
-20 -20 -20 -21 -22 -22 -22 -23 -23 -24 -25 -26 -27 -27 -28 -28 -30 -31 -31 -32 -32 -33 -33 -34 -34 -35 -35 -36 -36 -36 -37 -37 -37 -37 -37 -38 -39 -40 -40 -39 -39 -39 -38
-20 -21 -21 -22 -22 -23 -23 -24 -25 -26 -27 -27 -27 -28 -29 -30 -31 -32 -32 -33 -33 -34 -34 -34 -35 -36 -36 -37 -37 -37 -37 -37 -37 -37 -38 -39 -40 -40 -40 -40 -39 -39 -38
-22 -22 -23 -23 -23 -24 -25 -26 -26 -27 -27 -28 -29 -30 -30 -31 -32 -32 -33 -33 -34 -34 -34 -35 -36 -37 -37 -37 -38 -38 -38 -37 -37 -37 -38 -39 -40 -40 -40 -40 -39 -39 -38
-23 -23 -23 -24 -25 -25 -26 -26 -27 -28 -28 -29 -30 -31 -32 -32 -33 -33 -33 -34 -34 -34 -35 -36 -37 -37 -38 -38 -38 -38 -38 -38 -38 -38 -38 -39 -41 -40 -40 -40 -39 -39 -39

GFSGL_500_temp_063.txt.gz
Temp
-15 -15 -15 -15 -15 -15 -15 -13 -15 -16 -16 -16 -17 -17 -16 -16 -16 -16 -16 -16 -16 -17 -17 -17 -17 -17 -17 -18 -18 -19 -19 -20 -20 -20 -21 -22 -22 -22 -23 -23 -24 -24 -24
-16 -15 -14 -15 -15 -15 -12 -15 -16 -16 -16 -16 -17 -17 -16 -16 -16 -16 -16 -16 -17 -17 -17 -17 -17 -17 -18 -18 -19 -19 -20 -21 -21 -21 -22 -22 -22 -23 -23 -23 -24 -24 -25
-14 -15 -16 -15 -15 -15 -16 -16 -16 -16 -16 -16 -17 -17 -17 -16 -16 -16 -16 -16 -17 -17 -17 -17 -18 -18 -19 -19 -19 -20 -20 -21 -21 -22 -22 -22 -22 -23 -23 -23 -24 -26 -27
-16 -16 -16 -16 -16 -16 -16 -16 -16 -16 -17 -17 -17 -17 -16 -16 -16 -17 -17 -17 -17 -17 -17 -18 -18 -18 -19 -19 -19 -20 -20 -21 -22 -22 -22 -22 -22 -23 -24 -25 -25 -26 -28
-16 -16 -15 -16 -16 -16 -16 -16 -16 -17 -17 -17 -17 -17 -17 -17 -17 -17 -17 -17 -17 -17 -18 -18 -19 -19 -19 -19 -20 -20 -21 -21 -22 -22 -22 -22 -23 -23 -24 -25 -26 -28 -29
-16 -16 -16 -16 -16 -16 -16 -16 -17 -17 -17 -17 -17 -17 -17 -17 -17 -17 -17 -17 -18 -18 -19 -19 -19 -19 -20 -20 -20 -21 -21 -22 -22 -22 -23 -23 -23 -24 -25 -26 -27 -29 -30
-16 -16 -16 -16 -16 -17 -17 -17 -17 -17 -17 -17 -17 -17 -17 -17 -17 -17 -18 -18 -18 -19 -19 -19 -20 -20 -20 -20 -21 -21 -22 -23 -23 -23 -23 -24 -24 -25 -26 -27 -29 -30 -31
-15 -16 -16 -16 -16 -17 -17 -17 -17 -17 -17 -17 -17 -17 -17 -17 -17 -18 -18 -18 -19 -19 -19 -20 -20 -20 -20 -21 -21 -22 -22 -23 -23 -24 -24 -25 -26 -27 -28 -29 -30 -31 -31
-16 -16 -16 -17 -17 -17 -17 -17 -17 -17 -17 -17 -17 -17 -17 -17 -18 -18 -18 -19 -19 -19 -20 -20 -20 -20 -21 -21 -21 -22 -22 -23 -24 -24 -25 -25 -27 -28 -29 -30 -30 -31 -32
-16 -17 -17 -17 -17 -17 -17 -17 -17 -17 -18 -17 -17 -17 -17 -18 -18 -19 -19 -19 -19 -20 -20 -20 -21 -21 -21 -22 -22 -22 -23 -23 -23 -24 -25 -26 -27 -29 -30 -31 -31 -32 -32
-16 -16 -17 -17 -17 -17 -17 -17 -17 -18 -17 -17 -18 -18 -18 -19 -19 -19 -19 -19 -20 -20 -20 -21 -21 -21 -22 -22 -23 -23 -23 -24 -24 -25 -26 -27 -29 -30 -31 -31 -32 -33 -33
-16 -16 -17 -17 -17 -17 -17 -17 -18 -18 -18 -18 -18 -18 -19 -19 -19 -20 -20 -20 -20 -21 -21 -21 -21 -22 -22 -23 -23 -24 -24 -25 -26 -27 -28 -29 -30 -31 -32 -32 -33 -33 -34
-16 -17 -17 -17 -17 -18 -18 -18 -18 -18 -18 -18 -19 -19 -19 -20 -20 -20 -20 -20 -21 -21 -21 -21 -22 -22 -22 -23 -24 -25 -26 -26 -27 -28 -30 -31 -32 -32 -32 -33 -34 -34 -35
-17 -17 -17 -18 -18 -18 -18 -18 -18 -18 -19 -19 -19 -20 -20 -20 -20 -20 -21 -21 -21 -21 -22 -22 -23 -23 -24 -25 -26 -26 -26 -28 -29 -30 -31 -32 -33 -33 -33 -34 -35 -35 -36
-17 -18 -18 -18 -18 -18 -18 -19 -19 -20 -20 -20 -20 -20 -20 -20 -20 -21 -21 -21 -22 -22 -23 -23 -24 -24 -25 -26 -26 -26 -28 -29 -30 -32 -32 -33 -33 -34 -35 -35 -36 -36 -37
-18 -18 -18 -19 -19 -19 -19 -20 -20 -20 -20 -20 -20 -20 -21 -21 -21 -21 -21 -22 -22 -23 -23 -24 -25 -25 -26 -26 -27 -28 -29 -30 -32 -32 -33 -34 -34 -34 -35 -36 -36 -36 -37
-18 -19 -18 -19 -19 -20 -20 -20 -19 -20 -20 -20 -20 -21 -21 -21 -21 -21 -22 -22 -23 -24 -25 -25 -26 -26 -27 -27 -28 -29 -30 -32 -32 -33 -34 -34 -34 -35 -36 -36 -37 -37 -38
-19 -19 -20 -20 -20 -19 -19 -19 -19 -20 -20 -21 -21 -21 -21 -22 -21 -22 -22 -23 -24 -25 -26 -26 -27 -27 -28 -29 -30 -31 -32 -32 -33 -34 -35 -35 -35 -36 -36 -36 -37 -38 -38
-18 -18 -18 -19 -19 -19 -20 -20 -20 -20 -21 -21 -21 -21 -22 -22 -22 -23 -23 -24 -25 -26 -27 -27 -27 -28 -30 -30 -31 -32 -32 -33 -34 -35 -35 -35 -36 -36 -37 -37 -38 -39 -38
-19 -19 -19 -19 -20 -20 -20 -20 -20 -20 -21 -21 -21 -22 -22 -23 -23 -23 -24 -25 -26 -26 -27 -27 -29 -30 -31 -31 -32 -32 -33 -33 -34 -35 -36 -36 -37 -37 -37 -37 -38 -39 -39
-19 -20 -20 -20 -20 -20 -20 -20 -21 -21 -22 -22 -23 -23 -23 -23 -23 -24 -25 -26 -27 -27 -28 -30 -31 -31 -32 -32 -32 -33 -33 -34 -35 -36 -36 -37 -37 -37 -37 -37 -39 -39 -39
-19 -20 -20 -20 -21 -21 -21 -21 -22 -22 -22 -23 -23 -23 -24 -24 -25 -26 -27 -27 -28 -29 -30 -31 -32 -32 -32 -33 -33 -33 -34 -35 -36 -37 -37 -37 -37 -37 -37 -38 -39 -39 -39
-19 -20 -21 -21 -21 -22 -22 -22 -22 -23 -23 -23 -24 -24 -25 -26 -26 -27 -28 -29 -30 -31 -31 -32 -32 -33 -33 -33 -34 -34 -35 -36 -37 -37 -37 -37 -37 -37 -38 -39 -40 -40 -39
-21 -21 -22 -22 -22 -22 -23 -23 -23 -23 -24 -24 -25 -26 -26 -27 -28 -28 -29 -30 -31 -32 -32 -32 -33 -33 -33 -34 -34 -35 -36 -37 -37 -38 -38 -38 -38 -38 -38 -40 -40 -40 -40
-22 -22 -22 -22 -22 -23 -23 -24 -24 -25 -25 -26 -26 -27 -27 -28 -29 -30 -31 -31 -32 -32 -33 -33 -33 -34 -34 -35 -36 -37 -38 -38 -38 -38 -38 -38 -38 -38 -39 -40 -40 -40 -40
-22 -23 -23 -23 -24 -24 -25 -25 -26 -26 -26 -27 -27 -27 -28 -29 -30 -31 -32 -32 -33 -33 -34 -34 -34 -35 -35 -36 -37 -38 -38 -38 -38 -38 -38 -38 -39 -39 -40 -41 -41 -40 -40

GFSGL_500_temp_066.txt.gz
Temp
-16 -16 -16 -16 -16 -15 -15 -15 -15 -14 -15 -16 -16 -16 -17 -16 -16 -16 -16 -16 -16 -16 -16 -17 -17 -17 -17 -17 -17 -18 -18 -18 -18 -18 -19 -20 -20 -21 -21 -22 -22 -23 -23
-15 -15 -15 -15 -16 -16 -16 -15 -14 -15 -16 -16 -16 -16 -17 -17 -17 -17 -16 -16 -17 -17 -17 -17 -17 -17 -17 -17 -18 -18 -18 -18 -18 -18 -19 -20 -20 -21 -22 -22 -22 -23 -23
-15 -15 -15 -15 -15 -15 -15 -16 -16 -16 -17 -17 -17 -16 -16 -16 -17 -17 -17 -17 -17 -17 -17 -17 -17 -17 -17 -18 -18 -18 -19 -19 -19 -19 -19 -20 -21 -21 -22 -22 -23 -23 -23
-15 -15 -15 -16 -15 -15 -16 -16 -16 -16 -16 -16 -16 -16 -17 -17 -17 -17 -17 -17 -17 -17 -17 -17 -17 -17 -18 -18 -18 -19 -19 -19 -20 -20 -20 -20 -21 -22 -22 -23 -23 -23 -24
-15 -15 -16 -15 -15 -15 -16 -16 -16 -17 -17 -17 -17 -17 -17 -17 -17 -17 -17 -17 -17 -17 -17 -17 -17 -18 -18 -18 -19 -19 -19 -20 -20 -20 -21 -21 -21 -22 -22 -23 -23 -23 -24
-15 -16 -16 -16 -16 -16 -16 -16 -17 -17 -16 -17 -17 -17 -17 -17 -17 -18 -17 -17 -17 -17 -17 -17 -18 -18 -18 -19 -19 -19 -19 -20 -20 -21 -21 -21 -22 -22 -23 -23 -24 -25 -25
-15 -16 -16 -16 -16 -16 -17 -16 -17 -17 -17 -17 -17 -17 -18 -18 -17 -17 -17 -17 -17 -17 -18 -18 -18 -18 -19 -19 -19 -19 -20 -21 -21 -21 -21 -22 -22 -23 -23 -24 -25 -26 -27
-15 -16 -16 -16 -16 -16 -16 -17 -17 -17 -17 -17 -18 -18 -18 -18 -17 -17 -17 -17 -18 -18 -18 -19 -19 -19 -19 -19 -20 -20 -21 -21 -21 -22 -22 -23 -24 -24 -25 -25 -26 -27 -29
-15 -15 -16 -16 -16 -16 -17 -17 -17 -17 -17 -17 -17 -17 -17 -17 -17 -17 -18 -18 -18 -18 -19 -19 -19 -19 -20 -20 -20 -20 -21 -22 -22 -22 -23 -24 -24 -25 -26 -26 -27 -29 -30
-15 -15 -16 -16 -16 -16 -16 -16 -16 -17 -17 -17 -17 -17 -17 -17 -18 -18 -18 -18 -19 -19 -19 -19 -20 -20 -20 -20 -21 -21 -21 -22 -22 -23 -24 -24 -25 -25 -26 -28 -29 -31 -31
-15 -15 -15 -15 -16 -16 -16 -16 -17 -17 -17 -17 -17 -17 -18 -18 -18 -18 -19 -19 -19 -20 -20 -20 -20 -20 -20 -21 -21 -21 -22 -22 -23 -23 -24 -25 -25 -26 -27 -29 -31 -32 -32
-15 -15 -15 -15 -15 -16 -16 -17 -17 -17 -17 -17 -18 -18 -18 -18 -19 -19 -19 -20 -20 -20 -20 -21 -21 -20 -21 -21 -22 -22 -23 -23 -24 -24 -25 -26 -26 -27 -29 -31 -32 -33 -33
-16 -16 -16 -16 -16 -17 -17 -18 -18 -18 -17 -18 -18 -18 -19 -19 -19 -19 -20 -20 -20 -20 -21 -21 -21 -21 -22 -22 -23 -23 -23 -24 -25 -25 -26 -26 -27 -29 -30 -31 -32 -33 -34
-17 -16 -17 -17 -17 -17 -18 -18 -18 -18 -18 -18 -18 -18 -19 -19 -20 -20 -20 -20 -20 -20 -21 -21 -22 -22 -22 -22 -23 -24 -24 -25 -26 -26 -27 -27 -29 -30 -31 -32 -33 -34 -35
-17 -17 -17 -17 -18 -18 -18 -18 -18 -18 -18 -19 -19 -19 -19 -20 -20 -20 -20 -20 -21 -21 -21 -21 -22 -22 -22 -23 -24 -25 -26 -26 -27 -27 -28 -29 -30 -31 -32 -33 -34 -35 -36
-17 -17 -18 -18 -18 -18 -18 -18 -19 -19 -19 -19 -20 -20 -20 -20 -20 -20 -21 -21 -21 -21 -21 -22 -23 -23 -23 -24 -25 -26 -26 -27 -27 -29 -30 -31 -31 -32 -32 -34 -35 -35 -36
-18 -18 -18 -18 -18 -18 -18 -18 -18 -19 -19 -20 -20 -20 -20 -21 -21 -21 -21 -21 -21 -22 -23 -23 -23 -24 -24 -25 -26 -26 -26 -27 -29 -30 -31 -31 -32 -32 -33 -34 -35 -36 -37
-18 -18 -18 -18 -18 -19 -19 -19 -19 -19 -20 -20 -20 -21 -21 -21 -21 -21 -21 -22 -22 -23 -23 -24 -24 -25 -25 -26 -26 -26 -28 -30 -31 -31 -32 -32 -32 -33 -34 -35 -36 -36 -37
-18 -18 -19 -19 -19 -19 -19 -20 -20 -20 -20 -21 -21 -21 -21 -21 -22 -22 -22 -22 -23 -24 -24 -25 -25 -26 -26 -26 -27 -28 -30 -31 -31 -32 -32 -33 -33 -33 -35 -36 -37 -37 -37
-19 -19 -19 -19 -20 -20 -20 -20 -20 -20 -21 -21 -21 -22 -22 -22 -22 -23 -23 -24 -24 -25 -25 -26 -26 -26 -26 -28 -29 -31 -31 -32 -32 -32 -33 -33 -34 -35 -36 -37 -37 -37 -37
-19 -19 -19 -20 -20 -20 -20 -21 -20 -21 -21 -21 -22 -22 -22 -23 -23 -24 -24 -25 -25 -26 -26 -26 -26 -27 -29 -30 -31 -32 -32 -32 -33 -33 -33 -34 -35 -36 -37 -37 -37 -37 -38
-20 -20 -20 -20 -20 -20 -20 -21 -21 -21 -22 -22 -23 -23 -23 -24 -24 -25 -25 -26 -26 -26 -26 -27 -29 -30 -31 -31 -32 -32 -33 -33 -33 -34 -34 -35 -36 -37 -37 -37 -37 -38 -38
-20 -20 -20 -20 -20 -20 -21 -21 -22 -22 -23 -23 -24 -24 -24 -25 -25 -26 -26 -25 -26 -27 -29 -29 -30 -31 -32 -33 -33 -33 -33 -34 -34 -35 -35 -37 -37 -38 -38 -38 -38 -38 -39
-21 -21 -20 -20 -21 -22 -22 -23 -23 -23 -24 -24 -25 -25 -25 -25 -25 -26 -26 -27 -28 -29 -30 -31 -32 -32 -33 -33 -34 -34 -34 -35 -35 -36 -37 -38 -38 -38 -38 -38 -38 -38 -40
-21 -21 -22 -22 -22 -23 -23 -24 -24 -24 -25 -25 -25 -25 -26 -26 -27 -27 -28 -29 -30 -31 -31 -32 -33 -33 -34 -34 -35 -35 -35 -36 -37 -38 -38 -39 -39 -38 -38 -38 -38 -39 -40
-22 -22 -23 -23 -23 -24 -24 -24 -25 -25 -26 -26 -26 -27 -27 -28 -28 -29 -29 -31 -32 -32 -33 -33 -34 -34 -34 -35 -36 -36 -37 -38 -39 -39 -39 -39 -39 -39 -38 -38 -39 -40 -41

GFSGL_500_temp_069.txt.gz
Temp
-16 -16 -16 -16 -16 -16 -15 -16 -16 -16 -16 -15 -15 -15 -16 -16 -16 -16 -17 -17 -16 -16 -16 -16 -16 -16 -17 -17 -17 -17 -17 -17 -18 -18 -18 -18 -19 -19 -20 -20 -20 -21 -21
-15 -15 -15 -15 -15 -16 -16 -17 -16 -16 -16 -16 -15 -15 -16 -16 -17 -17 -16 -16 -16 -16 -17 -17 -16 -17 -17 -17 -17 -17 -18 -18 -18 -18 -18 -19 -19 -19 -20 -20 -21 -21 -21
-15 -15 -15 -15 -16 -15 -15 -15 -16 -15 -15 -16 -16 -16 -17 -17 -17 -16 -16 -16 -17 -17 -17 -17 -17 -17 -17 -17 -17 -18 -18 -18 -18 -18 -18 -19 -19 -20 -20 -21 -21 -21 -22
-15 -15 -15 -16 -16 -15 -16 -14 -15 -16 -16 -16 -16 -17 -17 -17 -17 -17 -17 -17 -17 -17 -17 -17 -17 -17 -18 -18 -18 -18 -18 -18 -19 -19 -19 -19 -20 -20 -21 -21 -21 -22 -22
-15 -15 -16 -16 -16 -16 -16 -16 -16 -16 -16 -17 -17 -16 -17 -17 -17 -17 -17 -17 -17 -17 -17 -17 -18 -18 -18 -18 -19 -18 -19 -19 -19 -19 -20 -20 -20 -21 -21 -21 -22 -22 -23
-15 -15 -16 -16 -16 -16 -16 -16 -16 -17 -17 -17 -17 -17 -17 -17 -18 -18 -18 -18 -18 -18 -18 -18 -18 -18 -18 -19 -19 -19 -19 -19 -20 -20 -20 -21 -21 -21 -21 -22 -22 -23 -22
-15 -15 -16 -16 -16 -16 -16 -17 -17 -17 -17 -17 -17 -17 -17 -18 -18 -18 -18 -18 -18 -18 -18 -18 -18 -19 -19 -19 -20 -20 -20 -20 -20 -20 -20 -21 -21 -22 -22 -22 -23 -23 -23
-16 -15 -15 -16 -16 -16 -16 -16 -17 -17 -17 -17 -17 -17 -18 -18 -18 -18 -18 -18 -18 -19 -19 -19 -19 -19 -19 -20 -20 -20 -20 -20 -20 -20 -21 -21 -22 -22 -22 -23 -23 -23 -24
-16 -16 -16 -16 -16 -16 -16 -16 -16 -16 -16 -17 -17 -18 -18 -18 -18 -18 -18 -19 -18 -19 -19 -19 -19 -19 -19 -20 -20 -20 -20 -20 -21 -21 -21 -22 -22 -23 -23 -24 -24 -24 -24
-16 -16 -16 -16 -16 -16 -16 -16 -16 -17 -17 -17 -18 -18 -18 -18 -19 -19 -19 -19 -19 -19 -19 -19 -20 -20 -20 -20 -20 -20 -20 -21 -21 -22 -22 -23 -23 -24 -24 -25 -25 -25 -26
-16 -16 -16 -16 -16 -16 -16 -16 -16 -17 -17 -17 -18 -18 -18 -18 -19 -19 -19 -19 -19 -19 -19 -19 -20 -20 -20 -21 -21 -21 -20 -21 -22 -22 -23 -23 -23 -24 -25 -25 -26 -26 -26
-16 -16 -16 -16 -16 -16 -16 -16 -16 -16 -17 -17 -18 -18 -18 -19 -19 -19 -19 -19 -19 -19 -20 -20 -20 -20 -21 -21 -21 -21 -21 -21 -22 -22 -23 -23 -24 -25 -25 -26 -27 -27 -28
-16 -16 -16 -16 -16 -16 -16 -16 -16 -17 -17 -17 -18 -18 -18 -18 -18 -19 -19 -19 -19 -20 -20 -21 -21 -21 -21 -21 -21 -21 -21 -22 -22 -23 -24 -24 -25 -25 -26 -26 -27 -28 -30
-16 -16 -16 -17 -17 -17 -17 -17 -17 -17 -17 -18 -18 -18 -18 -18 -19 -19 -19 -20 -20 -21 -21 -21 -21 -21 -21 -21 -21 -22 -22 -23 -24 -24 -24 -25 -25 -26 -27 -28 -28 -30 -31
-17 -17 -17 -17 -17 -17 -17 -17 -17 -18 -18 -18 -18 -19 -19 -20 -20 -20 -20 -20 -21 -21 -21 -21 -21 -21 -21 -21 -22 -22 -23 -24 -25 -25 -25 -26 -26 -27 -28 -29 -30 -31 -32
-18 -18 -18 -18 -18 -18 -18 -18 -18 -18 -18 -18 -19 -19 -19 -19 -20 -20 -21 -21 -21 -21 -21 -21 -21 -21 -22 -22 -22 -23 -24 -25 -25 -26 -26 -27 -27 -29 -30 -31 -31 -32 -33
-18 -18 -18 -18 -18 -18 -18 -18 -19 -19 -19 -19 -19 -20 -20 -21 -21 -21 -21 -21 -21 -21 -21 -22 -22 -22 -23 -23 -24 -25 -25 -26 -26 -27 -27 -28 -29 -30 -31 -31 -32 -33 -33
-18 -18 -18 -18 -19 -19 -19 -19 -19 -19 -20 -20 -20 -20 -20 -20 -21 -21 -21 -21 -21 -21 -22 -22 -23 -23 -24 -24 -25 -26 -26 -27 -27 -27 -28 -30 -31 -31 -32 -32 -33 -33 -34
-18 -19 -19 -19 -19 -19 -20 -19 -19 -19 -20 -20 -20 -20 -20 -20 -21 -21 -21 -21 -21 -22 -22 -23 -24 -24 -25 -25 -26 -27 -27 -27 -27 -29 -30 -31 -32 -32 -33 -33 -33 -34 -34
-19 -20 -20 -19 -19 -19 -19 -19 -19 -20 -20 -20 -20 -20 -20 -21 -21 -21 -21 -22 -23 -24 -24 -25 -25 -26 -26 -27 -27 -27 -27 -29 -30 -31 -32 -32 -33 -33 -33 -34 -34 -35 -36
-19 -18 -19 -19 -19 -19 -20 -20 -19 -20 -20 -21 -21 -21 -21 -21 -22 -22 -23 -24 -24 -25 -25 -26 -26 -27 -27 -27 -27 -28 -30 -30 -32 -32 -33 -33 -33 -34 -34 -34 -35 -36 -37
-20 -20 -20 -20 -20 -20 -20 -20 -20 -20 -21 -21 -21 -21 -22 -23 -23 -23 -24 -24 -25 -26 -26 -27 -27 -26 -27 -28 -29 -30 -31 -32 -32 -33 -33 -34 -34 -35 -35 -35 -36 -37 -38
-20 -20 -20 -20 -20 -20 -20 -21 -21 -21 -21 -21 -22 -23 -23 -23 -24 -24 -25 -25 -26 -26 -26 -26 -27 -28 -29 -30 -31 -32 -32 -33 -34 -34 -34 -35 -35 -36 -36 -37 -38 -38 -38
-21 -21 -21 -21 -21 -21 -21 -21 -22 -22 -22 -23 -24 -24 -24 -25 -25 -26 -26 -26 -26 -27 -28 -28 -29 -30 -31 -32 -32 -33 -33 -34 -34 -35 -35 -36 -37 -37 -38 -38 -39 -39 -39
-21 -21 -21 -22 -22 -22 -22 -23 -23 -24 -24 -25 -25 -26 -26 -26 -26 -27 -27 -28 -28 -29 -30 -31 -31 -32 -32 -33 -33 -34 -34 -35 -35 -36 -36 -37 -38 -39 -39 -39 -39 -39 -39
-22 -22 -22 -23 -23 -23 -24 -24 -25 -25 -25 -25 -26 -26 -27 -27 -28 -29 -29 -30 -30 -31 -31 -32 -32 -32 -33 -33 -34 -35 -36 -36 -37 -38 -38 -39 -40 -40 -39 -39 -39 -39 -39

GFSGL_500_temp_075.txt.gz
Temp
-16 -16 -15 -15 -16 -15 -16 -15 -16 -16 -16 -16 -16 -16 -16 -16 -16 -16 -16 -16 -16 -16 -16 -16 -16 -16 -16 -17 -18 -18 -17 -17 -17 -17 -18 -18 -18 -18 -19 -18 -18 -19 -19
-16 -16 -16 -16 -16 -16 -15 -16 -16 -16 -16 -16 -16 -16 -16 -16 -16 -16 -16 -16 -15 -15 -16 -16 -16 -16 -16 -17 -18 -18 -17 -17 -17 -18 -18 -18 -19 -18 -18 -19 -19 -20 -20
-15 -16 -16 -16 -16 -16 -16 -16 -16 -16 -15 -17 -16 -16 -17 -16 -17 -16 -16 -15 -15 -16 -16 -16 -16 -17 -17 -17 -17 -17 -17 -17 -18 -18 -18 -18 -18 -18 -19 -19 -20 -20 -21
-15 -15 -16 -16 -16 -15 -15 -16 -16 -16 -15 -16 -16 -16 -16 -16 -17 -17 -16 -16 -16 -16 -16 -17 -17 -17 -17 -17 -17 -17 -17 -18 -18 -18 -18 -18 -19 -19 -19 -19 -20 -20 -21
-16 -16 -16 -16 -16 -16 -16 -16 -16 -16 -16 -16 -16 -16 -16 -15 -16 -16 -16 -17 -16 -16 -16 -17 -17 -17 -17 -17 -17 -18 -18 -18 -18 -18 -18 -18 -19 -19 -19 -20 -20 -21 -21
-16 -16 -16 -16 -16 -16 -16 -16 -16 -16 -16 -16 -16 -16 -16 -16 -16 -16 -16 -17 -17 -17 -17 -17 -17 -17 -17 -18 -18 -18 -19 -19 -19 -19 -19 -19 -20 -20 -20 -21 -21 -21 -21
-16 -16 -16 -16 -16 -16 -16 -16 -16 -16 -16 -16 -16 -16 -16 -16 -16 -16 -16 -16 -16 -17 -17 -17 -17 -18 -18 -18 -18 -19 -19 -19 -19 -19 -20 -20 -20 -21 -21 -21 -21 -21 -21
-17 -17 -17 -17 -17 -17 -16 -16 -16 -16 -16 -16 -16 -16 -16 -17 -17 -17 -16 -16 -17 -17 -17 -17 -17 -18 -18 -18 -19 -19 -19 -19 -20 -20 -20 -20 -21 -21 -21 -21 -21 -21 -22
-18 -18 -17 -17 -17 -17 -17 -16 -16 -16 -16 -16 -16 -16 -16 -17 -16 -17 -17 -17 -17 -17 -17 -18 -18 -18 -18 -19 -19 -19 -20 -20 -20 -20 -21 -21 -21 -21 -21 -21 -21 -21 -22
-17 -18 -18 -18 -17 -17 -17 -17 -16 -16 -16 -16 -16 -16 -16 -16 -16 -17 -17 -17 -17 -17 -18 -17 -18 -18 -19 -19 -20 -20 -20 -21 -21 -21 -21 -21 -21 -21 -21 -21 -22 -22 -23
-17 -18 -18 -18 -18 -17 -17 -17 -17 -16 -16 -16 -16 -16 -16 -16 -17 -17 -17 -18 -17 -18 -17 -18 -18 -19 -19 -20 -20 -21 -21 -21 -21 -21 -21 -21 -21 -21 -21 -22 -22 -22 -23
-17 -17 -17 -17 -17 -17 -17 -17 -16 -16 -16 -16 -16 -17 -17 -17 -17 -17 -18 -18 -18 -18 -18 -18 -19 -19 -20 -20 -21 -21 -21 -21 -20 -21 -21 -21 -21 -22 -22 -22 -23 -23 -24
-16 -17 -17 -17 -17 -17 -17 -17 -17 -17 -17 -17 -17 -17 -17 -17 -18 -17 -18 -18 -18 -18 -19 -19 -19 -20 -20 -21 -21 -21 -21 -21 -21 -21 -21 -21 -21 -22 -22 -23 -24 -25 -26
-17 -17 -17 -17 -17 -17 -18 -18 -18 -18 -18 -18 -18 -18 -18 -18 -19 -18 -18 -18 -19 -19 -19 -20 -20 -20 -20 -20 -20 -20 -20 -21 -21 -21 -21 -22 -22 -22 -23 -24 -25 -26 -26
-16 -17 -17 -17 -18 -17 -17 -18 -18 -18 -18 -18 -18 -18 -18 -18 -18 -19 -19 -19 -19 -19 -20 -20 -20 -20 -20 -20 -20 -20 -21 -21 -21 -22 -22 -22 -22 -23 -24 -25 -26 -26 -27
-16 -17 -17 -18 -18 -17 -18 -18 -18 -18 -18 -18 -18 -18 -18 -19 -19 -19 -19 -19 -19 -20 -20 -20 -20 -21 -21 -21 -21 -21 -21 -21 -22 -22 -22 -22 -23 -24 -25 -26 -26 -27 -28
-17 -17 -17 -17 -17 -18 -18 -18 -18 -18 -18 -18 -18 -18 -19 -20 -20 -20 -20 -20 -20 -20 -20 -21 -21 -21 -21 -21 -21 -21 -22 -22 -22 -22 -22 -23 -24 -25 -26 -27 -27 -28 -29
-17 -17 -17 -17 -18 -18 -18 -18 -18 -18 -19 -18 -19 -19 -20 -20 -21 -21 -21 -21 -21 -21 -21 -21 -21 -21 -21 -21 -21 -21 -21 -22 -22 -23 -23 -24 -25 -26 -27 -28 -29 -29 -30
-17 -18 -18 -18 -18 -19 -19 -19 -19 -19 -20 -20 -20 -21 -21 -21 -21 -20 -21 -21 -21 -21 -21 -21 -21 -21 -21 -21 -22 -22 -22 -23 -24 -24 -25 -26 -27 -28 -29 -29 -30 -31 -32
-18 -18 -19 -19 -19 -19 -19 -20 -20 -20 -20 -20 -20 -20 -20 -20 -21 -21 -21 -21 -21 -21 -21 -21 -21 -22 -22 -22 -23 -23 -24 -25 -26 -27 -27 -28 -28 -29 -30 -31 -32 -32 -33
-19 -20 -19 -19 -20 -20 -21 -21 -21 -21 -21 -20 -20 -20 -20 -20 -21 -21 -21 -21 -21 -21 -21 -22 -22 -23 -23 -24 -24 -25 -26 -26 -27 -27 -28 -29 -30 -31 -32 -32 -33 -33 -33
-21 -21 -21 -21 -21 -21 -21 -21 -21 -21 -21 -21 -21 -21 -21 -21 -21 -22 -22 -22 -22 -22 -23 -23 -24 -24 -25 -25 -26 -26 -27 -27 -28 -29 -30 -31 -31 -32 -32 -33 -33 -34 -35
-21 -21 -21 -21 -21 -21 -21 -21 -22 -22 -22 -22 -22 -22 -22 -22 -22 -22 -22 -23 -23 -24 -24 -25 -25 -25 -25 -26 -27 -27 -28 -30 -30 -31 -31 -32 -33 -33 -34 -34 -35 -35 -36
-22 -22 -22 -22 -22 -22 -22 -22 -22 -22 -22 -22 -22 -22 -23 -23 -23 -23 -24 -24 -25 -25 -25 -26 -26 -27 -27 -29 -30 -30 -31 -31 -31 -32 -33 -33 -34 -34 -35 -36 -37 -38 -38
-21 -22 -22 -22 -22 -22 -22 -23 -23 -23 -23 -23 -23 -24 -24 -24 -25 -25 -25 -25 -26 -26 -27 -27 -29 -30 -30 -31 -31 -32 -32 -32 -33 -33 -34 -35 -36 -37 -38 -38 -39 -40 -40
-22 -22 -23 -23 -23 -23 -23 -23 -24 -24 -24 -24 -25 -25 -25 -25 -25 -26 -26 -27 -28 -29 -30 -31 -31 -31 -32 -32 -33 -33 -33 -34 -34 -35 -36 -37 -38 -39 -40 -40 -41 -41 -41

GFSGL_500_temp_078.txt.gz
Temp
-14 -14 -15 -15 -15 -15 -15 -15 -15 -15 -15 -15 -15 -15 -15 -15 -16 -16 -16 -16 -16 -16 -16 -16 -16 -16 -16 -16 -16 -16 -16 -16 -16 -17 -17 -17 -18 -18 -17 -18 -18 -18 -18
-15 -15 -15 -15 -15 -15 -15 -15 -15 -15 -15 -15 -16 -16 -15 -16 -16 -16 -16 -16 -16 -16 -16 -16 -16 -16 -16 -16 -16 -16 -17 -17 -17 -17 -18 -17 -18 -17 -18 -18 -18 -19 -19
-15 -15 -15 -15 -15 -15 -15 -15 -15 -15 -15 -15 -15 -15 -16 -16 -16 -16 -16 -16 -16 -16 -16 -16 -15 -15 -16 -16 -16 -16 -17 -17 -17 -18 -17 -17 -18 -18 -18 -18 -19 -18 -19
-15 -15 -15 -15 -15 -15 -15 -15 -15 -15 -15 -15 -15 -15 -15 -16 -15 -16 -16 -16 -16 -16 -16 -16 -15 -16 -16 -16 -16 -17 -17 -17 -18 -17 -17 -17 -18 -18 -18 -18 -19 -19 -19
-15 -15 -15 -15 -15 -15 -15 -16 -16 -15 -15 -16 -16 -16 -16 -16 -16 -16 -16 -16 -16 -16 -16 -16 -16 -16 -16 -16 -16 -17 -17 -17 -17 -17 -17 -18 -18 -18 -19 -19 -19 -19 -20
-16 -16 -16 -16 -16 -16 -16 -16 -16 -16 -15 -16 -16 -16 -16 -16 -16 -16 -16 -16 -16 -16 -16 -16 -16 -16 -16 -16 -17 -17 -17 -17 -17 -18 -18 -18 -19 -19 -19 -19 -19 -20 -21
-16 -16 -16 -16 -16 -16 -16 -17 -16 -16 -16 -16 -16 -16 -16 -16 -16 -16 -16 -16 -16 -16 -16 -16 -16 -16 -17 -17 -17 -17 -18 -17 -18 -18 -19 -19 -19 -19 -19 -20 -20 -20 -21
-16 -16 -16 -17 -16 -16 -16 -17 -17 -17 -16 -16 -16 -16 -16 -16 -16 -16 -16 -16 -16 -16 -16 -16 -16 -17 -17 -17 -17 -18 -18 -18 -18 -18 -19 -19 -19 -20 -20 -20 -21 -21 -21
-17 -16 -16 -17 -17 -17 -17 -17 -17 -17 -17 -17 -16 -16 -16 -16 -16 -16 -16 -16 -16 -16 -16 -17 -17 -17 -17 -17 -17 -18 -18 -18 -18 -18 -19 -20 -20 -21 -21 -21 -21 -21 -21
-17 -16 -16 -16 -17 -17 -17 -17 -17 -17 -17 -17 -17 -16 -16 -16 -16 -16 -17 -17 -17 -17 -17 -17 -17 -17 -18 -19 -18 -18 -18 -18 -18 -19 -19 -20 -21 -21 -21 -21 -21 -21 -21
-17 -17 -17 -17 -17 -17 -17 -17 -17 -17 -17 -17 -16 -16 -16 -16 -16 -16 -17 -17 -17 -17 -17 -17 -17 -18 -18 -18 -18 -18 -18 -19 -19 -19 -20 -21 -20 -20 -20 -20 -21 -21 -21
-17 -17 -17 -17 -17 -17 -17 -17 -17 -17 -17 -17 -17 -17 -17 -17 -17 -17 -17 -17 -17 -17 -17 -17 -17 -17 -18 -19 -18 -19 -19 -19 -20 -20 -20 -20 -20 -20 -20 -20 -21 -21 -21
-17 -17 -17 -17 -16 -17 -16 -17 -17 -17 -17 -18 -18 -18 -18 -18 -18 -18 -18 -18 -18 -18 -17 -18 -19 -18 -18 -18 -19 -19 -19 -20 -20 -20 -20 -20 -21 -21 -21 -21 -21 -21 -22
-17 -17 -17 -17 -17 -16 -16 -17 -17 -17 -17 -17 -18 -18 -18 -18 -18 -18 -18 -18 -18 -18 -18 -18 -19 -18 -19 -19 -19 -20 -20 -20 -20 -21 -21 -21 -21 -21 -21 -21 -22 -22 -22
-17 -17 -17 -17 -17 -17 -17 -17 -17 -17 -17 -17 -17 -17 -18 -18 -18 -18 -18 -18 -18 -18 -18 -18 -18 -19 -19 -20 -20 -20 -20 -20 -21 -21 -21 -22 -21 -21 -21 -22 -22 -23 -23
-17 -17 -17 -17 -17 -17 -17 -16 -17 -17 -17 -17 -17 -18 -18 -18 -18 -18 -18 -18 -18 -18 -18 -19 -19 -20 -20 -20 -20 -21 -21 -21 -21 -21 -21 -22 -22 -22 -22 -23 -23 -23 -24
-17 -18 -17 -17 -17 -17 -17 -17 -17 -17 -17 -17 -18 -18 -18 -18 -18 -18 -19 -19 -19 -19 -20 -20 -20 -21 -21 -21 -21 -21 -21 -22 -22 -21 -22 -22 -22 -22 -22 -23 -24 -24 -25
-17 -17 -17 -17 -17 -17 -17 -17 -17 -17 -17 -18 -18 -19 -18 -19 -19 -19 -19 -20 -20 -20 -21 -21 -21 -22 -22 -22 -22 -22 -22 -22 -22 -22 -22 -22 -22 -23 -23 -24 -25 -26 -27
-18 -17 -17 -18 -18 -17 -17 -17 -18 -18 -18 -19 -19 -19 -20 -20 -20 -20 -21 -21 -21 -21 -22 -22 -22 -22 -22 -22 -22 -22 -22 -22 -22 -22 -22 -23 -23 -24 -25 -26 -27 -28 -29
-18 -18 -18 -18 -18 -18 -18 -18 -18 -19 -19 -19 -20 -20 -21 -21 -21 -21 -22 -21 -21 -21 -21 -22 -22 -22 -22 -22 -22 -22 -22 -23 -23 -23 -23 -24 -25 -26 -27 -27 -28 -29 -30
-19 -19 -18 -18 -19 -19 -19 -20 -20 -20 -20 -20 -20 -21 -22 -22 -22 -22 -22 -22 -22 -22 -22 -22 -22 -22 -22 -23 -23 -23 -23 -24 -24 -24 -25 -26 -27 -27 -28 -29 -30 -31 -32
-20 -20 -20 -20 -20 -20 -20 -20 -21 -21 -21 -22 -22 -22 -22 -22 -22 -22 -22 -22 -22 -22 -23 -23 -23 -23 -23 -24 -24 -24 -24 -25 -25 -26 -27 -28 -29 -29 -30 -31 -32 -32 -33
-21 -21 -21 -21 -21 -21 -21 -22 -21 -21 -22 -22 -22 -22 -22 -22 -22 -23 -23 -23 -23 -23 -23 -23 -24 -24 -24 -24 -25 -25 -26 -27 -28 -28 -29 -30 -30 -31 -32 -32 -33 -34 -35
-22 -22 -22 -21 -21 -21 -21 -21 -22 -22 -22 -22 -23 -23 -23 -23 -23 -23 -23 -24 -23 -23 -23 -24 -24 -25 -26 -26 -27 -28 -29 -29 -30 -31 -31 -31 -32 -32 -33 -34 -35 -36 -37
-22 -22 -21 -22 -22 -22 -22 -22 -23 -23 -23 -23 -23 -23 -23 -24 -24 -23 -24 -24 -24 -24 -24 -25 -26 -27 -28 -29 -30 -30 -31 -31 -32 -32 -33 -33 -34 -35 -36 -37 -38 -38 -39
-23 -23 -23 -23 -23 -23 -23 -23 -24 -24 -24 -24 -24 -24 -24 -24 -24 -24 -25 -25 -26 -26 -27 -29 -30 -30 -31 -31 -32 -32 -33 -33 -34 -34 -35 -36 -37 -38 -39 -39 -40 -41 -41

GFSGL_500_temp_081.txt.gz
Temp
-13 -13 -14 -14 -14 -14 -14 -14 -14 -14 -14 -14 -14 -14 -14 -14 -14 -14 -15 -15 -15 -16 -16 -16 -16 -16 -16 -16 -16 -16 -16 -16 -16 -16 -16 -16 -16 -16 -15 -16 -17 -18 -17
-14 -14 -14 -14 -14 -14 -14 -14 -14 -14 -14 -14 -14 -14 -15 -15 -15 -15 -15 -15 -15 -15 -16 -16 -16 -16 -16 -16 -16 -16 -15 -16 -16 -16 -16 -16 -17 -16 -16 -17 -17 -17 -17
-14 -14 -14 -14 -14 -15 -14 -14 -14 -14 -14 -14 -14 -14 -15 -15 -15 -15 -15 -16 -15 -16 -15 -15 -16 -16 -15 -16 -16 -15 -15 -16 -16 -16 -17 -17 -17 -17 -18 -18 -18 -17 -17
-14 -14 -15 -15 -15 -15 -15 -15 -15 -15 -14 -15 -15 -14 -15 -15 -15 -15 -15 -16 -16 -16 -16 -15 -16 -15 -16 -16 -16 -16 -16 -16 -16 -16 -16 -17 -17 -18 -18 -18 -17 -18 -18
-15 -15 -15 -15 -15 -15 -15 -15 -15 -15 -15 -15 -15 -15 -15 -15 -15 -15 -15 -16 -15 -16 -16 -16 -16 -16 -16 -16 -16 -16 -16 -16 -17 -17 -17 -17 -17 -17 -18 -18 -18 -18 -18
-15 -15 -15 -15 -15 -15 -15 -15 -15 -15 -16 -16 -16 -16 -15 -15 -15 -16 -16 -16 -15 -15 -15 -16 -16 -16 -16 -16 -16 -16 -16 -17 -17 -17 -17 -17 -18 -18 -18 -19 -19 -19 -19
-16 -16 -16 -16 -16 -16 -16 -15 -16 -16 -16 -16 -16 -16 -16 -16 -15 -16 -16 -16 -16 -15 -16 -16 -16 -16 -16 -16 -16 -17 -17 -17 -17 -17 -18 -17 -18 -18 -19 -18 -19 -19 -19
-16 -16 -16 -16 -16 -16 -16 -16 -16 -16 -16 -16 -17 -17 -16 -16 -16 -16 -16 -16 -16 -16 -16 -16 -16 -16 -16 -17 -17 -17 -17 -17 -17 -17 -17 -18 -18 -18 -18 -18 -19 -19 -19
-16 -17 -16 -16 -16 -16 -16 -16 -16 -16 -16 -16 -16 -17 -17 -16 -16 -16 -16 -16 -16 -16 -16 -16 -16 -16 -16 -17 -17 -17 -17 -17 -18 -17 -17 -17 -17 -18 -18 -19 -19 -19 -19
-17 -17 -16 -16 -17 -16 -16 -16 -16 -16 -17 -17 -17 -17 -17 -17 -16 -16 -16 -16 -16 -16 -16 -16 -16 -17 -17 -17 -17 -17 -17 -18 -18 -18 -18 -18 -18 -18 -19 -19 -19 -20 -20
-16 -17 -17 -17 -16 -16 -16 -16 -16 -16 -17 -17 -17 -17 -17 -18 -17 -17 -17 -17 -16 -17 -17 -17 -17 -17 -17 -17 -17 -17 -17 -18 -18 -18 -18 -19 -19 -18 -19 -19 -20 -20 -20
-16 -16 -17 -17 -17 -16 -16 -16 -16 -16 -16 -17 -17 -17 -17 -17 -17 -17 -17 -17 -17 -17 -17 -17 -17 -17 -17 -17 -17 -18 -18 -17 -19 -18 -19 -18 -18 -18 -19 -20 -20 -20 -20
-16 -16 -17 -17 -16 -15 -16 -16 -17 -17 -17 -16 -16 -16 -16 -17 -17 -17 -18 -18 -18 -18 -18 -17 -18 -18 -18 -18 -18 -18 -18 -18 -18 -18 -19 -19 -19 -20 -20 -20 -20 -21 -21
-16 -16 -17 -17 -16 -16 -17 -16 -16 -17 -16 -16 -16 -16 -16 -16 -17 -17 -17 -17 -18 -18 -17 -18 -18 -18 -18 -18 -18 -18 -18 -18 -18 -19 -19 -19 -20 -20 -21 -20 -21 -21 -21
-16 -16 -16 -16 -16 -16 -16 -16 -16 -16 -16 -16 -16 -16 -16 -17 -17 -17 -17 -17 -17 -17 -17 -18 -18 -18 -18 -18 -18 -18 -18 -18 -19 -20 -20 -20 -20 -21 -21 -21 -21 -22 -22
-17 -17 -17 -17 -17 -17 -16 -16 -16 -16 -17 -17 -17 -17 -17 -16 -16 -16 -17 -17 -17 -17 -17 -18 -18 -18 -18 -19 -19 -19 -19 -19 -20 -20 -20 -21 -21 -21 -22 -22 -22 -22 -22
-17 -17 -17 -17 -18 -17 -17 -17 -17 -17 -17 -17 -17 -17 -17 -17 -16 -17 -17 -17 -17 -17 -18 -18 -19 -19 -19 -19 -19 -20 -20 -20 -21 -21 -21 -22 -22 -22 -22 -22 -22 -23 -23
-18 -18 -18 -16 -16 -17 -18 -18 -17 -17 -17 -17 -17 -17 -17 -17 -18 -18 -19 -19 -19 -19 -19 -20 -20 -20 -20 -20 -20 -21 -21 -21 -21 -21 -21 -21 -22 -22 -22 -23 -23 -23 -23
-18 -18 -18 -17 -18 -18 -18 -18 -18 -18 -17 -18 -18 -18 -19 -19 -20 -19 -20 -20 -20 -21 -21 -21 -21 -21 -22 -22 -22 -21 -21 -21 -22 -22 -22 -22 -22 -22 -22 -22 -23 -23 -24
-19 -18 -18 -18 -18 -19 -19 -19 -19 -19 -19 -19 -19 -19 -20 -20 -20 -21 -21 -21 -21 -21 -21 -21 -22 -22 -22 -21 -22 -22 -22 -22 -22 -22 -23 -23 -23 -23 -23 -23 -24 -25 -25
-20 -20 -20 -20 -20 -20 -20 -21 -20 -20 -20 -20 -20 -20 -20 -21 -21 -21 -21 -21 -21 -22 -22 -22 -22 -22 -22 -23 -23 -23 -23 -23 -23 -23 -23 -23 -23 -23 -25 -25 -26 -27 -28
-21 -21 -21 -21 -21 -21 -21 -21 -21 -21 -21 -21 -21 -21 -21 -22 -22 -22 -22 -22 -22 -22 -23 -23 -23 -23 -23 -23 -23 -23 -23 -24 -24 -24 -24 -24 -25 -25 -27 -28 -29 -29 -30
-21 -22 -22 -21 -21 -21 -21 -21 -21 -21 -22 -22 -22 -22 -22 -22 -22 -22 -23 -23 -23 -23 -23 -23 -24 -24 -24 -24 -24 -24 -24 -25 -25 -25 -26 -27 -28 -29 -30 -30 -31 -31 -32
-22 -22 -22 -22 -22 -22 -22 -22 -22 -22 -22 -22 -22 -22 -22 -22 -22 -23 -23 -23 -23 -24 -24 -24 -24 -24 -24 -25 -25 -25 -26 -26 -27 -28 -29 -30 -31 -31 -32 -32 -33 -34 -35
-23 -23 -23 -23 -22 -23 -23 -23 -23 -23 -23 -23 -23 -23 -23 -24 -24 -24 -24 -24 -24 -24 -25 -25 -25 -25 -26 -26 -27 -28 -29 -30 -30 -31 -31 -32 -33 -34 -35 -35 -36 -37 -38
-23 -23 -23 -23 -23 -23 -24 -24 -24 -24 -24 -24 -25 -25 -25 -25 -25 -25 -25 -25 -25 -25 -26 -26 -27 -28 -29 -29 -30 -31 -31 -32 -32 -33 -34 -34 -36 -37 -38 -38 -39 -40 -40

GFSGL_500_temp_084.txt.gz
Temp
-13 -13 -13 -14 -14 -14 -14 -14 -14 -14 -14 -14 -14 -14 -14 -14 -14 -14 -15 -15 -15 -15 -16 -16 -16 -16 -16 -16 -16 -16 -16 -16 -16 -15 -16 -15 -16 -16 -16 -16 -16 -16 -16
-14 -14 -14 -14 -14 -14 -14 -14 -14 -14 -14 -14 -14 -14 -14 -14 -14 -15 -15 -15 -16 -16 -16 -16 -16 -16 -16 -16 -16 -16 -16 -16 -15 -16 -16 -15 -16 -16 -16 -17 -16 -17 -16
-14 -14 -14 -14 -14 -14 -14 -14 -14 -14 -14 -14 -14 -14 -14 -14 -14 -14 -15 -15 -15 -16 -16 -16 -16 -16 -16 -16 -16 -16 -16 -16 -16 -16 -15 -16 -15 -17 -16 -16 -17 -17 -17
-14 -14 -14 -14 -14 -14 -15 -15 -14 -14 -14 -15 -15 -15 -15 -15 -15 -15 -15 -15 -15 -15 -16 -16 -16 -16 -16 -16 -16 -16 -16 -16 -16 -16 -16 -16 -17 -17 -17 -17 -17 -17 -18
-14 -14 -15 -15 -15 -15 -15 -15 -15 -15 -15 -15 -15 -15 -16 -16 -15 -15 -15 -15 -15 -15 -15 -15 -16 -16 -16 -16 -16 -16 -16 -16 -16 -16 -17 -17 -16 -17 -17 -17 -17 -18 -17
-15 -15 -15 -15 -15 -15 -15 -15 -15 -15 -15 -15 -16 -16 -16 -16 -16 -16 -16 -16 -16 -16 -16 -16 -16 -17 -17 -17 -16 -16 -16 -16 -17 -17 -17 -17 -16 -17 -18 -17 -17 -17 -17
-15 -16 -15 -15 -16 -16 -16 -16 -16 -15 -15 -16 -16 -16 -16 -16 -16 -17 -17 -16 -16 -16 -16 -16 -16 -17 -17 -16 -16 -16 -16 -17 -17 -17 -17 -16 -17 -17 -17 -18 -18 -18 -18
-16 -16 -16 -16 -16 -16 -16 -16 -16 -16 -16 -16 -16 -16 -16 -16 -16 -17 -17 -17 -16 -16 -16 -16 -17 -17 -17 -17 -17 -17 -16 -17 -17 -16 -17 -17 -17 -17 -18 -18 -18 -18 -18
-16 -16 -16 -16 -16 -16 -16 -16 -16 -16 -16 -16 -16 -16 -16 -16 -16 -17 -17 -17 -17 -17 -16 -16 -16 -16 -16 -16 -17 -17 -17 -17 -17 -17 -17 -17 -18 -18 -18 -18 -18 -18 -18
-15 -15 -16 -16 -16 -16 -17 -16 -16 -16 -16 -15 -16 -16 -16 -16 -16 -17 -17 -17 -17 -17 -17 -17 -16 -16 -16 -17 -17 -17 -17 -17 -17 -17 -16 -17 -18 -17 -18 -18 -19 -19 -18
-16 -15 -15 -16 -16 -16 -16 -16 -16 -16 -16 -16 -16 -16 -16 -16 -17 -17 -17 -17 -16 -16 -16 -16 -15 -16 -16 -17 -17 -17 -17 -17 -17 -17 -18 -18 -17 -17 -18 -18 -18 -19 -19
-16 -16 -16 -15 -16 -17 -16 -16 -16 -16 -16 -17 -17 -16 -15 -16 -17 -17 -17 -16 -16 -16 -16 -16 -16 -16 -17 -17 -17 -17 -17 -17 -17 -18 -18 -18 -18 -17 -18 -19 -19 -19 -19
-17 -17 -17 -16 -16 -16 -16 -16 -16 -16 -16 -16 -16 -16 -16 -16 -16 -16 -16 -16 -16 -16 -17 -16 -17 -16 -17 -17 -17 -17 -18 -18 -18 -18 -18 -18 -18 -18 -18 -19 -19 -19 -20
-18 -18 -17 -17 -17 -16 -16 -16 -16 -16 -16 -16 -15 -16 -16 -16 -16 -16 -16 -15 -16 -17 -17 -17 -16 -16 -17 -17 -17 -18 -18 -18 -18 -18 -18 -18 -18 -19 -19 -19 -20 -20 -20
-18 -18 -17 -17 -17 -16 -16 -16 -16 -16 -16 -16 -16 -16 -16 -16 -15 -16 -16 -16 -16 -16 -16 -17 -17 -17 -17 -18 -18 -18 -18 -18 -18 -19 -19 -19 -20 -20 -20 -20 -20 -20 -21
-18 -18 -18 -18 -17 -17 -17 -17 -17 -17 -17 -17 -16 -16 -16 -16 -16 -15 -16 -16 -16 -16 -16 -17 -17 -17 -18 -18 -18 -18 -19 -19 -20 -20 -20 -20 -20 -21 -21 -21 -21 -21 -21
-19 -19 -17 -18 -18 -17 -17 -17 -17 -17 -17 -16 -16 -16 -16 -17 -16 -17 -17 -17 -17 -17 -17 -18 -18 -19 -19 -19 -19 -20 -20 -21 -21 -21 -21 -21 -21 -21 -21 -21 -21 -21 -21
-19 -19 -18 -18 -18 -18 -17 -18 -17 -17 -17 -17 -17 -17 -17 -17 -18 -18 -18 -18 -18 -17 -19 -19 -20 -19 -20 -20 -20 -20 -21 -21 -21 -21 -21 -21 -21 -21 -21 -22 -22 -22 -22
-20 -19 -19 -19 -19 -19 -18 -19 -17 -17 -18 -18 -18 -18 -18 -18 -18 -18 -18 -19 -19 -19 -20 -20 -20 -20 -21 -21 -21 -21 -21 -21 -21 -21 -21 -21 -21 -21 -22 -22 -22 -22 -22
-21 -20 -20 -20 -20 -20 -19 -20 -19 -19 -19 -19 -20 -20 -20 -20 -20 -20 -20 -20 -20 -21 -21 -21 -21 -21 -21 -21 -22 -22 -22 -22 -22 -22 -22 -22 -22 -22 -23 -22 -23 -23 -22
-22 -21 -21 -21 -21 -21 -21 -21 -20 -20 -21 -21 -21 -21 -21 -21 -21 -21 -21 -21 -21 -21 -21 -21 -22 -22 -22 -22 -23 -23 -23 -23 -23 -23 -24 -23 -23 -23 -23 -23 -23 -23 -24
-22 -22 -21 -21 -21 -21 -22 -21 -21 -21 -21 -21 -21 -21 -22 -22 -22 -22 -22 -22 -22 -22 -22 -22 -22 -23 -23 -23 -24 -24 -24 -24 -24 -24 -24 -24 -23 -24 -24 -24 -25 -26 -28
-23 -23 -22 -23 -22 -22 -22 -22 -22 -22 -22 -22 -22 -22 -22 -23 -23 -23 -23 -23 -23 -23 -23 -23 -24 -24 -24 -24 -24 -24 -24 -24 -24 -24 -24 -25 -25 -26 -27 -28 -29 -30 -31
-23 -23 -23 -23 -23 -23 -23 -23 -23 -23 -23 -23 -23 -23 -23 -23 -23 -23 -23 -23 -24 -24 -24 -24 -25 -24 -24 -24 -24 -25 -24 -25 -25 -26 -26 -28 -29 -29 -30 -31 -32 -32 -33
-23 -23 -23 -23 -23 -23 -23 -23 -23 -23 -23 -23 -23 -23 -24 -24 -24 -25 -25 -25 -25 -25 -25 -25 -25 -25 -25 -25 -25 -26 -27 -28 -28 -29 -30 -30 -31 -32 -32 -33 -35 -36 -37
-24 -24 -24 -24 -24 -24 -24 -24 -24 -24 -25 -25 -25 -25 -25 -25 -25 -25 -25 -25 -25 -25 -25 -26 -26 -26 -27 -28 -29 -29 -30 -30 -31 -32 -32 -33 -34 -34 -35 -36 -38 -39 -39

GFSGL_500_temp_087.txt.gz
Temp
-13 -13 -13 -14 -14 -14 -14 -14 -14 -14 -14 -14 -14 -14 -14 -14 -14 -14 -14 -14 -14 -15 -14 -15 -15 -15 -16 -16 -16 -16 -16 -16 -16 -16 -16 -16 -16 -16 -16 -16 -16 -16 -17
-13 -13 -13 -14 -14 -14 -14 -14 -14 -14 -14 -14 -15 -14 -14 -14 -14 -14 -14 -14 -15 -15 -15 -15 -15 -15 -15 -16 -16 -16 -16 -16 -16 -16 -16 -16 -16 -16 -16 -17 -16 -16 -17
-14 -14 -14 -14 -14 -14 -15 -15 -15 -15 -15 -15 -15 -15 -15 -15 -15 -15 -15 -15 -15 -15 -15 -16 -16 -16 -16 -16 -16 -16 -16 -16 -16 -16 -16 -16 -16 -16 -17 -16 -17 -17 -18
-14 -15 -14 -14 -14 -14 -15 -15 -15 -15 -15 -15 -15 -15 -15 -15 -15 -15 -16 -16 -16 -16 -16 -16 -16 -16 -16 -16 -16 -17 -17 -17 -17 -17 -17 -16 -17 -17 -16 -17 -17 -17 -17
-14 -15 -15 -15 -15 -15 -15 -15 -15 -15 -15 -15 -15 -15 -15 -15 -16 -16 -16 -16 -16 -16 -16 -16 -16 -16 -17 -16 -17 -17 -17 -17 -17 -17 -17 -16 -17 -16 -17 -17 -17 -17 -17
-15 -14 -15 -15 -15 -15 -15 -16 -16 -16 -15 -16 -16 -16 -16 -16 -16 -16 -16 -16 -16 -16 -16 -16 -16 -16 -16 -17 -17 -17 -17 -17 -17 -17 -17 -17 -17 -17 -17 -17 -17 -17 -17
-15 -16 -15 -15 -15 -15 -15 -16 -16 -15 -16 -16 -16 -16 -16 -16 -16 -16 -17 -17 -16 -16 -16 -17 -17 -17 -17 -17 -18 -18 -17 -17 -17 -17 -17 -17 -17 -17 -17 -17 -17 -16 -17
-15 -15 -16 -15 -15 -15 -15 -16 -16 -16 -16 -16 -16 -16 -16 -16 -16 -16 -17 -16 -16 -16 -17 -17 -16 -17 -17 -17 -17 -17 -17 -17 -16 -17 -17 -17 -17 -16 -16 -17 -17 -17 -18
-15 -15 -15 -15 -15 -15 -15 -15 -16 -16 -16 -16 -16 -16 -16 -16 -16 -17 -17 -16 -16 -17 -17 -17 -17 -17 -17 -16 -16 -17 -17 -16 -16 -16 -16 -16 -16 -17 -17 -17 -18 -17 -18
-14 -14 -15 -15 -15 -15 -15 -15 -16 -16 -16 -16 -17 -16 -16 -16 -16 -16 -17 -17 -16 -17 -16 -17 -17 -17 -17 -17 -17 -16 -16 -16 -16 -16 -16 -16 -16 -16 -17 -17 -18 -17 -18
-16 -15 -14 -14 -15 -15 -15 -15 -15 -15 -16 -16 -16 -16 -16 -16 -16 -16 -16 -16 -17 -17 -17 -17 -16 -17 -17 -17 -17 -17 -17 -17 -16 -16 -16 -16 -16 -17 -17 -18 -17 -17 -18
-16 -16 -15 -15 -14 -15 -16 -16 -16 -16 -16 -15 -16 -16 -16 -16 -16 -16 -17 -16 -16 -16 -16 -16 -16 -17 -17 -17 -17 -17 -17 -17 -16 -16 -16 -16 -17 -18 -18 -18 -18 -18 -18
-17 -17 -17 -16 -15 -15 -16 -16 -16 -17 -16 -16 -16 -16 -16 -16 -16 -16 -17 -17 -17 -16 -16 -16 -16 -16 -17 -17 -16 -16 -17 -17 -17 -17 -17 -17 -17 -18 -18 -18 -18 -18 -19
-19 -18 -18 -18 -18 -17 -17 -17 -17 -17 -17 -17 -17 -17 -16 -16 -15 -16 -16 -16 -16 -16 -16 -15 -15 -17 -16 -16 -16 -16 -17 -16 -16 -17 -17 -17 -18 -18 -19 -18 -18 -19 -20
-19 -19 -19 -19 -18 -18 -18 -18 -18 -18 -18 -17 -17 -17 -17 -15 -16 -16 -16 -16 -16 -16 -17 -16 -16 -16 -16 -16 -16 -16 -16 -17 -18 -18 -17 -18 -19 -19 -19 -20 -20 -20 -20
-20 -20 -20 -20 -19 -19 -18 -18 -18 -18 -18 -18 -17 -17 -17 -16 -17 -16 -16 -16 -16 -16 -17 -17 -16 -17 -16 -17 -17 -17 -17 -18 -18 -18 -19 -19 -19 -20 -21 -21 -21 -21 -21
-19 -19 -19 -19 -19 -19 -19 -19 -19 -19 -18 -17 -18 -17 -17 -17 -17 -16 -17 -16 -17 -16 -17 -17 -17 -17 -17 -17 -18 -18 -18 -19 -19 -20 -20 -20 -20 -21 -21 -21 -21 -21 -21
-20 -20 -20 -19 -19 -19 -19 -19 -19 -19 -18 -19 -18 -18 -18 -18 -18 -18 -17 -18 -17 -18 -18 -18 -18 -18 -18 -18 -19 -19 -20 -20 -20 -21 -21 -21 -21 -21 -21 -21 -21 -21 -21
-20 -20 -20 -20 -20 -20 -20 -19 -19 -20 -20 -20 -19 -19 -20 -18 -18 -18 -19 -19 -19 -20 -20 -20 -20 -20 -20 -20 -20 -20 -21 -21 -21 -21 -21 -21 -21 -21 -21 -22 -22 -23 -23
-21 -21 -22 -22 -22 -22 -21 -21 -21 -21 -20 -20 -20 -20 -20 -20 -20 -20 -20 -20 -20 -20 -21 -21 -21 -21 -21 -21 -21 -21 -22 -22 -21 -22 -22 -22 -22 -23 -23 -23 -24 -24 -23
-23 -23 -23 -23 -22 -22 -22 -22 -21 -21 -21 -21 -21 -21 -21 -21 -21 -21 -21 -21 -21 -21 -21 -22 -22 -22 -22 -22 -22 -22 -22 -22 -22 -22 -23 -23 -23 -24 -24 -23 -23 -23 -23
-23 -23 -23 -23 -23 -23 -23 -22 -22 -22 -22 -22 -22 -22 -22 -22 -22 -22 -22 -22 -22 -22 -22 -22 -22 -22 -22 -23 -23 -23 -22 -22 -23 -23 -24 -24 -24 -24 -24 -24 -24 -25 -26
-24 -24 -23 -23 -23 -23 -23 -23 -23 -23 -23 -23 -23 -23 -23 -23 -23 -23 -23 -23 -23 -23 -23 -23 -23 -23 -23 -23 -23 -23 -24 -24 -24 -24 -24 -24 -25 -25 -26 -26 -27 -28 -29
-24 -24 -24 -24 -24 -23 -23 -23 -23 -23 -23 -23 -23 -23 -23 -23 -23 -23 -23 -23 -23 -23 -24 -24 -24 -24 -24 -24 -25 -25 -25 -24 -25 -25 -26 -27 -27 -28 -29 -30 -30 -31 -32
-25 -24 -24 -24 -24 -24 -24 -24 -24 -24 -24 -24 -24 -24 -24 -25 -25 -25 -25 -25 -25 -25 -25 -25 -25 -25 -25 -25 -25 -25 -26 -27 -28 -29 -29 -30 -30 -31 -31 -32 -33 -34 -35
-25 -25 -25 -25 -25 -25 -25 -25 -25 -25 -25 -25 -25 -26 -26 -26 -26 -26 -26 -26 -26 -26 -26 -26 -26 -27 -28 -28 -29 -30 -31 -31 -31 -31 -31 -32 -32 -33 -34 -34 -36 -37 -37

GFSGL_500_temp_090.txt.gz
Temp
-14 -14 -14 -14 -14 -14 -14 -14 -14 -14 -14 -14 -14 -14 -14 -14 -14 -14 -14 -14 -14 -14 -14 -14 -15 -16 -16 -16 -16 -16 -15 -15 -15 -17 -16 -17 -16 -16 -16 -16 -16 -16 -17
-14 -13 -14 -14 -14 -14 -14 -14 -14 -14 -15 -14 -15 -15 -14 -14 -14 -14 -14 -15 -15 -15 -15 -15 -15 -15 -15 -16 -16 -16 -16 -16 -16 -16 -16 -16 -16 -16 -16 -16 -16 -17 -17
-14 -14 -14 -14 -14 -14 -14 -14 -15 -15 -15 -15 -15 -15 -15 -15 -15 -15 -15 -15 -15 -15 -15 -15 -16 -16 -16 -16 -16 -16 -16 -16 -16 -16 -16 -16 -16 -16 -16 -16 -16 -16 -17
-14 -15 -14 -14 -15 -15 -15 -15 -15 -15 -15 -15 -15 -15 -15 -15 -15 -15 -15 -16 -16 -16 -16 -16 -16 -16 -16 -16 -16 -16 -16 -16 -16 -16 -16 -16 -16 -16 -16 -16 -16 -17 -17
-14 -14 -15 -15 -15 -15 -15 -15 -15 -15 -15 -15 -15 -16 -16 -15 -16 -16 -16 -16 -16 -16 -16 -16 -16 -16 -16 -17 -17 -17 -17 -17 -17 -17 -16 -17 -16 -17 -18 -17 -17 -17 -17
-15 -15 -15 -15 -14 -15 -15 -15 -15 -15 -16 -16 -16 -16 -16 -16 -16 -16 -16 -16 -17 -16 -16 -16 -16 -17 -17 -17 -17 -17 -17 -17 -17 -17 -17 -17 -17 -17 -17 -17 -17 -17 -17
-15 -15 -15 -15 -15 -15 -15 -15 -15 -15 -15 -16 -16 -16 -16 -16 -16 -16 -17 -16 -16 -17 -17 -17 -16 -17 -17 -17 -17 -17 -17 -17 -17 -17 -17 -17 -17 -17 -17 -17 -17 -17 -17
-16 -15 -15 -15 -15 -15 -15 -15 -15 -15 -15 -16 -16 -16 -16 -16 -17 -17 -16 -16 -16 -16 -16 -17 -17 -16 -17 -17 -17 -17 -17 -17 -17 -17 -17 -17 -17 -17 -17 -15 -17 -17 -17
-15 -15 -15 -15 -15 -15 -15 -15 -15 -15 -15 -15 -16 -16 -16 -16 -17 -17 -17 -16 -16 -16 -16 -16 -17 -17 -17 -18 -17 -17 -17 -17 -17 -17 -17 -17 -17 -16 -16 -17 -17 -17 -17
-15 -15 -15 -15 -15 -15 -15 -16 -15 -15 -15 -15 -15 -15 -16 -16 -17 -17 -17 -17 -16 -16 -16 -16 -17 -16 -17 -17 -17 -17 -17 -17 -17 -17 -17 -17 -17 -17 -17 -17 -17 -17 -17
-16 -15 -15 -14 -14 -15 -15 -16 -16 -16 -15 -15 -15 -15 -15 -16 -16 -16 -17 -17 -16 -16 -16 -16 -16 -16 -16 -17 -17 -17 -17 -17 -16 -16 -16 -16 -17 -17 -16 -16 -17 -17 -17
-16 -16 -16 -15 -15 -14 -14 -15 -15 -15 -16 -16 -16 -16 -16 -16 -16 -16 -16 -16 -17 -16 -16 -16 -16 -16 -16 -17 -17 -17 -17 -17 -16 -16 -16 -16 -16 -16 -17 -17 -17 -17 -17
-17 -16 -16 -17 -17 -17 -16 -16 -15 -15 -16 -16 -16 -16 -17 -17 -16 -16 -16 -16 -17 -16 -17 -16 -16 -16 -17 -17 -16 -16 -16 -17 -17 -17 -16 -17 -17 -17 -17 -17 -17 -17 -18
-18 -18 -18 -17 -17 -17 -17 -17 -18 -17 -17 -17 -17 -17 -18 -17 -17 -17 -17 -16 -16 -17 -16 -15 -15 -16 -17 -17 -17 -16 -16 -15 -16 -16 -16 -16 -17 -17 -17 -18 -18 -18 -18
-19 -19 -19 -19 -19 -19 -19 -18 -18 -18 -18 -18 -18 -18 -18 -18 -18 -16 -16 -17 -17 -17 -17 -16 -16 -17 -17 -16 -16 -17 -16 -17 -16 -16 -16 -17 -17 -17 -17 -18 -19 -19 -20
-20 -19 -19 -19 -19 -19 -19 -19 -19 -19 -18 -19 -18 -18 -19 -19 -18 -18 -17 -18 -17 -18 -17 -17 -17 -16 -17 -17 -16 -17 -17 -17 -17 -17 -18 -18 -18 -18 -18 -19 -20 -21 -21
-20 -20 -20 -20 -20 -19 -19 -19 -19 -19 -19 -19 -19 -19 -19 -19 -19 -19 -18 -18 -18 -18 -18 -17 -17 -17 -18 -17 -17 -17 -18 -18 -18 -19 -19 -19 -19 -20 -20 -21 -21 -21 -21
-20 -20 -20 -20 -20 -20 -19 -19 -19 -19 -19 -19 -19 -19 -19 -19 -19 -19 -20 -19 -18 -18 -18 -18 -18 -18 -19 -19 -19 -19 -19 -20 -20 -20 -21 -21 -21 -21 -21 -21 -21 -21 -21
-20 -20 -20 -20 -20 -20 -20 -20 -20 -20 -20 -20 -20 -21 -21 -21 -20 -20 -20 -20 -20 -19 -20 -20 -20 -20 -20 -20 -20 -20 -20 -21 -21 -21 -21 -21 -22 -22 -22 -22 -22 -22 -22
-20 -20 -21 -21 -21 -21 -21 -21 -21 -21 -22 -22 -22 -22 -22 -21 -21 -21 -21 -21 -21 -21 -21 -21 -21 -21 -21 -21 -21 -21 -21 -21 -21 -21 -22 -22 -22 -22 -22 -22 -22 -22 -22
-22 -23 -23 -23 -23 -23 -24 -23 -23 -23 -23 -23 -23 -23 -23 -23 -22 -22 -22 -22 -22 -22 -22 -22 -22 -22 -22 -22 -22 -22 -22 -22 -22 -22 -22 -22 -22 -23 -23 -23 -23 -23 -23
-24 -24 -25 -25 -25 -24 -24 -24 -24 -23 -23 -23 -23 -23 -23 -23 -23 -23 -23 -23 -23 -23 -23 -23 -23 -23 -23 -23 -23 -23 -23 -23 -23 -23 -23 -23 -24 -24 -24 -24 -24 -24 -24
-25 -25 -25 -25 -25 -25 -24 -24 -24 -24 -24 -24 -23 -23 -23 -24 -24 -24 -24 -23 -23 -23 -23 -23 -23 -23 -23 -23 -24 -24 -24 -24 -24 -24 -24 -24 -24 -24 -24 -25 -26 -26 -27
-25 -25 -25 -25 -25 -25 -25 -25 -25 -25 -24 -24 -24 -24 -24 -24 -24 -24 -24 -24 -24 -24 -24 -24 -24 -24 -24 -24 -25 -25 -25 -25 -25 -25 -25 -25 -26 -27 -27 -28 -29 -30 -30
-26 -26 -26 -26 -25 -25 -25 -25 -25 -25 -25 -25 -25 -25 -25 -25 -25 -25 -25 -25 -25 -25 -26 -26 -26 -26 -26 -26 -25 -25 -25 -26 -27 -27 -28 -29 -30 -31 -31 -31 -31 -31 -32
-27 -27 -26 -26 -26 -26 -26 -26 -26 -26 -26 -26 -26 -26 -26 -26 -26 -26 -26 -26 -27 -27 -26 -26 -26 -26 -27 -27 -28 -28 -29 -30 -31 -32 -32 -32 -32 -32 -32 -32 -33 -34 -34

GFSGL_500_temp_096.txt.gz
Temp
-14 -13 -14 -14 -14 -14 -14 -14 -14 -14 -14 -14 -14 -14 -14 -14 -14 -14 -13 -13 -13 -14 -14 -14 -14 -14 -14 -15 -15 -15 -15 -15 -15 -16 -16 -16 -16 -17 -17 -17 -17 -17 -17
-14 -13 -14 -14 -14 -14 -14 -14 -14 -14 -14 -14 -14 -14 -14 -14 -14 -14 -14 -14 -14 -14 -14 -14 -14 -14 -14 -14 -15 -15 -15 -16 -15 -16 -16 -16 -17 -17 -17 -17 -16 -16 -16
-14 -14 -14 -14 -14 -14 -14 -13 -13 -13 -14 -14 -14 -14 -14 -14 -14 -14 -14 -14 -14 -14 -14 -14 -14 -14 -14 -15 -15 -15 -15 -15 -15 -15 -16 -17 -17 -17 -17 -17 -16 -17 -17
-14 -14 -14 -14 -15 -14 -14 -14 -14 -14 -14 -14 -14 -14 -14 -14 -15 -15 -14 -14 -15 -15 -15 -15 -15 -15 -15 -15 -15 -15 -15 -15 -15 -15 -15 -16 -16 -16 -16 -16 -17 -17 -17
-14 -14 -14 -15 -15 -15 -15 -14 -14 -14 -14 -14 -14 -14 -14 -14 -14 -15 -15 -15 -15 -15 -15 -15 -15 -15 -15 -16 -16 -16 -16 -16 -16 -15 -15 -15 -16 -16 -16 -17 -16 -17 -17
-14 -14 -14 -15 -16 -15 -15 -15 -15 -15 -15 -15 -15 -15 -15 -15 -15 -15 -15 -15 -15 -15 -15 -15 -15 -15 -16 -16 -16 -16 -16 -16 -16 -15 -15 -15 -15 -16 -17 -17 -17 -17 -17
-15 -15 -15 -15 -16 -15 -15 -15 -15 -15 -15 -15 -15 -15 -15 -15 -15 -15 -15 -15 -15 -15 -15 -16 -15 -16 -16 -16 -16 -16 -16 -16 -16 -16 -16 -16 -15 -16 -16 -16 -17 -17 -17
-15 -15 -15 -15 -15 -15 -16 -15 -15 -15 -15 -15 -15 -15 -15 -15 -15 -15 -15 -15 -15 -15 -15 -16 -16 -16 -16 -16 -17 -16 -17 -17 -17 -17 -16 -16 -16 -16 -16 -16 -16 -17 -16
-15 -16 -16 -16 -16 -15 -15 -15 -15 -15 -16 -16 -15 -15 -15 -15 -15 -15 -15 -15 -15 -15 -15 -15 -15 -16 -16 -16 -16 -16 -16 -17 -17 -17 -16 -16 -16 -16 -16 -17 -17 -17 -17
-16 -16 -16 -16 -16 -16 -16 -16 -16 -15 -15 -15 -15 -15 -15 -15 -15 -15 -15 -15 -15 -16 -16 -16 -15 -15 -16 -16 -16 -16 -16 -17 -17 -17 -17 -16 -16 -16 -16 -17 -17 -17 -17
-16 -16 -16 -17 -17 -17 -16 -16 -17 -17 -17 -17 -17 -17 -17 -16 -16 -16 -16 -16 -15 -16 -16 -16 -16 -16 -16 -16 -16 -16 -16 -15 -16 -17 -17 -17 -17 -16 -16 -16 -17 -17 -17
-17 -17 -17 -17 -17 -16 -16 -16 -16 -16 -16 -16 -16 -16 -16 -16 -16 -16 -16 -17 -17 -17 -17 -16 -17 -15 -16 -16 -16 -16 -16 -17 -16 -16 -16 -16 -17 -16 -16 -16 -16 -17 -17
-18 -18 -18 -18 -17 -16 -16 -16 -16 -16 -17 -17 -17 -17 -17 -17 -17 -17 -17 -17 -17 -17 -17 -17 -17 -17 -17 -17 -17 -16 -17 -17 -16 -17 -17 -17 -17 -17 -17 -17 -17 -17 -17
-18 -18 -18 -17 -17 -17 -17 -17 -17 -17 -18 -18 -18 -18 -18 -18 -18 -19 -19 -19 -19 -19 -19 -19 -19 -18 -18 -18 -17 -17 -17 -19 -17 -17 -17 -17 -18 -17 -17 -18 -18 -17 -17
-18 -18 -18 -18 -19 -18 -19 -19 -19 -19 -19 -19 -19 -19 -19 -19 -19 -19 -19 -19 -19 -19 -19 -19 -19 -19 -19 -19 -19 -19 -18 -18 -19 -18 -19 -19 -18 -18 -18 -18 -18 -18 -18
-19 -19 -19 -19 -19 -19 -19 -19 -20 -20 -20 -20 -20 -20 -20 -20 -20 -20 -19 -19 -19 -19 -19 -19 -19 -19 -19 -19 -19 -19 -19 -19 -19 -19 -19 -19 -19 -19 -19 -19 -18 -18 -18
-20 -20 -20 -20 -20 -20 -20 -20 -20 -20 -20 -20 -20 -20 -20 -20 -20 -20 -20 -20 -20 -20 -20 -20 -19 -19 -19 -20 -20 -20 -20 -20 -20 -20 -20 -20 -20 -20 -21 -21 -21 -21 -21
-21 -21 -21 -21 -20 -20 -20 -20 -20 -20 -20 -20 -20 -20 -20 -20 -20 -20 -20 -20 -20 -20 -20 -20 -20 -20 -20 -21 -21 -22 -22 -22 -22 -22 -22 -22 -21 -22 -22 -22 -22 -22 -22
-21 -21 -21 -21 -21 -21 -21 -21 -21 -21 -21 -21 -20 -20 -20 -20 -20 -20 -20 -20 -20 -21 -22 -22 -23 -23 -23 -23 -23 -23 -23 -23 -23 -23 -23 -23 -23 -23 -23 -23 -23 -23 -23
-21 -21 -21 -21 -21 -21 -21 -21 -21 -21 -21 -21 -21 -21 -21 -21 -21 -22 -22 -23 -24 -25 -25 -25 -25 -24 -24 -24 -24 -24 -24 -24 -24 -24 -24 -24 -23 -23 -23 -24 -24 -24 -24
-22 -22 -22 -22 -22 -22 -22 -22 -22 -22 -22 -22 -22 -22 -23 -24 -24 -24 -24 -24 -25 -25 -25 -25 -24 -24 -24 -24 -24 -25 -25 -24 -24 -24 -24 -24 -24 -24 -25 -25 -25 -25 -25
-23 -23 -23 -22 -22 -22 -22 -23 -23 -23 -24 -24 -24 -25 -25 -25 -25 -25 -25 -25 -25 -25 -26 -25 -25 -25 -25 -25 -25 -25 -25 -25 -25 -25 -25 -25 -25 -25 -26 -26 -25 -25 -25
-24 -23 -23 -23 -24 -24 -24 -24 -24 -25 -25 -25 -25 -25 -25 -25 -25 -25 -25 -25 -25 -25 -26 -26 -26 -26 -26 -26 -26 -26 -26 -26 -26 -26 -26 -26 -26 -26 -26 -26 -26 -26 -26
-24 -25 -25 -25 -25 -25 -25 -25 -25 -25 -25 -26 -26 -26 -26 -26 -26 -26 -26 -26 -26 -27 -27 -27 -27 -27 -27 -27 -27 -27 -27 -27 -27 -27 -27 -27 -27 -27 -27 -27 -27 -28 -29
-25 -25 -25 -25 -25 -25 -25 -25 -26 -26 -26 -26 -26 -27 -27 -27 -28 -28 -28 -28 -28 -28 -28 -28 -28 -28 -28 -28 -28 -28 -28 -28 -28 -28 -28 -28 -28 -29 -29 -30 -31 -31 -32
-26 -26 -26 -26 -26 -26 -26 -26 -27 -27 -28 -28 -28 -28 -28 -29 -29 -29 -29 -29 -29 -29 -29 -29 -29 -29 -29 -29 -28 -28 -28 -29 -29 -29 -30 -31 -31 -32 -32 -32 -32 -32 -33

GFSGL_500_temp_099.txt.gz
Temp
-14 -14 -14 -14 -13 -13 -13 -13 -13 -13 -13 -14 -13 -13 -13 -13 -14 -14 -14 -14 -14 -13 -13 -13 -13 -13 -14 -14 -14 -14 -14 -15 -15 -16 -16 -16 -16 -16 -16 -17 -17 -17 -17
-14 -14 -14 -13 -13 -13 -13 -13 -13 -13 -14 -13 -14 -14 -14 -13 -14 -14 -14 -13 -13 -14 -14 -14 -14 -14 -14 -14 -14 -14 -14 -14 -14 -15 -15 -16 -16 -17 -17 -17 -17 -17 -17
-14 -14 -14 -13 -14 -14 -14 -13 -13 -13 -14 -14 -14 -14 -14 -14 -14 -14 -14 -14 -14 -14 -14 -14 -14 -14 -14 -14 -14 -14 -14 -14 -14 -14 -15 -15 -15 -15 -15 -16 -16 -16 -17
-14 -14 -14 -14 -14 -14 -14 -14 -14 -14 -14 -14 -14 -14 -14 -14 -14 -14 -14 -14 -14 -13 -14 -14 -14 -14 -14 -14 -14 -14 -15 -15 -15 -15 -15 -15 -16 -16 -16 -16 -16 -16 -16
-14 -14 -14 -14 -14 -14 -14 -14 -14 -14 -14 -14 -14 -14 -14 -14 -14 -14 -14 -14 -14 -14 -15 -15 -15 -15 -15 -15 -15 -15 -15 -15 -15 -15 -15 -15 -16 -16 -16 -17 -16 -17 -17
-14 -14 -14 -14 -14 -14 -14 -14 -14 -15 -15 -15 -14 -14 -14 -14 -14 -14 -14 -14 -14 -14 -15 -15 -15 -15 -15 -15 -15 -16 -16 -16 -16 -16 -16 -15 -16 -16 -16 -16 -16 -15 -16
-14 -14 -14 -14 -14 -15 -15 -15 -15 -14 -15 -15 -15 -15 -15 -15 -15 -15 -15 -15 -15 -15 -15 -15 -15 -15 -15 -15 -15 -15 -15 -16 -16 -16 -15 -16 -16 -16 -16 -16 -16 -16 -16
-14 -14 -14 -15 -15 -15 -15 -16 -16 -16 -16 -15 -15 -15 -15 -14 -15 -15 -15 -15 -15 -15 -15 -15 -15 -16 -16 -15 -15 -15 -15 -16 -16 -16 -16 -15 -16 -16 -16 -17 -17 -17 -17
-14 -15 -15 -15 -15 -15 -15 -16 -16 -15 -15 -15 -15 -15 -15 -15 -15 -15 -15 -15 -15 -15 -15 -15 -15 -15 -16 -16 -16 -16 -16 -16 -16 -17 -16 -16 -16 -16 -16 -17 -16 -17 -16
-15 -15 -15 -15 -15 -15 -15 -15 -16 -16 -16 -16 -16 -16 -16 -15 -15 -15 -15 -15 -15 -15 -16 -16 -16 -16 -16 -16 -16 -16 -16 -16 -16 -16 -16 -16 -16 -16 -16 -16 -17 -16 -17
-15 -15 -15 -15 -15 -16 -16 -16 -16 -16 -16 -16 -16 -15 -15 -15 -16 -16 -16 -16 -16 -16 -16 -16 -15 -15 -16 -16 -16 -16 -16 -16 -16 -16 -16 -16 -16 -16 -16 -16 -16 -16 -16
-15 -15 -15 -16 -16 -17 -17 -17 -17 -17 -17 -17 -17 -17 -17 -17 -17 -16 -16 -16 -16 -16 -16 -16 -16 -16 -16 -16 -16 -17 -16 -17 -17 -17 -17 -17 -17 -17 -16 -17 -17 -17 -17
-17 -17 -17 -17 -16 -16 -17 -17 -17 -17 -17 -17 -16 -16 -17 -17 -17 -17 -17 -17 -17 -18 -18 -18 -18 -18 -18 -18 -18 -18 -18 -18 -18 -18 -18 -18 -17 -17 -17 -18 -18 -17 -18
-18 -18 -17 -18 -18 -17 -18 -18 -18 -18 -17 -17 -17 -17 -17 -18 -18 -18 -18 -19 -19 -19 -19 -19 -19 -19 -19 -19 -19 -19 -19 -19 -19 -19 -19 -19 -19 -18 -18 -18 -18 -19 -18
-19 -18 -18 -18 -18 -18 -18 -18 -18 -18 -18 -19 -19 -19 -19 -19 -19 -19 -19 -19 -19 -19 -20 -20 -19 -19 -19 -19 -19 -19 -19 -19 -19 -19 -19 -19 -19 -19 -19 -19 -19 -19 -19
-19 -19 -19 -19 -19 -19 -19 -20 -20 -20 -20 -20 -20 -20 -20 -20 -20 -20 -20 -20 -20 -20 -20 -20 -20 -20 -20 -20 -20 -20 -20 -20 -20 -20 -20 -19 -20 -20 -20 -20 -20 -20 -20
-20 -20 -20 -21 -21 -21 -21 -21 -21 -21 -21 -21 -21 -21 -20 -20 -20 -20 -20 -20 -20 -20 -20 -20 -20 -20 -20 -20 -20 -20 -20 -20 -20 -20 -20 -20 -21 -21 -21 -21 -21 -22 -22
-21 -21 -21 -21 -21 -21 -21 -21 -21 -20 -20 -20 -21 -21 -21 -21 -21 -21 -21 -21 -21 -21 -21 -20 -20 -20 -20 -20 -21 -21 -22 -24 -24 -24 -24 -24 -24 -24 -23 -23 -23 -23 -23
-21 -21 -21 -21 -21 -21 -21 -21 -21 -21 -21 -21 -21 -21 -21 -21 -21 -21 -21 -21 -21 -21 -21 -21 -21 -21 -22 -23 -24 -25 -25 -25 -25 -24 -24 -24 -24 -24 -24 -24 -24 -24 -24
-21 -21 -21 -21 -21 -21 -21 -21 -21 -22 -22 -22 -22 -22 -22 -22 -22 -22 -21 -21 -22 -22 -23 -23 -24 -24 -24 -24 -25 -25 -25 -25 -25 -25 -25 -25 -25 -25 -25 -25 -25 -25 -25
-22 -22 -22 -22 -22 -22 -22 -22 -22 -22 -22 -22 -22 -22 -22 -22 -22 -23 -23 -24 -24 -24 -25 -25 -25 -25 -25 -24 -24 -25 -25 -25 -25 -25 -25 -25 -25 -25 -25 -25 -26 -26 -26
-23 -23 -23 -23 -23 -23 -23 -23 -23 -23 -23 -23 -23 -23 -23 -24 -24 -24 -24 -25 -25 -25 -25 -25 -25 -25 -25 -25 -25 -25 -25 -26 -26 -26 -26 -26 -26 -26 -27 -27 -27 -27 -27
-24 -24 -24 -24 -24 -24 -24 -24 -24 -24 -24 -24 -25 -25 -25 -25 -25 -25 -25 -25 -25 -26 -26 -26 -26 -26 -26 -26 -26 -26 -27 -27 -27 -27 -27 -28 -28 -28 -28 -28 -28 -27 -27
-25 -25 -25 -25 -25 -25 -25 -25 -25 -25 -25 -25 -25 -25 -25 -25 -26 -26 -26 -26 -26 -27 -27 -27 -27 -27 -28 -28 -28 -28 -28 -28 -28 -28 -28 -28 -28 -28 -28 -28 -28 -29 -29
-26 -26 -26 -26 -26 -26 -26 -26 -26 -26 -26 -26 -26 -26 -26 -26 -26 -27 -27 -27 -28 -28 -28 -28 -28 -28 -29 -29 -29 -29 -29 -29 -29 -29 -29 -29 -29 -29 -30 -30 -30 -31 -32
-27 -27 -27 -27 -27 -27 -27 -27 -27 -27 -27 -27 -27 -27 -28 -28 -28 -28 -29 -29 -29 -29 -30 -30 -30 -30 -30 -30 -30 -30 -30 -30 -30 -30 -30 -31 -31 -32 -32 -32 -33 -33 -33

GFSGL_500_temp_102.txt.gz
Temp
-16 -15 -15 -14 -14 -14 -14 -14 -14 -14 -14 -14 -14 -14 -14 -14 -13 -13 -13 -13 -13 -14 -13 -14 -14 -14 -14 -14 -14 -14 -14 -14 -14 -15 -14 -14 -14 -15 -15 -15 -15 -16 -16
-15 -15 -15 -15 -14 -14 -14 -14 -14 -14 -14 -14 -14 -14 -14 -14 -14 -14 -14 -13 -13 -13 -13 -13 -14 -14 -14 -14 -14 -14 -14 -14 -14 -14 -14 -14 -14 -15 -15 -15 -16 -16 -16
-15 -15 -15 -15 -14 -14 -14 -14 -14 -14 -14 -14 -14 -14 -14 -14 -14 -14 -14 -14 -14 -14 -14 -14 -14 -14 -14 -14 -14 -14 -14 -14 -14 -14 -15 -15 -15 -15 -15 -15 -15 -16 -16
-15 -15 -14 -14 -14 -14 -14 -13 -14 -14 -14 -14 -14 -14 -14 -14 -15 -15 -15 -15 -14 -14 -15 -15 -14 -14 -14 -14 -14 -14 -14 -14 -15 -14 -15 -15 -15 -15 -15 -15 -15 -16 -16
-14 -14 -14 -14 -14 -14 -14 -14 -14 -14 -14 -14 -14 -14 -14 -14 -14 -14 -14 -14 -15 -15 -15 -15 -15 -15 -14 -14 -14 -14 -14 -14 -15 -15 -15 -15 -15 -16 -16 -16 -16 -16 -16
-14 -14 -15 -14 -14 -14 -14 -14 -14 -14 -14 -14 -14 -14 -14 -14 -14 -14 -15 -15 -15 -15 -15 -15 -15 -15 -15 -15 -15 -15 -15 -15 -15 -15 -15 -15 -16 -16 -16 -15 -15 -15 -16
-15 -15 -15 -14 -14 -14 -14 -14 -14 -15 -14 -14 -14 -14 -14 -14 -15 -15 -15 -15 -15 -15 -15 -15 -15 -15 -15 -15 -15 -15 -15 -15 -15 -15 -15 -15 -15 -16 -16 -16 -16 -16 -16
-15 -14 -14 -14 -14 -14 -14 -14 -15 -15 -15 -15 -15 -15 -14 -15 -15 -15 -15 -15 -15 -15 -15 -15 -15 -15 -15 -15 -15 -15 -15 -15 -15 -15 -15 -15 -15 -15 -15 -16 -16 -16 -16
-14 -14 -14 -14 -14 -14 -15 -15 -15 -15 -15 -15 -15 -15 -15 -15 -15 -15 -15 -14 -15 -14 -14 -14 -15 -15 -15 -15 -15 -15 -16 -15 -15 -15 -15 -15 -15 -16 -15 -16 -16 -16 -16
-15 -15 -14 -15 -15 -14 -15 -15 -15 -15 -15 -15 -15 -15 -15 -15 -16 -16 -16 -15 -15 -15 -15 -15 -16 -16 -15 -15 -15 -15 -16 -16 -16 -15 -15 -16 -16 -16 -16 -16 -16 -16 -16
-15 -15 -14 -15 -14 -15 -15 -15 -16 -16 -16 -16 -16 -15 -15 -15 -15 -16 -16 -16 -16 -16 -16 -16 -16 -16 -16 -17 -16 -16 -16 -17 -16 -17 -16 -17 -17 -16 -16 -16 -16 -16 -17
-15 -14 -14 -14 -14 -15 -15 -15 -15 -16 -16 -16 -16 -16 -16 -16 -16 -16 -16 -17 -17 -17 -16 -16 -16 -16 -16 -16 -16 -16 -17 -17 -17 -17 -17 -17 -17 -17 -17 -17 -17 -18 -18
-17 -16 -16 -15 -15 -15 -15 -16 -16 -16 -17 -17 -17 -17 -17 -17 -17 -17 -17 -17 -17 -17 -17 -17 -17 -17 -17 -17 -17 -17 -17 -18 -18 -18 -18 -18 -18 -18 -18 -19 -19 -19 -19
-17 -17 -17 -17 -17 -17 -17 -17 -17 -17 -17 -18 -18 -17 -17 -17 -17 -17 -17 -17 -18 -18 -18 -18 -19 -19 -19 -19 -19 -19 -19 -19 -19 -19 -19 -19 -19 -19 -19 -19 -19 -19 -19
-19 -19 -19 -18 -18 -18 -18 -18 -18 -18 -18 -18 -18 -18 -18 -18 -18 -18 -18 -19 -19 -19 -19 -19 -19 -19 -19 -19 -20 -20 -20 -20 -20 -20 -20 -20 -20 -20 -20 -20 -20 -20 -20
-20 -20 -20 -20 -20 -20 -19 -19 -19 -19 -19 -19 -19 -19 -19 -19 -19 -19 -20 -20 -20 -20 -20 -20 -20 -20 -20 -20 -20 -20 -20 -20 -20 -20 -20 -20 -20 -20 -20 -20 -20 -20 -21
-20 -20 -20 -20 -20 -20 -20 -20 -20 -20 -20 -20 -20 -20 -20 -20 -20 -20 -20 -20 -20 -20 -20 -21 -21 -21 -21 -20 -20 -20 -20 -20 -20 -20 -20 -20 -20 -20 -21 -22 -23 -24 -24
-21 -21 -21 -21 -21 -21 -21 -21 -21 -21 -21 -21 -21 -21 -20 -20 -20 -20 -20 -20 -21 -21 -21 -21 -21 -21 -21 -21 -21 -21 -21 -20 -21 -21 -21 -22 -23 -24 -24 -25 -25 -24 -24
-22 -22 -22 -21 -21 -21 -21 -21 -21 -21 -21 -21 -21 -21 -21 -21 -21 -21 -21 -21 -21 -21 -21 -21 -21 -21 -21 -21 -21 -22 -22 -23 -24 -24 -24 -24 -25 -24 -24 -24 -25 -25 -25
-22 -22 -22 -22 -22 -22 -21 -21 -21 -21 -21 -21 -21 -21 -21 -21 -21 -22 -22 -22 -22 -22 -22 -22 -22 -22 -22 -23 -23 -24 -24 -25 -24 -25 -25 -25 -24 -25 -25 -25 -25 -25 -25
-22 -22 -22 -22 -22 -22 -22 -22 -22 -22 -22 -22 -22 -22 -22 -22 -22 -22 -22 -22 -22 -22 -23 -23 -24 -24 -24 -24 -24 -24 -25 -25 -25 -25 -25 -25 -25 -25 -25 -26 -26 -26 -26
-23 -23 -23 -23 -22 -23 -23 -23 -23 -23 -23 -23 -23 -23 -23 -23 -23 -23 -23 -23 -24 -24 -24 -24 -24 -25 -25 -25 -25 -25 -25 -26 -26 -26 -26 -26 -26 -26 -26 -27 -27 -27 -27
-24 -24 -24 -24 -24 -24 -24 -24 -24 -24 -24 -24 -24 -24 -24 -24 -24 -24 -25 -25 -25 -25 -25 -25 -25 -25 -25 -26 -26 -26 -27 -27 -27 -27 -28 -28 -28 -28 -28 -28 -28 -28 -28
-25 -25 -25 -25 -25 -25 -25 -25 -25 -25 -25 -25 -25 -25 -25 -25 -25 -25 -25 -25 -25 -25 -25 -25 -26 -26 -26 -27 -27 -28 -28 -28 -28 -29 -29 -29 -29 -29 -29 -30 -30 -30 -30
-26 -26 -26 -26 -26 -26 -26 -26 -26 -26 -26 -26 -26 -26 -26 -26 -26 -26 -26 -26 -26 -26 -27 -27 -27 -28 -28 -29 -29 -29 -30 -30 -30 -30 -30 -30 -31 -31 -31 -31 -31 -31 -32
-28 -28 -27 -27 -27 -27 -27 -27 -27 -27 -27 -27 -27 -27 -27 -27 -27 -28 -28 -28 -28 -29 -29 -29 -30 -30 -31 -31 -31 -31 -31 -31 -32 -32 -32 -32 -32 -32 -33 -33 -33 -33 -33

GFSGL_500_temp_105.txt.gz
Temp
-15 -15 -15 -15 -14 -14 -15 -14 -14 -14 -14 -14 -14 -14 -13 -13 -13 -13 -13 -13 -13 -14 -14 -14 -14 -14 -14 -14 -14 -14 -13 -14 -14 -14 -14 -14 -14 -14 -14 -14 -14 -15 -15
-16 -15 -15 -15 -15 -14 -15 -15 -14 -14 -14 -14 -14 -14 -14 -14 -14 -14 -14 -13 -14 -14 -14 -14 -14 -14 -14 -14 -14 -14 -14 -14 -13 -14 -14 -14 -14 -14 -14 -14 -14 -14 -14
-15 -15 -15 -15 -14 -14 -14 -15 -14 -14 -14 -14 -14 -14 -14 -14 -14 -14 -14 -14 -14 -14 -14 -14 -14 -14 -14 -14 -14 -14 -14 -14 -14 -14 -14 -14 -14 -14 -14 -15 -15 -15 -15
-15 -15 -15 -15 -15 -14 -15 -15 -15 -14 -14 -14 -14 -14 -14 -14 -14 -14 -14 -14 -14 -14 -14 -14 -14 -14 -14 -14 -14 -15 -14 -14 -14 -14 -15 -14 -15 -15 -15 -15 -15 -15 -15
-15 -15 -15 -15 -15 -14 -15 -15 -15 -14 -14 -14 -14 -14 -14 -14 -14 -14 -14 -14 -14 -15 -15 -15 -15 -15 -15 -15 -15 -15 -15 -15 -15 -15 -15 -15 -15 -15 -15 -15 -15 -15 -15
-15 -15 -15 -14 -15 -15 -15 -15 -15 -14 -14 -14 -14 -14 -14 -14 -14 -14 -14 -15 -15 -15 -15 -15 -15 -15 -15 -15 -15 -15 -15 -15 -15 -15 -15 -15 -16 -16 -16 -15 -15 -16 -16
-15 -15 -15 -15 -15 -15 -15 -15 -15 -14 -14 -14 -14 -13 -13 -14 -14 -15 -15 -15 -15 -15 -15 -15 -15 -15 -15 -15 -15 -15 -15 -15 -15 -15 -15 -15 -15 -15 -15 -15 -16 -16 -15
-15 -15 -15 -15 -15 -15 -14 -14 -14 -14 -14 -14 -15 -15 -15 -15 -15 -15 -15 -15 -15 -14 -15 -15 -15 -15 -14 -15 -15 -15 -15 -15 -15 -15 -15 -15 -15 -15 -15 -15 -15 -16 -16
-15 -15 -15 -14 -15 -15 -14 -14 -14 -14 -14 -14 -15 -15 -15 -15 -15 -15 -15 -15 -15 -15 -15 -15 -15 -15 -15 -15 -15 -15 -15 -15 -15 -15 -15 -15 -15 -15 -16 -15 -16 -16 -16
-15 -15 -15 -15 -14 -15 -15 -14 -14 -14 -14 -15 -15 -15 -15 -15 -16 -16 -16 -15 -15 -15 -15 -15 -15 -15 -16 -16 -16 -16 -16 -16 -15 -15 -16 -16 -16 -16 -16 -16 -16 -16 -16
-15 -14 -14 -15 -14 -14 -14 -15 -14 -14 -15 -15 -15 -15 -15 -15 -16 -16 -15 -16 -15 -15 -16 -15 -15 -16 -15 -15 -16 -16 -16 -16 -16 -16 -16 -16 -16 -16 -16 -17 -16 -17 -17
-14 -15 -14 -14 -15 -15 -15 -14 -14 -15 -15 -14 -15 -15 -15 -16 -16 -16 -16 -16 -16 -16 -16 -16 -15 -15 -15 -16 -16 -16 -16 -16 -16 -16 -16 -17 -17 -17 -17 -17 -18 -18 -18
-16 -15 -15 -14 -14 -14 -14 -14 -14 -15 -15 -15 -15 -15 -15 -16 -16 -16 -16 -16 -17 -17 -16 -16 -16 -16 -16 -16 -17 -17 -17 -17 -17 -17 -17 -18 -18 -18 -18 -18 -18 -18 -19
-17 -17 -17 -16 -16 -16 -15 -15 -15 -15 -15 -15 -15 -16 -16 -16 -17 -17 -18 -18 -17 -18 -18 -17 -17 -17 -17 -17 -17 -17 -18 -18 -18 -18 -18 -19 -19 -19 -19 -19 -19 -19 -19
-19 -18 -18 -17 -17 -17 -17 -17 -17 -17 -17 -17 -17 -17 -17 -17 -17 -18 -18 -18 -18 -18 -18 -18 -18 -18 -19 -19 -19 -19 -19 -19 -19 -20 -20 -20 -20 -20 -20 -20 -20 -20 -20
-20 -20 -20 -19 -19 -19 -19 -19 -18 -18 -18 -18 -18 -18 -18 -18 -18 -18 -19 -19 -19 -19 -19 -19 -19 -20 -20 -20 -20 -20 -20 -20 -20 -20 -20 -20 -20 -20 -20 -20 -20 -20 -20
-20 -20 -20 -20 -20 -19 -20 -20 -20 -19 -19 -19 -19 -19 -19 -19 -19 -20 -20 -20 -20 -20 -20 -20 -20 -20 -20 -20 -20 -20 -20 -20 -20 -20 -20 -20 -20 -21 -21 -20 -20 -21 -22
-21 -21 -21 -21 -21 -20 -21 -21 -21 -20 -21 -21 -21 -21 -21 -20 -20 -20 -20 -20 -20 -20 -20 -20 -20 -20 -20 -20 -20 -20 -20 -20 -21 -21 -21 -21 -21 -21 -21 -22 -23 -23 -24
-22 -22 -22 -22 -21 -21 -21 -21 -21 -21 -21 -21 -21 -21 -21 -21 -21 -21 -21 -21 -20 -20 -20 -20 -20 -21 -21 -21 -21 -21 -21 -21 -21 -21 -21 -22 -23 -23 -23 -24 -24 -25 -25
-22 -22 -22 -22 -22 -22 -22 -22 -22 -22 -22 -21 -21 -21 -21 -21 -21 -21 -21 -21 -21 -21 -21 -21 -21 -22 -22 -22 -22 -22 -22 -22 -22 -23 -23 -24 -24 -24 -24 -24 -25 -25 -25
-23 -23 -23 -23 -22 -22 -22 -22 -22 -22 -22 -22 -22 -22 -21 -22 -21 -21 -21 -21 -22 -22 -22 -22 -22 -22 -22 -22 -22 -22 -23 -23 -24 -24 -24 -25 -25 -25 -25 -25 -25 -26 -26
-23 -23 -23 -23 -23 -23 -23 -23 -23 -23 -23 -22 -22 -22 -22 -22 -23 -23 -23 -23 -23 -23 -23 -23 -23 -23 -23 -23 -24 -24 -24 -24 -25 -25 -25 -25 -26 -26 -26 -27 -27 -27 -27
-24 -24 -24 -24 -24 -24 -24 -24 -24 -24 -24 -24 -24 -24 -24 -24 -24 -24 -24 -24 -24 -24 -24 -24 -24 -25 -25 -25 -25 -25 -25 -25 -26 -26 -26 -27 -27 -27 -28 -28 -28 -29 -29
-25 -25 -25 -25 -25 -25 -25 -25 -25 -25 -25 -25 -25 -25 -25 -25 -25 -25 -25 -25 -25 -25 -25 -25 -25 -26 -26 -26 -26 -26 -26 -27 -27 -28 -28 -29 -29 -29 -29 -30 -30 -30 -30
-27 -27 -26 -26 -26 -26 -26 -26 -26 -26 -26 -26 -26 -26 -26 -26 -26 -26 -26 -26 -26 -26 -26 -26 -27 -27 -27 -27 -28 -28 -28 -29 -29 -30 -30 -30 -31 -31 -31 -31 -32 -32 -32
-28 -28 -28 -27 -27 -27 -27 -27 -27 -27 -27 -27 -27 -27 -27 -27 -27 -27 -27 -28 -28 -28 -28 -28 -29 -29 -29 -30 -30 -30 -30 -31 -31 -31 -32 -32 -32 -32 -33 -33 -33 -33 -34

GFSGL_500_temp_108.txt.gz
Temp
-12 -13 -14 -15 -15 -15 -15 -15 -15 -14 -14 -14 -14 -14 -14 -14 -13 -13 -13 -13 -13 -13 -13 -13 -14 -14 -14 -13 -14 -14 -14 -14 -14 -14 -14 -14 -14 -14 -14 -14 -14 -14 -14
-14 -14 -15 -15 -15 -15 -15 -15 -15 -15 -15 -14 -14 -14 -14 -14 -14 -14 -13 -13 -13 -14 -13 -13 -14 -14 -14 -14 -14 -14 -14 -14 -14 -15 -14 -14 -14 -14 -14 -14 -14 -14 -14
-14 -15 -15 -15 -15 -16 -15 -15 -16 -15 -15 -15 -15 -14 -14 -14 -14 -14 -14 -14 -14 -14 -14 -14 -14 -14 -14 -13 -14 -14 -14 -14 -14 -14 -14 -14 -14 -14 -14 -14 -15 -15 -15
-15 -15 -15 -16 -16 -15 -15 -15 -15 -15 -15 -15 -15 -15 -14 -14 -14 -14 -14 -14 -14 -14 -14 -14 -14 -14 -14 -14 -14 -14 -14 -14 -14 -14 -14 -14 -14 -14 -14 -15 -15 -15 -15
-15 -15 -16 -16 -16 -15 -15 -15 -15 -15 -15 -15 -15 -15 -14 -14 -14 -14 -14 -14 -14 -14 -14 -14 -14 -14 -14 -14 -14 -14 -14 -14 -14 -14 -15 -15 -15 -15 -15 -15 -15 -15 -16
-15 -15 -15 -15 -15 -15 -15 -15 -15 -15 -15 -15 -15 -15 -14 -14 -14 -14 -14 -14 -14 -14 -14 -14 -14 -14 -14 -14 -14 -14 -14 -14 -14 -14 -14 -15 -15 -15 -15 -15 -16 -16 -16
-17 -16 -16 -15 -15 -15 -15 -15 -15 -15 -15 -15 -15 -15 -15 -15 -15 -15 -15 -14 -14 -14 -14 -14 -14 -14 -15 -15 -15 -15 -15 -15 -15 -15 -15 -15 -15 -15 -15 -15 -16 -16 -16
-16 -16 -16 -16 -15 -15 -15 -15 -15 -14 -15 -15 -15 -14 -14 -14 -15 -16 -15 -15 -15 -14 -15 -15 -15 -15 -15 -15 -15 -15 -15 -15 -15 -15 -15 -15 -15 -15 -16 -16 -15 -16 -16
-16 -16 -16 -16 -16 -15 -15 -15 -15 -15 -14 -15 -14 -14 -14 -14 -15 -16 -16 -15 -15 -15 -15 -15 -15 -15 -15 -15 -15 -15 -15 -15 -15 -15 -15 -16 -16 -16 -16 -16 -16 -16 -16
-16 -16 -16 -15 -15 -14 -14 -15 -15 -15 -15 -15 -14 -14 -14 -15 -14 -16 -16 -15 -15 -15 -16 -15 -15 -15 -15 -16 -15 -15 -15 -15 -15 -16 -16 -16 -16 -16 -16 -16 -16 -16 -16
-15 -14 -15 -15 -14 -15 -15 -13 -15 -14 -15 -14 -14 -15 -14 -14 -15 -15 -16 -16 -16 -16 -16 -16 -16 -16 -16 -15 -16 -15 -16 -16 -16 -16 -16 -16 -16 -17 -16 -16 -16 -17 -17
-16 -16 -16 -15 -16 -15 -14 -14 -13 -14 -14 -14 -14 -15 -14 -14 -14 -15 -15 -15 -15 -15 -15 -15 -15 -16 -16 -15 -15 -16 -16 -17 -16 -16 -17 -17 -17 -16 -17 -17 -17 -17 -18
-17 -16 -16 -15 -15 -15 -14 -15 -14 -14 -14 -14 -15 -14 -14 -14 -15 -16 -15 -15 -16 -15 -15 -15 -15 -16 -16 -16 -16 -17 -17 -17 -17 -17 -17 -17 -17 -18 -18 -18 -18 -18 -18
-18 -18 -17 -17 -17 -16 -15 -14 -14 -14 -15 -15 -15 -15 -15 -15 -15 -15 -15 -16 -15 -15 -15 -15 -16 -16 -16 -17 -17 -17 -17 -17 -17 -18 -18 -18 -18 -19 -19 -19 -19 -19 -19
-20 -19 -19 -18 -18 -17 -17 -17 -17 -17 -17 -16 -16 -16 -15 -15 -15 -14 -15 -15 -15 -16 -16 -16 -17 -17 -17 -17 -18 -18 -18 -18 -19 -19 -19 -19 -19 -19 -19 -19 -19 -19 -19
-20 -20 -20 -20 -20 -20 -19 -18 -18 -18 -18 -18 -17 -18 -18 -18 -17 -17 -17 -17 -17 -18 -18 -18 -18 -18 -18 -18 -18 -19 -19 -19 -19 -19 -19 -19 -19 -19 -19 -19 -19 -20 -20
-21 -21 -21 -20 -20 -20 -20 -20 -20 -20 -20 -20 -20 -20 -19 -19 -19 -19 -18 -18 -18 -18 -18 -19 -19 -20 -19 -19 -19 -20 -20 -20 -20 -20 -20 -20 -20 -20 -20 -20 -20 -21 -21
-22 -22 -22 -21 -21 -21 -21 -20 -20 -20 -20 -20 -20 -20 -20 -20 -20 -20 -20 -20 -20 -20 -20 -20 -20 -20 -20 -20 -20 -20 -20 -20 -20 -20 -20 -20 -20 -21 -21 -21 -21 -21 -21
-23 -22 -22 -22 -22 -22 -22 -22 -21 -21 -21 -21 -21 -21 -21 -21 -21 -21 -20 -20 -20 -20 -20 -20 -20 -20 -21 -21 -20 -20 -21 -21 -20 -21 -21 -21 -21 -22 -22 -22 -22 -22 -22
-23 -23 -23 -23 -23 -22 -22 -22 -22 -22 -22 -22 -22 -22 -22 -22 -21 -21 -21 -21 -21 -21 -21 -21 -21 -21 -21 -21 -21 -21 -21 -21 -21 -22 -22 -22 -22 -22 -23 -23 -23 -24 -24
-23 -23 -23 -23 -23 -23 -23 -23 -23 -22 -22 -22 -22 -22 -22 -22 -22 -22 -22 -22 -22 -22 -22 -22 -22 -22 -22 -22 -22 -22 -22 -23 -23 -23 -23 -23 -23 -23 -24 -25 -25 -25 -25
-24 -24 -24 -24 -24 -23 -23 -23 -23 -23 -23 -23 -23 -23 -23 -23 -23 -23 -23 -22 -22 -22 -22 -23 -23 -23 -23 -23 -23 -23 -23 -23 -24 -24 -24 -24 -25 -25 -26 -26 -26 -26 -26
-25 -25 -25 -25 -25 -24 -24 -24 -24 -24 -24 -24 -24 -24 -24 -24 -24 -24 -24 -24 -23 -23 -24 -24 -24 -24 -24 -24 -24 -24 -25 -25 -25 -25 -26 -26 -26 -26 -27 -27 -27 -28 -28
-26 -26 -26 -26 -26 -26 -26 -26 -26 -25 -25 -25 -25 -25 -25 -25 -25 -25 -25 -25 -25 -25 -25 -25 -25 -25 -25 -25 -26 -26 -26 -26 -27 -27 -27 -27 -27 -28 -28 -28 -29 -29 -30
-28 -28 -28 -28 -27 -27 -27 -27 -27 -27 -27 -27 -27 -27 -27 -27 -26 -26 -26 -26 -26 -26 -26 -26 -26 -26 -27 -27 -27 -27 -27 -28 -28 -28 -29 -29 -29 -30 -30 -30 -31 -31 -31
-29 -29 -29 -29 -29 -29 -28 -28 -28 -28 -28 -28 -28 -27 -27 -27 -27 -27 -27 -27 -27 -27 -27 -28 -28 -28 -28 -28 -29 -29 -29 -30 -30 -30 -31 -31 -32 -32 -32 -33 -33 -33 -33

GFSGL_500_temp_111.txt.gz
Temp
-12 -11 -12 -13 -13 -13 -13 -13 -14 -15 -15 -15 -15 -14 -15 -14 -14 -14 -14 -14 -13 -13 -14 -14 -14 -14 -14 -14 -14 -14 -14 -14 -14 -14 -14 -14 -14 -14 -14 -14 -14 -15 -15
-13 -12 -13 -13 -13 -14 -13 -14 -14 -15 -15 -15 -15 -15 -15 -14 -14 -14 -14 -14 -13 -13 -13 -13 -14 -13 -14 -14 -14 -14 -14 -14 -14 -14 -14 -14 -14 -14 -14 -14 -14 -14 -15
-13 -13 -13 -13 -13 -14 -14 -14 -14 -15 -15 -16 -15 -15 -15 -15 -14 -14 -14 -14 -14 -13 -13 -13 -13 -14 -14 -14 -14 -14 -13 -14 -14 -14 -14 -15 -14 -14 -14 -14 -14 -14 -14
-14 -13 -13 -13 -14 -14 -14 -15 -15 -15 -15 -15 -16 -16 -15 -15 -15 -14 -15 -14 -14 -14 -14 -14 -14 -13 -13 -13 -13 -14 -14 -14 -14 -14 -14 -14 -14 -14 -14 -14 -14 -15 -15
-14 -14 -14 -14 -15 -15 -15 -15 -16 -16 -15 -15 -15 -16 -15 -15 -15 -15 -15 -14 -14 -14 -14 -14 -14 -14 -14 -14 -14 -14 -14 -14 -14 -14 -14 -14 -14 -14 -14 -14 -15 -15 -15
-14 -14 -15 -15 -15 -15 -15 -16 -15 -15 -15 -15 -15 -16 -16 -16 -15 -15 -15 -14 -14 -14 -14 -14 -14 -14 -14 -14 -14 -14 -14 -14 -14 -14 -14 -15 -15 -15 -15 -15 -15 -15 -15
-15 -15 -15 -15 -15 -16 -16 -15 -15 -15 -15 -14 -15 -15 -16 -16 -15 -15 -14 -14 -14 -14 -14 -15 -15 -15 -15 -15 -14 -14 -14 -14 -15 -15 -15 -15 -15 -15 -15 -15 -15 -15 -15
-15 -15 -15 -15 -15 -16 -16 -14 -15 -15 -15 -15 -15 -15 -15 -15 -15 -15 -14 -14 -15 -15 -15 -15 -15 -15 -15 -15 -15 -15 -15 -15 -15 -15 -15 -15 -15 -15 -15 -15 -15 -15 -15
-15 -16 -16 -16 -16 -16 -15 -16 -16 -16 -15 -15 -15 -15 -15 -15 -15 -15 -14 -15 -15 -15 -16 -15 -15 -15 -15 -15 -15 -15 -15 -15 -15 -15 -15 -15 -15 -16 -16 -16 -16 -16 -16
-15 -15 -16 -16 -16 -16 -15 -14 -15 -15 -15 -15 -15 -15 -15 -15 -15 -15 -14 -14 -15 -15 -15 -15 -15 -15 -16 -16 -16 -15 -15 -15 -15 -15 -15 -16 -16 -16 -16 -17 -17 -17 -17
-16 -16 -16 -16 -15 -15 -14 -15 -15 -14 -15 -15 -15 -15 -15 -14 -14 -15 -15 -15 -15 -15 -15 -16 -16 -16 -16 -16 -16 -16 -16 -15 -16 -16 -16 -16 -16 -17 -17 -17 -17 -17 -17
-17 -17 -16 -16 -16 -16 -15 -16 -15 -15 -15 -15 -15 -15 -15 -14 -15 -15 -15 -14 -15 -15 -15 -16 -17 -16 -16 -15 -16 -16 -16 -16 -16 -16 -16 -16 -16 -16 -16 -17 -17 -17 -17
-18 -18 -18 -17 -17 -17 -16 -15 -16 -15 -15 -15 -15 -15 -15 -15 -15 -15 -15 -14 -15 -15 -15 -16 -16 -16 -16 -15 -16 -16 -16 -16 -16 -16 -16 -16 -16 -17 -17 -17 -17 -17 -17
-19 -18 -18 -18 -18 -18 -18 -18 -18 -17 -17 -16 -16 -16 -16 -15 -15 -15 -15 -15 -15 -15 -16 -16 -16 -16 -16 -16 -16 -16 -16 -16 -16 -16 -17 -17 -18 -18 -17 -17 -17 -18 -18
-18 -18 -18 -19 -19 -19 -18 -18 -18 -18 -18 -18 -18 -17 -18 -17 -16 -16 -15 -15 -15 -15 -16 -15 -16 -16 -15 -16 -16 -15 -17 -17 -18 -18 -18 -18 -18 -18 -18 -19 -19 -19 -19
-19 -19 -19 -19 -19 -19 -20 -20 -20 -19 -19 -18 -18 -18 -18 -18 -18 -18 -17 -17 -16 -16 -16 -16 -16 -17 -17 -17 -17 -17 -18 -18 -18 -21 -20 -19 -19 -19 -19 -19 -19 -19 -19
-21 -21 -21 -21 -20 -20 -20 -20 -20 -20 -21 -21 -20 -20 -20 -19 -19 -19 -18 -18 -18 -18 -18 -18 -18 -18 -18 -18 -18 -19 -19 -19 -21 -22 -21 -20 -20 -20 -20 -20 -20 -20 -20
-22 -22 -22 -22 -22 -22 -22 -21 -21 -21 -21 -21 -21 -21 -21 -21 -21 -20 -20 -20 -20 -20 -20 -20 -20 -20 -20 -20 -21 -22 -22 -22 -21 -21 -20 -20 -20 -20 -20 -20 -20 -20 -20
-23 -23 -23 -23 -23 -23 -23 -22 -22 -22 -22 -22 -22 -22 -21 -21 -21 -21 -21 -21 -21 -21 -21 -21 -21 -21 -22 -22 -22 -21 -21 -21 -21 -21 -21 -21 -20 -21 -21 -21 -21 -21 -21
-24 -24 -23 -23 -23 -23 -23 -23 -23 -22 -22 -22 -22 -22 -22 -22 -22 -22 -22 -22 -22 -22 -21 -21 -22 -22 -22 -22 -22 -21 -21 -21 -21 -21 -21 -21 -21 -21 -21 -21 -22 -22 -22
-24 -24 -24 -24 -23 -23 -23 -23 -23 -23 -23 -23 -23 -23 -23 -23 -22 -22 -22 -22 -22 -22 -22 -22 -22 -22 -22 -22 -22 -22 -22 -22 -22 -22 -22 -22 -22 -22 -22 -23 -23 -23 -24
-25 -25 -26 -25 -25 -24 -24 -24 -24 -24 -24 -23 -23 -23 -23 -23 -23 -23 -23 -23 -23 -23 -23 -23 -23 -23 -23 -23 -23 -23 -23 -23 -23 -23 -23 -23 -23 -23 -24 -24 -24 -24 -25
-25 -25 -25 -26 -26 -26 -26 -25 -25 -25 -25 -25 -25 -24 -24 -24 -24 -24 -24 -24 -24 -24 -24 -23 -23 -23 -24 -24 -24 -24 -24 -24 -24 -24 -24 -25 -25 -25 -25 -25 -26 -26 -26
-27 -27 -27 -27 -27 -27 -28 -27 -27 -26 -26 -26 -26 -26 -26 -25 -25 -25 -25 -25 -25 -25 -25 -25 -25 -25 -25 -25 -25 -25 -25 -25 -25 -25 -26 -26 -26 -26 -26 -27 -27 -28 -28
-29 -29 -29 -29 -28 -28 -29 -29 -29 -29 -28 -28 -28 -27 -27 -27 -27 -27 -27 -27 -27 -26 -26 -26 -26 -27 -26 -26 -26 -26 -26 -27 -27 -27 -27 -27 -27 -28 -28 -29 -29 -30 -30
-31 -31 -31 -31 -30 -30 -30 -30 -30 -30 -30 -30 -29 -29 -29 -29 -29 -28 -28 -28 -28 -28 -28 -28 -28 -28 -28 -28 -28 -28 -28 -28 -28 -28 -29 -29 -30 -30 -31 -31 -32 -32 -33

GFSGL_500_temp_114.txt.gz
Temp
-13 -12 -12 -11 -12 -12 -13 -13 -14 -14 -13 -14 -14 -15 -15 -15 -15 -14 -14 -14 -14 -14 -14 -14 -13 -13 -14 -14 -14 -14 -14 -14 -14 -14 -14 -14 -14 -14 -14 -14 -14 -14 -14
-14 -13 -12 -12 -13 -13 -13 -13 -14 -14 -14 -14 -15 -15 -15 -15 -15 -14 -14 -14 -14 -14 -14 -14 -14 -14 -13 -14 -14 -14 -14 -14 -14 -14 -14 -14 -14 -14 -14 -14 -15 -15 -14
-13 -13 -13 -13 -13 -13 -13 -14 -14 -15 -15 -16 -15 -15 -16 -15 -15 -15 -14 -14 -14 -14 -14 -14 -14 -14 -14 -14 -14 -14 -14 -14 -14 -14 -14 -14 -14 -14 -14 -14 -15 -15 -15
-13 -13 -13 -13 -13 -13 -13 -14 -14 -14 -14 -16 -15 -16 -16 -16 -15 -15 -15 -14 -14 -14 -14 -14 -14 -14 -14 -14 -14 -14 -14 -14 -14 -14 -14 -14 -14 -14 -15 -15 -16 -15 -15
-13 -13 -13 -13 -13 -13 -14 -14 -14 -14 -14 -16 -15 -16 -16 -16 -16 -15 -15 -15 -14 -15 -15 -15 -14 -14 -14 -14 -14 -14 -14 -14 -14 -14 -14 -14 -14 -14 -14 -14 -14 -15 -15
-14 -14 -13 -13 -14 -13 -14 -14 -15 -14 -15 -16 -16 -16 -16 -16 -16 -15 -15 -15 -15 -15 -15 -15 -15 -14 -14 -14 -14 -14 -14 -14 -14 -14 -14 -14 -14 -14 -14 -15 -15 -15 -15
-14 -14 -14 -14 -14 -14 -14 -14 -15 -15 -15 -16 -16 -16 -15 -15 -15 -15 -15 -15 -15 -15 -15 -15 -15 -15 -15 -14 -15 -15 -15 -14 -14 -15 -15 -15 -15 -15 -15 -15 -15 -15 -15
-14 -14 -15 -15 -15 -15 -15 -15 -15 -16 -16 -16 -16 -16 -16 -15 -15 -15 -15 -15 -15 -15 -15 -15 -15 -15 -15 -15 -15 -15 -15 -15 -15 -15 -15 -15 -15 -15 -15 -16 -16 -16 -16
-15 -16 -15 -15 -15 -15 -15 -14 -15 -16 -15 -15 -15 -15 -16 -15 -15 -15 -15 -15 -14 -14 -15 -15 -15 -15 -15 -15 -15 -15 -15 -15 -15 -15 -15 -15 -16 -16 -16 -16 -16 -16 -16
-16 -16 -16 -16 -15 -15 -16 -15 -15 -16 -15 -15 -15 -16 -15 -15 -15 -15 -15 -15 -15 -15 -15 -15 -15 -15 -15 -15 -16 -16 -15 -16 -16 -16 -16 -16 -16 -16 -16 -16 -16 -16 -16
-17 -17 -16 -16 -16 -16 -15 -15 -16 -16 -15 -15 -15 -15 -16 -15 -15 -15 -15 -15 -15 -15 -15 -15 -15 -15 -15 -15 -15 -16 -16 -16 -16 -16 -16 -16 -16 -16 -16 -16 -17 -16 -17
-18 -18 -17 -17 -16 -15 -16 -16 -15 -15 -15 -15 -15 -15 -15 -15 -15 -15 -15 -15 -15 -14 -15 -15 -15 -15 -15 -15 -15 -16 -17 -16 -16 -16 -16 -16 -16 -16 -16 -17 -17 -17 -17
-18 -18 -18 -18 -17 -16 -17 -17 -17 -16 -16 -16 -15 -15 -15 -16 -15 -15 -14 -15 -15 -15 -16 -15 -15 -15 -15 -15 -15 -16 -17 -17 -16 -16 -16 -16 -16 -16 -16 -17 -17 -17 -17
-19 -18 -18 -18 -18 -18 -18 -18 -18 -18 -18 -17 -17 -17 -16 -16 -16 -16 -15 -15 -15 -15 -15 -15 -15 -15 -15 -16 -16 -17 -17 -17 -17 -16 -16 -16 -16 -16 -16 -16 -17 -16 -16
-19 -19 -19 -19 -18 -18 -18 -18 -18 -18 -18 -19 -19 -19 -18 -18 -17 -17 -17 -17 -17 -16 -16 -16 -16 -16 -15 -16 -17 -17 -17 -16 -16 -17 -16 -16 -16 -16 -16 -16 -16 -17 -19
-21 -20 -19 -20 -19 -19 -19 -19 -19 -19 -18 -19 -19 -18 -19 -19 -19 -19 -18 -18 -18 -18 -18 -17 -17 -17 -17 -17 -17 -17 -17 -16 -16 -16 -17 -16 -17 -17 -17 -17 -17 -20 -22
-22 -22 -22 -21 -21 -21 -21 -21 -20 -20 -20 -20 -20 -20 -20 -19 -19 -19 -19 -19 -19 -19 -19 -18 -18 -18 -18 -18 -18 -18 -18 -18 -18 -18 -18 -18 -18 -18 -19 -20 -20 -21 -22
-23 -23 -23 -22 -22 -22 -22 -22 -22 -22 -21 -21 -21 -21 -21 -21 -21 -21 -21 -21 -20 -20 -20 -20 -19 -19 -19 -18 -19 -19 -19 -19 -19 -19 -19 -20 -20 -20 -21 -21 -22 -22 -22
-24 -24 -24 -24 -23 -23 -23 -23 -23 -23 -22 -22 -22 -22 -22 -22 -22 -22 -22 -22 -22 -22 -22 -22 -21 -21 -21 -21 -20 -21 -20 -20 -20 -20 -21 -21 -21 -21 -22 -22 -22 -22 -22
-24 -24 -24 -24 -24 -24 -24 -24 -23 -23 -23 -23 -23 -23 -23 -23 -23 -23 -23 -22 -22 -22 -22 -22 -22 -22 -23 -22 -22 -23 -23 -23 -23 -22 -22 -22 -22 -22 -22 -22 -22 -22 -22
-25 -25 -25 -25 -25 -25 -24 -24 -24 -24 -24 -24 -24 -23 -23 -23 -23 -23 -23 -23 -23 -23 -23 -23 -23 -23 -23 -23 -23 -23 -23 -23 -23 -23 -23 -23 -23 -23 -23 -23 -23 -23 -23
-26 -26 -26 -26 -26 -26 -26 -26 -25 -25 -25 -24 -24 -24 -24 -24 -24 -23 -23 -23 -23 -23 -23 -23 -23 -23 -23 -23 -23 -23 -23 -23 -23 -23 -23 -23 -23 -23 -23 -23 -24 -24 -24
-28 -28 -27 -27 -27 -27 -26 -26 -26 -26 -26 -26 -26 -26 -25 -25 -25 -25 -25 -25 -24 -24 -24 -24 -24 -24 -24 -24 -24 -24 -24 -24 -24 -24 -24 -24 -24 -24 -24 -24 -24 -25 -25
-30 -30 -30 -29 -29 -29 -29 -28 -28 -28 -28 -28 -27 -27 -27 -27 -26 -26 -26 -26 -26 -26 -26 -25 -25 -25 -25 -25 -25 -25 -25 -25 -25 -25 -25 -25 -25 -25 -26 -26 -26 -27 -27
-32 -32 -32 -31 -31 -30 -30 -30 -30 -29 -29 -29 -29 -29 -29 -28 -28 -28 -28 -28 -27 -27 -27 -27 -27 -27 -26 -26 -27 -27 -27 -27 -27 -27 -27 -27 -27 -27 -27 -28 -28 -28 -28
-34 -34 -34 -34 -33 -33 -33 -33 -32 -32 -32 -32 -32 -31 -31 -30 -30 -30 -29 -29 -29 -29 -29 -29 -29 -29 -29 -29 -29 -29 -29 -29 -29 -29 -28 -29 -29 -29 -29 -29 -29 -30 -30

GFSGL_500_temp_117.txt.gz
Temp
-13 -13 -13 -13 -12 -12 -13 -12 -13 -13 -13 -13 -14 -14 -14 -14 -15 -15 -15 -15 -14 -14 -14 -14 -14 -14 -14 -14 -14 -14 -14 -14 -14 -14 -14 -14 -14 -14 -14 -14 -14 -14 -14
-14 -14 -13 -13 -13 -13 -13 -13 -13 -13 -13 -13 -14 -14 -14 -14 -15 -15 -15 -15 -14 -14 -14 -14 -14 -14 -14 -14 -14 -14 -14 -14 -14 -14 -14 -14 -14 -14 -14 -14 -14 -14 -14
-15 -14 -14 -14 -13 -13 -13 -13 -13 -13 -13 -13 -14 -14 -15 -15 -15 -15 -15 -15 -14 -14 -14 -14 -14 -14 -14 -14 -14 -14 -14 -14 -14 -14 -14 -14 -14 -14 -14 -15 -15 -15 -15
-15 -15 -14 -14 -14 -14 -14 -13 -13 -13 -13 -13 -14 -14 -14 -15 -16 -16 -16 -15 -15 -15 -15 -14 -14 -14 -14 -14 -14 -14 -14 -14 -14 -14 -14 -14 -14 -14 -14 -14 -15 -15 -15
-15 -14 -14 -14 -14 -14 -14 -14 -14 -14 -14 -14 -14 -14 -14 -14 -16 -16 -16 -16 -15 -15 -15 -15 -15 -15 -14 -14 -14 -14 -14 -14 -14 -14 -14 -14 -14 -14 -15 -15 -14 -15 -15
-15 -14 -14 -14 -13 -13 -14 -14 -14 -14 -14 -14 -13 -14 -14 -14 -15 -15 -16 -16 -15 -15 -15 -15 -15 -15 -15 -15 -15 -15 -14 -14 -14 -14 -14 -14 -14 -15 -14 -15 -15 -15 -15
-14 -14 -14 -14 -14 -13 -14 -14 -14 -14 -14 -14 -13 -14 -14 -15 -15 -16 -15 -16 -15 -15 -15 -15 -15 -15 -15 -15 -14 -15 -15 -15 -15 -15 -14 -15 -15 -15 -15 -15 -15 -15 -15
-15 -15 -15 -14 -15 -14 -14 -14 -15 -14 -14 -14 -15 -15 -15 -15 -16 -16 -16 -16 -16 -15 -15 -15 -15 -15 -15 -15 -15 -15 -15 -15 -15 -15 -15 -15 -15 -15 -15 -15 -15 -15 -16
-16 -15 -14 -14 -14 -14 -14 -15 -15 -15 -15 -14 -15 -15 -15 -16 -16 -16 -16 -16 -16 -16 -15 -15 -15 -15 -15 -15 -15 -15 -15 -15 -15 -15 -15 -15 -15 -15 -15 -16 -16 -16 -16
-17 -16 -16 -16 -15 -15 -15 -15 -16 -16 -16 -16 -16 -16 -15 -15 -16 -16 -16 -16 -16 -15 -15 -16 -15 -16 -16 -15 -15 -15 -15 -15 -15 -16 -16 -16 -16 -16 -16 -16 -16 -16 -16
-18 -17 -18 -17 -17 -16 -15 -16 -15 -15 -16 -16 -15 -15 -15 -15 -15 -16 -16 -16 -16 -15 -15 -15 -15 -15 -15 -16 -16 -15 -15 -15 -15 -15 -15 -16 -16 -16 -16 -16 -16 -16 -16
-18 -18 -18 -18 -17 -17 -17 -16 -16 -16 -16 -15 -16 -15 -16 -15 -16 -16 -16 -16 -16 -16 -15 -15 -15 -15 -15 -15 -15 -15 -15 -16 -15 -16 -16 -16 -17 -17 -17 -17 -17 -16 -17
-19 -19 -19 -18 -18 -18 -17 -17 -17 -17 -16 -16 -16 -16 -16 -16 -16 -15 -16 -16 -15 -15 -16 -15 -15 -15 -16 -16 -15 -15 -15 -15 -16 -16 -16 -16 -16 -18 -17 -17 -17 -17 -17
-20 -19 -19 -19 -19 -19 -18 -18 -18 -18 -18 -18 -18 -17 -17 -17 -17 -16 -16 -16 -16 -16 -16 -16 -16 -16 -16 -16 -16 -16 -16 -16 -16 -16 -15 -16 -17 -18 -17 -17 -17 -17 -17
-20 -20 -20 -19 -19 -19 -19 -19 -19 -19 -18 -18 -18 -18 -19 -18 -18 -19 -18 -17 -16 -17 -16 -17 -17 -17 -17 -16 -16 -17 -17 -17 -17 -17 -16 -16 -16 -17 -18 -18 -17 -17 -17
-22 -22 -21 -21 -20 -20 -20 -20 -20 -19 -19 -19 -19 -19 -19 -19 -19 -19 -19 -19 -19 -19 -18 -18 -17 -17 -18 -17 -18 -18 -18 -17 -17 -17 -17 -17 -17 -17 -18 -18 -17 -17 -17
-23 -23 -23 -22 -22 -22 -21 -21 -21 -21 -21 -21 -20 -20 -21 -20 -20 -20 -19 -19 -19 -20 -20 -20 -20 -19 -19 -19 -19 -19 -18 -18 -18 -18 -19 -18 -18 -18 -18 -18 -18 -18 -18
-24 -24 -24 -24 -24 -24 -23 -23 -22 -22 -22 -22 -22 -22 -22 -22 -21 -21 -21 -21 -20 -19 -20 -20 -20 -20 -20 -20 -20 -20 -20 -19 -19 -19 -19 -19 -19 -19 -19 -19 -19 -19 -19
-25 -24 -24 -24 -24 -24 -24 -24 -24 -24 -23 -23 -23 -23 -23 -23 -22 -22 -22 -22 -22 -22 -22 -21 -21 -21 -21 -21 -21 -21 -20 -20 -20 -20 -20 -20 -20 -20 -20 -20 -20 -20 -20
-25 -25 -25 -25 -25 -25 -25 -25 -24 -24 -24 -24 -24 -24 -24 -24 -23 -23 -23 -23 -23 -23 -23 -23 -23 -23 -22 -22 -23 -22 -22 -23 -22 -22 -22 -22 -22 -22 -22 -22 -22 -23 -23
-27 -26 -26 -26 -26 -26 -26 -26 -26 -25 -25 -25 -25 -24 -24 -24 -24 -24 -24 -24 -23 -23 -23 -23 -23 -23 -23 -23 -23 -23 -23 -23 -23 -23 -23 -23 -23 -23 -24 -23 -24 -24 -24
-28 -28 -27 -27 -27 -27 -26 -26 -26 -26 -26 -26 -26 -26 -26 -25 -25 -25 -25 -24 -24 -24 -24 -24 -24 -23 -23 -23 -23 -23 -23 -24 -24 -24 -24 -24 -24 -24 -24 -24 -24 -24 -24
-30 -30 -30 -29 -29 -29 -29 -29 -28 -28 -28 -27 -27 -27 -27 -27 -26 -26 -26 -26 -25 -25 -25 -25 -25 -24 -24 -24 -24 -24 -24 -24 -24 -24 -25 -25 -25 -25 -25 -25 -25 -25 -25
-32 -32 -32 -32 -32 -32 -32 -31 -31 -30 -30 -30 -30 -30 -29 -28 -28 -28 -27 -27 -27 -27 -26 -26 -26 -26 -26 -26 -26 -26 -26 -26 -26 -26 -26 -26 -26 -26 -26 -26 -26 -26 -26
-33 -33 -33 -33 -33 -33 -33 -33 -33 -33 -33 -32 -32 -31 -31 -30 -30 -30 -29 -29 -29 -29 -28 -28 -28 -28 -28 -28 -27 -27 -27 -27 -27 -27 -27 -27 -27 -27 -27 -28 -28 -28 -28
-34 -34 -34 -35 -35 -35 -35 -35 -35 -35 -34 -34 -34 -34 -33 -33 -32 -32 -32 -31 -31 -30 -30 -30 -30 -30 -30 -30 -30 -30 -29 -29 -29 -29 -29 -29 -29 -29 -29 -29 -29 -29 -29

GFSGL_500_temp_123.txt.gz
Temp
-16 -16 -16 -16 -15 -15 -15 -15 -14 -14 -14 -14 -13 -13 -13 -13 -13 -13 -13 -13 -14 -14 -14 -14 -15 -14 -14 -15 -15 -14 -14 -14 -14 -14 -14 -14 -13 -13 -13 -13 -13 -13 -13
-16 -16 -16 -15 -15 -15 -15 -15 -14 -14 -14 -13 -13 -13 -13 -13 -13 -13 -14 -13 -13 -14 -14 -14 -15 -15 -14 -15 -15 -15 -15 -15 -14 -14 -14 -14 -13 -13 -14 -14 -14 -14 -14
-16 -16 -16 -16 -16 -16 -15 -15 -14 -14 -14 -13 -13 -14 -14 -14 -14 -14 -14 -14 -13 -14 -14 -14 -15 -15 -15 -15 -15 -15 -15 -15 -14 -14 -14 -14 -14 -14 -14 -14 -14 -14 -14
-17 -17 -16 -16 -16 -16 -16 -15 -14 -14 -14 -14 -14 -14 -14 -14 -14 -13 -13 -13 -13 -13 -14 -14 -14 -15 -15 -15 -15 -15 -15 -15 -15 -14 -14 -14 -14 -14 -14 -14 -14 -14 -14
-17 -17 -16 -16 -16 -16 -16 -15 -15 -14 -14 -14 -14 -14 -14 -14 -14 -14 -13 -13 -13 -14 -14 -14 -14 -15 -15 -15 -15 -15 -15 -15 -15 -14 -14 -14 -14 -14 -14 -14 -14 -14 -14
-17 -17 -16 -16 -16 -15 -15 -15 -15 -15 -15 -15 -14 -14 -14 -14 -14 -14 -14 -14 -14 -14 -14 -14 -14 -14 -16 -15 -15 -15 -15 -15 -15 -15 -15 -14 -15 -15 -14 -14 -14 -15 -14
-17 -17 -16 -16 -16 -15 -15 -15 -15 -15 -15 -15 -14 -14 -14 -13 -14 -14 -14 -14 -14 -15 -15 -15 -14 -14 -15 -15 -16 -16 -16 -15 -15 -15 -15 -15 -15 -15 -15 -15 -15 -15 -15
-17 -17 -17 -17 -17 -16 -16 -15 -15 -15 -15 -15 -14 -14 -14 -14 -14 -15 -15 -14 -15 -14 -14 -14 -15 -15 -15 -15 -15 -16 -16 -16 -15 -15 -15 -15 -15 -15 -15 -15 -15 -15 -15
-18 -18 -18 -18 -17 -17 -17 -17 -17 -16 -15 -15 -15 -15 -15 -14 -15 -15 -14 -15 -15 -14 -15 -15 -15 -15 -15 -15 -16 -16 -16 -16 -16 -16 -16 -15 -15 -15 -15 -16 -16 -15 -15
-19 -19 -19 -19 -19 -18 -18 -18 -18 -17 -17 -16 -16 -16 -16 -16 -16 -16 -16 -16 -15 -15 -15 -15 -15 -15 -15 -16 -16 -16 -16 -16 -16 -16 -16 -16 -16 -16 -15 -15 -15 -16 -16
-19 -19 -19 -19 -19 -19 -19 -18 -18 -18 -18 -18 -17 -17 -17 -16 -16 -16 -16 -16 -15 -16 -15 -15 -15 -16 -16 -16 -16 -16 -16 -16 -15 -16 -16 -16 -16 -16 -16 -16 -15 -16 -16
-19 -19 -19 -19 -19 -19 -19 -19 -19 -18 -18 -18 -18 -18 -17 -17 -16 -16 -16 -16 -15 -16 -16 -16 -15 -16 -16 -16 -17 -17 -17 -17 -17 -16 -16 -16 -16 -16 -16 -16 -16 -16 -16
-19 -19 -19 -19 -19 -19 -19 -19 -19 -19 -19 -19 -18 -18 -18 -18 -18 -17 -17 -16 -16 -16 -16 -16 -16 -16 -16 -16 -16 -16 -17 -17 -17 -16 -16 -16 -16 -16 -16 -16 -16 -16 -16
-20 -20 -20 -20 -20 -20 -20 -20 -20 -20 -20 -20 -20 -19 -19 -19 -19 -18 -18 -18 -17 -17 -17 -17 -17 -16 -16 -16 -16 -16 -16 -17 -16 -16 -16 -16 -16 -16 -16 -16 -16 -16 -16
-22 -22 -22 -22 -22 -22 -22 -22 -22 -21 -21 -21 -21 -20 -20 -20 -19 -19 -19 -19 -19 -19 -18 -18 -17 -17 -17 -16 -16 -16 -16 -16 -16 -16 -16 -17 -17 -17 -17 -17 -17 -17 -17
-24 -24 -24 -24 -24 -23 -23 -23 -23 -23 -22 -22 -22 -22 -21 -21 -21 -20 -20 -20 -20 -19 -19 -19 -19 -19 -19 -18 -17 -17 -17 -17 -17 -17 -17 -17 -17 -17 -17 -17 -17 -17 -17
-24 -24 -24 -24 -24 -24 -24 -24 -24 -23 -23 -23 -23 -23 -22 -22 -22 -22 -22 -21 -21 -20 -20 -20 -20 -20 -19 -19 -19 -19 -18 -18 -18 -18 -18 -17 -17 -18 -17 -18 -18 -18 -17
-25 -25 -25 -25 -25 -25 -25 -25 -25 -24 -24 -24 -24 -23 -23 -23 -23 -23 -23 -23 -23 -22 -22 -22 -21 -21 -21 -20 -20 -20 -20 -20 -20 -20 -19 -19 -19 -19 -18 -18 -18 -18 -19
-25 -25 -25 -25 -26 -26 -26 -26 -25 -25 -25 -25 -24 -24 -24 -24 -24 -24 -23 -23 -23 -24 -24 -23 -23 -22 -22 -22 -22 -21 -21 -21 -21 -21 -21 -21 -21 -21 -20 -20 -20 -20 -20
-25 -26 -26 -26 -26 -27 -27 -27 -27 -27 -27 -27 -26 -26 -26 -25 -25 -25 -24 -24 -24 -24 -24 -24 -24 -24 -23 -23 -23 -23 -23 -23 -22 -22 -22 -22 -22 -22 -22 -22 -21 -22 -22
-26 -26 -27 -27 -27 -28 -28 -29 -29 -30 -30 -30 -30 -29 -29 -28 -28 -27 -26 -26 -25 -25 -25 -25 -25 -25 -25 -24 -24 -24 -23 -23 -23 -23 -23 -23 -23 -23 -23 -23 -23 -22 -22
-27 -27 -28 -28 -29 -29 -30 -31 -31 -32 -32 -32 -32 -32 -32 -32 -31 -30 -29 -29 -28 -27 -27 -26 -26 -26 -25 -25 -25 -25 -25 -24 -24 -24 -24 -24 -24 -24 -24 -24 -24 -24 -24
-28 -28 -29 -29 -30 -31 -32 -33 -33 -34 -34 -34 -34 -34 -34 -34 -33 -32 -32 -31 -30 -30 -29 -28 -28 -27 -27 -27 -26 -26 -26 -25 -25 -25 -25 -25 -25 -24 -24 -24 -24 -24 -24
-29 -29 -30 -31 -32 -33 -34 -34 -35 -36 -36 -36 -36 -35 -35 -35 -35 -34 -34 -33 -33 -32 -31 -31 -30 -29 -29 -28 -28 -27 -27 -27 -27 -26 -26 -26 -26 -26 -26 -26 -25 -25 -25
-30 -31 -32 -32 -33 -34 -35 -36 -37 -37 -37 -37 -37 -37 -37 -37 -36 -36 -35 -35 -34 -34 -33 -33 -32 -32 -31 -30 -30 -29 -29 -28 -28 -28 -28 -28 -27 -27 -27 -27 -27 -27 -27
-31 -32 -33 -34 -35 -35 -36 -38 -38 -38 -38 -38 -38 -38 -38 -37 -37 -37 -37 -36 -36 -35 -35 -34 -34 -34 -33 -33 -32 -32 -31 -31 -31 -30 -30 -30 -29 -29 -29 -29 -29 -29 -28

GFSGL_500_temp_126.txt.gz
Temp
-17 -17 -16 -16 -16 -15 -16 -15 -16 -15 -15 -15 -15 -15 -14 -14 -14 -14 -14 -13 -13 -13 -14 -14 -14 -14 -14 -14 -14 -13 -13 -14 -14 -14 -14 -14 -14 -14 -14 -13 -13 -13 -13
-17 -16 -16 -16 -17 -16 -16 -16 -16 -15 -15 -15 -15 -15 -14 -14 -14 -14 -14 -13 -13 -13 -14 -14 -14 -14 -14 -14 -14 -14 -14 -14 -14 -14 -14 -14 -14 -14 -14 -13 -13 -13 -13
-17 -17 -16 -16 -15 -16 -15 -15 -15 -15 -15 -15 -15 -15 -14 -14 -13 -13 -13 -13 -13 -13 -13 -14 -14 -14 -14 -14 -14 -14 -14 -14 -14 -14 -14 -14 -14 -14 -14 -14 -14 -14 -14
-16 -17 -16 -16 -16 -16 -16 -15 -15 -15 -15 -16 -16 -15 -15 -14 -14 -13 -13 -14 -14 -14 -13 -13 -13 -13 -14 -14 -14 -14 -14 -14 -14 -14 -14 -14 -14 -14 -14 -14 -14 -14 -14
-17 -17 -17 -16 -17 -16 -16 -16 -16 -17 -17 -16 -16 -15 -15 -14 -14 -14 -14 -14 -14 -14 -14 -14 -14 -14 -14 -14 -14 -14 -14 -14 -14 -14 -14 -14 -14 -14 -14 -14 -14 -14 -14
-17 -17 -17 -17 -17 -17 -16 -16 -16 -16 -16 -16 -15 -15 -15 -14 -14 -14 -14 -14 -14 -14 -14 -14 -13 -14 -14 -14 -14 -14 -14 -14 -14 -15 -15 -15 -15 -15 -15 -15 -15 -14 -14
-17 -18 -18 -17 -17 -17 -16 -16 -16 -16 -16 -15 -15 -15 -15 -15 -15 -14 -14 -15 -14 -14 -14 -14 -14 -14 -14 -14 -13 -14 -14 -14 -15 -15 -15 -15 -15 -15 -15 -14 -15 -15 -14
-19 -18 -18 -18 -18 -17 -17 -17 -16 -16 -16 -15 -15 -15 -15 -15 -15 -15 -14 -14 -14 -14 -15 -14 -15 -14 -14 -14 -13 -14 -14 -14 -15 -16 -16 -16 -15 -15 -15 -15 -15 -15 -15
-19 -19 -19 -18 -18 -18 -18 -18 -17 -17 -17 -17 -16 -15 -15 -15 -16 -16 -15 -15 -14 -16 -15 -15 -15 -15 -14 -14 -14 -15 -15 -14 -15 -16 -16 -16 -16 -16 -16 -15 -15 -15 -15
-19 -19 -19 -19 -19 -19 -19 -19 -19 -18 -18 -18 -17 -17 -16 -16 -16 -16 -16 -16 -15 -15 -15 -15 -15 -14 -15 -15 -15 -15 -15 -15 -15 -16 -16 -16 -16 -16 -16 -16 -16 -15 -15
-20 -20 -19 -19 -19 -19 -19 -19 -19 -19 -19 -19 -18 -18 -18 -18 -18 -17 -17 -17 -16 -16 -16 -15 -16 -15 -15 -15 -15 -15 -15 -15 -15 -16 -16 -16 -16 -16 -16 -16 -15 -15 -15
-20 -19 -19 -19 -19 -19 -19 -19 -19 -19 -19 -19 -19 -19 -19 -18 -18 -18 -18 -17 -17 -17 -16 -16 -16 -15 -16 -15 -15 -15 -15 -16 -16 -16 -16 -16 -16 -16 -16 -16 -16 -16 -16
-20 -20 -20 -20 -20 -19 -19 -19 -19 -19 -19 -19 -19 -19 -19 -19 -19 -19 -18 -18 -18 -17 -17 -17 -16 -16 -16 -16 -16 -16 -16 -16 -16 -16 -16 -16 -16 -16 -16 -16 -16 -16 -16
-20 -20 -20 -21 -21 -21 -21 -21 -21 -21 -21 -21 -20 -20 -20 -20 -19 -19 -19 -19 -19 -19 -18 -18 -17 -17 -17 -17 -17 -16 -16 -16 -16 -16 -16 -16 -16 -16 -16 -16 -16 -16 -16
-23 -23 -23 -23 -23 -23 -23 -23 -23 -23 -22 -22 -22 -22 -21 -21 -21 -21 -20 -20 -19 -19 -19 -19 -18 -18 -18 -17 -17 -17 -17 -16 -16 -16 -16 -16 -16 -16 -16 -16 -16 -16 -16
-24 -24 -24 -24 -24 -23 -23 -23 -23 -23 -23 -23 -23 -23 -23 -22 -22 -22 -22 -22 -21 -21 -20 -20 -20 -19 -19 -18 -19 -19 -18 -17 -17 -16 -16 -16 -16 -16 -16 -16 -16 -17 -17
-24 -24 -24 -24 -24 -23 -24 -24 -24 -24 -24 -24 -24 -24 -23 -23 -23 -22 -22 -22 -22 -22 -22 -21 -21 -20 -20 -20 -20 -19 -19 -19 -19 -19 -18 -17 -17 -17 -17 -17 -17 -17 -17
-24 -24 -24 -24 -24 -24 -24 -24 -24 -25 -25 -25 -25 -25 -25 -24 -24 -23 -23 -23 -23 -23 -23 -23 -23 -22 -22 -21 -21 -20 -20 -20 -20 -20 -20 -19 -19 -19 -18 -18 -18 -18 -18
-24 -24 -24 -24 -25 -25 -25 -25 -25 -25 -25 -26 -26 -26 -25 -25 -25 -24 -24 -24 -24 -23 -24 -23 -23 -23 -23 -23 -22 -22 -22 -21 -21 -21 -21 -20 -20 -20 -20 -20 -19 -19 -19
-25 -25 -25 -25 -25 -25 -25 -26 -26 -26 -26 -27 -27 -27 -27 -27 -27 -26 -26 -26 -26 -25 -25 -24 -24 -24 -24 -24 -24 -23 -23 -23 -23 -22 -22 -22 -22 -21 -21 -21 -21 -21 -21
-25 -25 -25 -26 -26 -26 -26 -27 -27 -28 -28 -29 -29 -30 -30 -31 -31 -31 -30 -30 -29 -29 -28 -27 -27 -26 -25 -25 -25 -25 -24 -24 -24 -24 -24 -23 -23 -23 -23 -23 -22 -22 -22
-25 -26 -26 -26 -27 -27 -28 -29 -29 -30 -31 -32 -32 -33 -33 -33 -33 -33 -33 -33 -33 -32 -31 -31 -30 -29 -28 -27 -27 -26 -26 -25 -25 -24 -24 -24 -24 -24 -24 -24 -24 -23 -23
-26 -26 -26 -27 -27 -28 -29 -30 -31 -32 -33 -34 -34 -35 -35 -35 -36 -36 -35 -35 -35 -34 -34 -33 -32 -31 -30 -30 -29 -29 -28 -27 -26 -26 -25 -25 -25 -25 -24 -24 -24 -24 -24
-26 -27 -27 -28 -29 -30 -31 -32 -33 -34 -35 -35 -36 -37 -37 -37 -37 -37 -37 -36 -36 -36 -35 -35 -34 -33 -32 -32 -31 -30 -30 -29 -29 -28 -27 -27 -26 -26 -25 -25 -25 -25 -25
-27 -27 -28 -29 -30 -31 -33 -34 -35 -35 -36 -36 -37 -38 -38 -38 -38 -38 -38 -38 -37 -37 -37 -36 -36 -35 -34 -33 -33 -32 -31 -31 -30 -30 -29 -29 -28 -28 -27 -27 -27 -26 -26
-28 -29 -30 -31 -32 -33 -34 -35 -36 -36 -36 -37 -38 -38 -38 -38 -38 -38 -38 -38 -38 -38 -37 -37 -36 -36 -36 -35 -35 -34 -33 -33 -32 -32 -31 -31 -30 -30 -29 -29 -28 -28 -28

GFSGL_500_temp_129.txt.gz
Temp
-18 -17 -17 -16 -16 -15 -15 -15 -16 -16 -15 -15 -16 -16 -15 -16 -15 -14 -14 -14 -13 -14 -14 -14 -13 -14 -14 -13 -14 -13 -13 -14 -13 -14 -14 -14 -14 -14 -14 -13 -13 -13 -14
-18 -16 -16 -16 -16 -16 -16 -16 -16 -16 -16 -16 -16 -15 -15 -15 -15 -15 -14 -13 -13 -13 -14 -14 -14 -14 -14 -14 -14 -14 -14 -14 -14 -14 -14 -14 -14 -14 -14 -14 -13 -13 -13
-18 -18 -16 -17 -16 -16 -15 -15 -16 -16 -16 -16 -16 -16 -15 -14 -14 -14 -15 -14 -14 -14 -14 -14 -14 -14 -14 -14 -14 -14 -14 -14 -14 -13 -14 -14 -14 -14 -14 -14 -14 -14 -14
-18 -18 -17 -17 -17 -16 -16 -17 -16 -16 -15 -15 -16 -16 -15 -15 -14 -15 -15 -14 -14 -14 -14 -14 -14 -14 -14 -14 -14 -14 -14 -14 -14 -13 -14 -14 -14 -14 -14 -14 -14 -14 -14
-17 -17 -17 -17 -18 -17 -17 -16 -16 -16 -16 -16 -15 -15 -15 -15 -15 -15 -14 -15 -15 -14 -14 -14 -14 -14 -14 -14 -14 -13 -14 -14 -14 -14 -14 -13 -14 -14 -14 -14 -14 -14 -14
-18 -17 -17 -17 -17 -17 -17 -16 -17 -17 -16 -16 -16 -16 -16 -16 -16 -15 -15 -16 -15 -14 -14 -14 -14 -14 -13 -13 -13 -13 -14 -14 -14 -14 -14 -13 -14 -15 -15 -14 -14 -14 -14
-17 -18 -17 -18 -18 -18 -17 -17 -17 -17 -17 -16 -16 -16 -16 -16 -16 -16 -16 -16 -15 -15 -15 -15 -15 -14 -14 -14 -14 -14 -14 -14 -14 -14 -13 -14 -14 -15 -15 -14 -14 -14 -14
-19 -19 -19 -19 -18 -18 -18 -18 -18 -18 -18 -17 -17 -17 -16 -16 -16 -16 -16 -16 -16 -16 -15 -15 -15 -15 -15 -14 -14 -14 -14 -15 -14 -14 -14 -14 -14 -14 -15 -15 -15 -15 -14
-20 -20 -20 -20 -19 -19 -19 -19 -19 -19 -18 -18 -18 -18 -18 -18 -17 -16 -16 -16 -16 -16 -16 -16 -16 -14 -14 -14 -15 -15 -15 -15 -14 -14 -14 -14 -14 -14 -15 -16 -15 -15 -15
-20 -20 -20 -20 -20 -20 -19 -19 -19 -19 -19 -19 -19 -19 -19 -18 -18 -18 -17 -17 -17 -17 -16 -16 -16 -15 -15 -15 -15 -14 -15 -15 -15 -15 -15 -15 -15 -14 -15 -16 -16 -16 -15
-20 -20 -20 -20 -19 -19 -19 -19 -19 -19 -19 -19 -19 -19 -19 -19 -19 -19 -19 -19 -18 -17 -17 -17 -16 -16 -16 -16 -15 -15 -15 -15 -15 -16 -15 -16 -15 -15 -15 -16 -16 -16 -15
-20 -20 -20 -20 -19 -19 -19 -19 -19 -19 -19 -19 -19 -19 -19 -19 -19 -18 -18 -18 -18 -18 -18 -18 -18 -17 -17 -17 -16 -16 -15 -15 -15 -16 -15 -15 -15 -15 -15 -16 -16 -16 -16
-20 -20 -20 -20 -20 -20 -20 -20 -20 -20 -20 -20 -20 -20 -19 -19 -19 -19 -19 -18 -18 -18 -18 -18 -18 -18 -17 -17 -17 -17 -17 -16 -16 -15 -16 -16 -16 -15 -16 -15 -16 -16 -16
-21 -21 -21 -22 -22 -22 -22 -22 -22 -22 -22 -22 -22 -22 -22 -22 -21 -21 -21 -20 -20 -19 -19 -19 -18 -18 -18 -18 -17 -17 -17 -16 -16 -16 -16 -17 -16 -16 -16 -16 -16 -16 -16
-23 -23 -23 -23 -23 -23 -23 -23 -23 -22 -23 -22 -22 -22 -22 -22 -22 -22 -22 -22 -22 -22 -21 -20 -19 -19 -19 -18 -18 -18 -18 -17 -17 -17 -17 -17 -16 -16 -16 -16 -16 -16 -16
-24 -24 -23 -23 -23 -23 -23 -23 -23 -23 -23 -23 -23 -23 -23 -23 -22 -23 -22 -22 -23 -22 -22 -22 -22 -21 -20 -19 -19 -19 -19 -18 -18 -18 -17 -17 -17 -16 -16 -16 -16 -16 -16
-24 -24 -24 -24 -24 -24 -24 -23 -24 -23 -23 -23 -23 -23 -23 -23 -23 -23 -23 -23 -23 -23 -23 -23 -22 -22 -22 -21 -20 -20 -20 -20 -19 -19 -19 -18 -18 -17 -17 -17 -16 -16 -16
-24 -24 -24 -24 -24 -24 -24 -24 -24 -24 -24 -24 -23 -24 -23 -23 -23 -24 -24 -23 -24 -24 -23 -23 -23 -23 -22 -22 -22 -22 -21 -21 -21 -20 -20 -20 -19 -19 -19 -19 -18 -18 -17
-24 -24 -24 -24 -24 -24 -24 -24 -24 -24 -24 -24 -24 -24 -24 -24 -24 -24 -24 -24 -25 -25 -25 -24 -24 -24 -24 -23 -23 -23 -23 -22 -22 -22 -22 -21 -21 -20 -20 -20 -20 -20 -19
-24 -24 -24 -24 -24 -24 -24 -24 -24 -24 -24 -24 -24 -24 -25 -25 -26 -27 -28 -29 -29 -29 -29 -28 -27 -26 -25 -24 -24 -23 -23 -23 -23 -23 -23 -23 -22 -22 -21 -21 -21 -21 -20
-25 -25 -25 -25 -24 -24 -25 -25 -25 -25 -25 -25 -25 -26 -27 -29 -30 -31 -32 -33 -33 -33 -33 -32 -32 -31 -30 -28 -27 -26 -25 -25 -24 -24 -24 -24 -24 -24 -23 -23 -23 -22 -22
-25 -25 -25 -25 -25 -25 -25 -25 -25 -26 -26 -27 -28 -30 -31 -32 -33 -33 -33 -34 -35 -35 -35 -35 -34 -34 -33 -32 -31 -30 -29 -28 -27 -27 -26 -26 -25 -25 -25 -24 -24 -24 -24
-25 -25 -25 -25 -25 -26 -26 -26 -27 -27 -28 -29 -31 -32 -33 -33 -34 -34 -35 -36 -37 -37 -37 -37 -36 -36 -35 -35 -34 -33 -32 -31 -30 -30 -29 -28 -27 -26 -26 -26 -25 -25 -25
-26 -26 -26 -26 -26 -26 -27 -27 -28 -29 -31 -32 -33 -34 -34 -34 -35 -36 -37 -37 -38 -38 -38 -37 -37 -37 -36 -36 -35 -35 -34 -33 -33 -32 -31 -30 -29 -29 -28 -28 -27 -27 -26
-26 -26 -26 -27 -27 -27 -28 -29 -30 -32 -33 -34 -34 -35 -35 -35 -36 -36 -37 -38 -38 -38 -38 -38 -38 -38 -37 -37 -37 -36 -35 -35 -34 -34 -33 -32 -31 -31 -30 -29 -29 -29 -28
-26 -27 -27 -28 -28 -29 -30 -31 -32 -33 -34 -35 -35 -35 -36 -36 -36 -37 -37 -38 -38 -38 -38 -38 -38 -38 -38 -37 -37 -37 -36 -36 -35 -35 -34 -34 -33 -32 -31 -31 -30 -30 -30

GFSGL_500_temp_132.txt.gz
Temp
-18 -18 -18 -17 -18 -16 -16 -16 -14 -14 -14 -14 -14 -15 -15 -15 -15 -15 -15 -15 -15 -15 -15 -14 -14 -15 -14 -13 -13 -13 -13 -13 -13 -13 -13 -13 -13 -14 -14 -15 -14 -13 -14
-18 -19 -18 -18 -17 -17 -16 -15 -15 -15 -15 -15 -15 -14 -15 -16 -16 -16 -16 -16 -16 -15 -15 -14 -14 -15 -14 -14 -13 -13 -12 -14 -13 -13 -14 -14 -14 -13 -13 -14 -14 -13 -14
-18 -18 -19 -18 -17 -17 -17 -16 -16 -16 -16 -16 -15 -16 -16 -16 -15 -16 -16 -16 -16 -15 -15 -15 -14 -15 -14 -14 -13 -13 -13 -13 -13 -13 -14 -14 -14 -14 -14 -14 -14 -14 -14
-18 -18 -18 -18 -17 -17 -17 -16 -16 -16 -16 -16 -16 -16 -16 -17 -16 -16 -16 -15 -15 -16 -15 -15 -15 -15 -14 -14 -13 -14 -14 -13 -13 -13 -13 -13 -14 -14 -14 -14 -14 -14 -14
-17 -17 -17 -18 -18 -18 -17 -17 -16 -16 -16 -16 -16 -16 -17 -16 -16 -16 -15 -15 -16 -15 -14 -15 -14 -15 -14 -14 -14 -14 -13 -13 -13 -13 -13 -13 -13 -14 -14 -14 -13 -14 -14
-18 -18 -17 -18 -17 -17 -17 -18 -17 -17 -16 -17 -17 -17 -16 -16 -15 -16 -16 -15 -16 -15 -15 -15 -15 -15 -14 -14 -14 -14 -14 -13 -13 -13 -14 -13 -13 -13 -14 -14 -13 -13 -13
-17 -17 -18 -17 -17 -18 -17 -18 -17 -17 -17 -17 -17 -17 -17 -17 -17 -17 -16 -15 -16 -16 -16 -15 -15 -15 -15 -15 -14 -14 -14 -14 -13 -13 -13 -13 -13 -13 -14 -14 -14 -13 -14
-19 -19 -19 -18 -18 -19 -19 -19 -19 -19 -18 -18 -17 -17 -17 -17 -17 -17 -17 -17 -17 -17 -16 -16 -16 -16 -16 -15 -15 -15 -15 -14 -15 -14 -14 -14 -14 -14 -14 -14 -14 -14 -13
-21 -21 -20 -20 -20 -19 -19 -19 -19 -18 -18 -18 -18 -18 -18 -18 -18 -18 -18 -17 -17 -17 -16 -16 -16 -16 -16 -16 -15 -16 -15 -15 -15 -15 -15 -14 -15 -14 -14 -15 -14 -14 -14
-20 -20 -20 -20 -19 -19 -19 -19 -19 -19 -19 -19 -19 -19 -19 -19 -19 -19 -19 -19 -18 -18 -18 -18 -17 -17 -17 -17 -16 -16 -16 -16 -16 -15 -15 -15 -15 -14 -14 -15 -14 -14 -15
-20 -20 -20 -20 -20 -19 -19 -19 -19 -19 -19 -19 -19 -19 -19 -19 -19 -19 -19 -19 -19 -18 -18 -18 -18 -18 -18 -17 -17 -16 -16 -16 -16 -16 -15 -15 -15 -15 -14 -15 -15 -15 -15
-20 -20 -20 -20 -20 -20 -19 -19 -19 -19 -19 -19 -19 -19 -19 -19 -19 -19 -19 -19 -19 -19 -19 -19 -18 -18 -18 -18 -18 -18 -17 -17 -16 -16 -16 -16 -16 -15 -15 -15 -15 -16 -15
-20 -20 -20 -20 -20 -20 -20 -20 -20 -21 -21 -21 -21 -21 -21 -21 -21 -21 -21 -20 -20 -20 -19 -19 -19 -19 -18 -18 -18 -18 -18 -18 -17 -17 -17 -16 -16 -16 -15 -15 -15 -15 -15
-21 -21 -21 -21 -21 -22 -22 -23 -23 -23 -22 -22 -22 -22 -22 -22 -22 -22 -22 -22 -22 -21 -21 -21 -20 -20 -20 -19 -18 -19 -19 -18 -18 -18 -17 -17 -17 -16 -16 -16 -16 -16 -15
-22 -23 -23 -23 -23 -23 -23 -23 -23 -23 -23 -23 -22 -22 -22 -22 -22 -22 -22 -22 -22 -22 -21 -21 -21 -21 -21 -21 -20 -19 -19 -19 -19 -18 -18 -18 -17 -17 -17 -17 -16 -16 -16
-24 -24 -24 -24 -24 -23 -23 -23 -23 -23 -23 -23 -23 -23 -23 -22 -22 -22 -22 -22 -22 -22 -22 -21 -21 -21 -21 -21 -21 -21 -21 -20 -19 -19 -19 -18 -18 -18 -17 -17 -16 -17 -16
-24 -24 -24 -24 -24 -24 -24 -24 -24 -24 -24 -23 -23 -23 -23 -23 -23 -23 -23 -22 -22 -22 -22 -22 -22 -22 -22 -21 -21 -21 -21 -22 -21 -20 -19 -19 -19 -19 -18 -18 -17 -17 -17
-24 -24 -24 -24 -24 -24 -24 -24 -24 -24 -24 -24 -24 -23 -23 -23 -23 -23 -23 -23 -23 -23 -23 -22 -22 -22 -22 -22 -22 -22 -22 -22 -22 -22 -22 -21 -20 -20 -19 -19 -19 -19 -19
-24 -24 -24 -24 -24 -24 -24 -24 -24 -24 -24 -23 -23 -24 -24 -24 -24 -24 -24 -24 -24 -24 -24 -24 -24 -24 -25 -25 -24 -24 -23 -23 -22 -23 -23 -23 -22 -22 -21 -21 -20 -20 -20
-25 -25 -25 -25 -25 -24 -24 -24 -24 -24 -24 -24 -24 -25 -25 -25 -25 -25 -25 -25 -26 -27 -29 -29 -30 -30 -31 -30 -30 -30 -29 -28 -27 -25 -24 -24 -24 -23 -23 -22 -22 -22 -21
-25 -25 -25 -25 -25 -24 -24 -24 -24 -25 -25 -25 -25 -25 -25 -26 -26 -26 -28 -30 -31 -32 -32 -32 -32 -32 -32 -33 -33 -33 -33 -32 -30 -29 -28 -26 -25 -25 -24 -24 -24 -24 -23
-25 -25 -25 -25 -25 -25 -25 -25 -25 -26 -26 -26 -26 -26 -27 -27 -29 -30 -32 -32 -33 -33 -33 -34 -34 -35 -35 -36 -36 -35 -35 -34 -33 -32 -31 -30 -29 -27 -26 -26 -26 -26 -26
-25 -25 -25 -25 -25 -25 -26 -26 -26 -26 -27 -27 -27 -28 -29 -31 -32 -33 -33 -34 -34 -34 -35 -35 -36 -36 -37 -37 -37 -37 -36 -36 -35 -34 -34 -33 -32 -31 -30 -29 -28 -28 -27
-25 -25 -25 -26 -26 -26 -26 -27 -27 -27 -27 -28 -29 -31 -32 -33 -34 -34 -35 -35 -35 -35 -35 -36 -37 -37 -37 -38 -38 -37 -37 -37 -36 -36 -35 -35 -34 -33 -33 -32 -31 -30 -30
-26 -26 -26 -26 -27 -27 -27 -27 -28 -28 -29 -30 -32 -33 -34 -34 -35 -35 -36 -36 -36 -36 -36 -36 -37 -37 -38 -38 -38 -38 -38 -38 -37 -37 -36 -36 -35 -35 -34 -33 -33 -32 -31
-26 -26 -27 -27 -27 -28 -28 -28 -29 -30 -31 -33 -34 -34 -35 -35 -35 -36 -36 -37 -37 -37 -37 -37 -37 -38 -38 -38 -38 -38 -38 -38 -38 -37 -37 -37 -36 -36 -35 -35 -34 -34 -33